[[{"header":{"parameterUnit":"m.s-1","parameterCategory":1,"la1":30.6,"la2":29.2853,"lo1":-89.7004,"lo2":-87.6739,"dx":0.0162,"dy":0.0183,"nx":112,"ny":82,"refTime":"2022-11-03T12:00:00:Z","depth":0,"parameterNumber":2,"parameterNumberName":"U-component_of_WINDS"},"data":[0.0,0.0,0.0,0.0,0.0,0.0,0.0,0.0,0.0,0.0,0.0,0.0,0.0,0.0,0.0,0.0,0.0,0.0,0.0,0.0,0.0,0.0,0.0,0.0,0.0,0.0,0.0,0.0,0.0,0.0,0.0,0.0,0.0,0.0,0.0,0.0,0.0,0.0,0.0,0.0,0.0,0.0,0.0,0.0,0.0,0.0,0.0,0.0,0.0,0.0,0.0,0.0,0.0,0.0,0.0,0.0,0.0,0.0,0.0,0.0,0.0,0.0,0.0,0.0,0.0,0.0,0.0,0.0,0.0,0.0,0.0,0.0,0.0,0.0,0.0,0.0,0.0,0.0,0.0,0.0,0.0,0.0,0.0,0.0,0.0,0.0,0.0,0.0,0.0,0.0,-1.95,-1.9926,-1.9862,-1.9798,-1.9798,-1.9798,-1.961,-1.9146,0.0,0.0,0.0,0.0,0.0,0.0,0.0,0.0,0.0,0.0,0.0,0.0,0.0,0.0,0.0,0.0,0.0,0.0,0.0,0.0,0.0,0.0,0.0,0.0,0.0,0.0,0.0,0.0,0.0,0.0,0.0,0.0,0.0,0.0,0.0,0.0,0.0,0.0,0.0,0.0,0.0,0.0,0.0,0.0,0.0,0.0,0.0,0.0,0.0,0.0,0.0,0.0,0.0,0.0,0.0,0.0,0.0,0.0,0.0,0.0,0.0,0.0,0.0,0.0,0.0,0.0,0.0,0.0,0.0,0.0,0.0,0.0,0.0,0.0,0.0,0.0,0.0,0.0,0.0,0.0,0.0,0.0,0.0,0.0,0.0,0.0,0.0,0.0,0.0,0.0,0.0,0.0,0.0,0.0,0.0,0.0,0.0,0.0,0.0,0.0,0.0,0.0,0.0,0.0,-1.9875,-1.9837,-1.9798,-1.9798,-1.9798,-1.9798,-1.9773,-1.9685,0.0,0.0,0.0,0.0,0.0,0.0,0.0,0.0,0.0,0.0,0.0,0.0,0.0,0.0,0.0,0.0,0.0,0.0,0.0,0.0,0.0,0.0,0.0,0.0,0.0,0.0,0.0,0.0,0.0,0.0,0.0,0.0,0.0,0.0,0.0,0.0,0.0,0.0,0.0,0.0,0.0,0.0,0.0,0.0,0.0,0.0,0.0,0.0,0.0,0.0,0.0,0.0,0.0,0.0,0.0,0.0,0.0,0.0,0.0,0.0,0.0,0.0,0.0,0.0,0.0,0.0,0.0,0.0,0.0,0.0,0.0,0.0,0.0,0.0,0.0,0.0,0.0,0.0,0.0,0.0,0.0,0.0,0.0,0.0,0.0,0.0,0.0,0.0,0.0,0.0,0.0,0.0,0.0,0.0,0.0,0.0,0.0,0.0,0.0,0.0,0.0,0.0,0.0,-2.0123,-2.0781,-2.0715,-2.0451,-2.0302,-2.0302,-1.9987,-1.9798,-1.9798,-1.9623,0.0,0.0,0.0,0.0,0.0,0.0,0.0,0.0,0.0,0.0,0.0,0.0,0.0,0.0,0.0,0.0,0.0,0.0,0.0,0.0,0.0,0.0,0.0,0.0,0.0,0.0,0.0,0.0,0.0,0.0,0.0,0.0,0.0,0.0,0.0,0.0,0.0,0.0,0.0,0.0,0.0,0.0,0.0,0.0,0.0,0.0,0.0,0.0,0.0,0.0,0.0,0.0,0.0,0.0,0.0,0.0,0.0,0.0,0.0,0.0,0.0,0.0,0.0,0.0,0.0,0.0,0.0,0.0,0.0,0.0,0.0,0.0,0.0,0.0,0.0,0.0,0.0,0.0,0.0,0.0,0.0,0.0,0.0,0.0,0.0,0.0,0.0,0.0,0.0,0.0,0.0,0.0,0.0,0.0,0.0,0.0,0.0,0.0,0.0,0.0,0.0,0.0,-2.0507,-2.1103,-2.1256,-2.1034,-2.083,-2.0704,-2.0289,-1.9949,-1.9811,-1.9798,0.0,0.0,0.0,0.0,0.0,0.0,0.0,0.0,0.0,0.0,0.0,0.0,0.0,0.0,0.0,0.0,0.0,0.0,0.0,0.0,0.0,0.0,0.0,0.0,0.0,0.0,0.0,0.0,0.0,0.0,0.0,0.0,0.0,0.0,0.0,0.0,0.0,0.0,0.0,0.0,0.0,0.0,0.0,0.0,0.0,0.0,0.0,0.0,0.0,0.0,0.0,0.0,0.0,0.0,0.0,0.0,0.0,0.0,0.0,0.0,0.0,0.0,0.0,0.0,0.0,0.0,0.0,0.0,0.0,0.0,0.0,0.0,0.0,0.0,0.0,0.0,0.0,0.0,0.0,0.0,0.0,0.0,0.0,0.0,0.0,0.0,0.0,0.0,0.0,0.0,0.0,0.0,0.0,0.0,0.0,0.0,0.0,0.0,0.0,0.0,0.0,0.0,-1.9655,-1.9942,-2.0517,-2.1091,-2.1257,-2.0729,-2.0654,-2.0402,-1.9836,-1.9798,0.0,0.0,0.0,0.0,0.0,0.0,0.0,0.0,0.0,0.0,0.0,0.0,0.0,0.0,0.0,0.0,0.0,0.0,0.0,0.0,0.0,0.0,0.0,0.0,0.0,0.0,0.0,0.0,0.0,0.0,0.0,0.0,0.0,0.0,0.0,0.0,0.0,0.0,0.0,0.0,0.0,0.0,0.0,0.0,0.0,0.0,0.0,0.0,0.0,0.0,0.0,0.0,0.0,0.0,0.0,0.0,0.0,0.0,0.0,0.0,0.0,0.0,0.0,0.0,0.0,0.0,0.0,0.0,0.0,0.0,0.0,0.0,0.0,0.0,0.0,0.0,0.0,0.0,0.0,0.0,0.0,0.0,0.0,0.0,0.0,0.0,0.0,0.0,0.0,0.0,0.0,0.0,0.0,0.0,0.0,0.0,0.0,0.0,0.0,0.0,0.0,0.0,-2.0305,-2.0623,-2.0849,-2.08,-2.0665,-2.0475,-1.9887,-1.9424,-1.9183,0.0,0.0,0.0,0.0,0.0,0.0,0.0,0.0,0.0,0.0,0.0,0.0,0.0,0.0,0.0,0.0,0.0,0.0,0.0,0.0,0.0,0.0,0.0,0.0,0.0,0.0,0.0,0.0,0.0,0.0,0.0,0.0,0.0,0.0,0.0,0.0,0.0,0.0,0.0,0.0,0.0,0.0,0.0,0.0,0.0,0.0,0.0,0.0,0.0,0.0,0.0,0.0,0.0,0.0,0.0,0.0,0.0,0.0,0.0,0.0,0.0,0.0,0.0,0.0,0.0,0.0,0.0,0.0,0.0,0.0,0.0,0.0,0.0,0.0,0.0,0.0,0.0,0.0,0.0,0.0,0.0,0.0,0.0,0.0,0.0,0.0,0.0,0.0,0.0,0.0,0.0,0.0,0.0,0.0,0.0,0.0,0.0,0.0,0.0,0.0,0.0,0.0,-1.9868,-2.04,-2.0773,-2.0773,-2.0668,-2.0488,-2.0297,-1.9675,-1.9149,-1.8828,0.0,0.0,0.0,0.0,0.0,0.0,0.0,0.0,0.0,0.0,0.0,0.0,0.0,0.0,0.0,0.0,0.0,0.0,0.0,0.0,0.0,0.0,0.0,0.0,0.0,0.0,0.0,0.0,0.0,0.0,0.0,0.0,0.0,0.0,0.0,0.0,0.0,0.0,0.0,0.0,0.0,0.0,0.0,0.0,0.0,0.0,0.0,0.0,0.0,0.0,0.0,0.0,0.0,0.0,0.0,0.0,0.0,0.0,0.0,0.0,0.0,0.0,0.0,0.0,0.0,0.0,0.0,0.0,0.0,0.0,0.0,0.0,0.0,0.0,0.0,0.0,0.0,0.0,0.0,0.0,0.0,0.0,0.0,0.0,0.0,0.0,0.0,0.0,0.0,0.0,0.0,0.0,0.0,0.0,0.0,0.0,0.0,0.0,0.0,0.0,0.0,0.0,-1.9108,-1.9649,-2.0063,-2.0063,-2.0677,-2.0865,-2.0331,-2.0285,-1.9851,0.0,0.0,0.0,0.0,0.0,0.0,0.0,0.0,0.0,0.0,0.0,0.0,0.0,0.0,0.0,0.0,0.0,0.0,0.0,0.0,0.0,0.0,0.0,0.0,0.0,0.0,0.0,0.0,0.0,0.0,0.0,0.0,0.0,0.0,0.0,0.0,0.0,0.0,0.0,0.0,0.0,0.0,0.0,0.0,0.0,0.0,0.0,0.0,0.0,0.0,0.0,0.0,0.0,0.0,0.0,0.0,0.0,0.0,0.0,0.0,0.0,0.0,0.0,0.0,0.0,0.0,0.0,0.0,0.0,0.0,0.0,0.0,0.0,0.0,0.0,0.0,0.0,0.0,0.0,0.0,0.0,0.0,0.0,0.0,0.0,0.0,0.0,0.0,0.0,0.0,0.0,0.0,0.0,0.0,0.0,0.0,0.0,0.0,0.0,0.0,0.0,0.0,0.0,-1.8539,-1.8361,-1.8351,-1.8798,-1.9021,-1.9224,-1.9425,-1.8805,-1.8438,-1.8508,0.0,0.0,0.0,0.0,0.0,0.0,0.0,0.0,0.0,0.0,0.0,0.0,0.0,0.0,0.0,0.0,0.0,0.0,0.0,0.0,0.0,0.0,0.0,0.0,0.0,0.0,0.0,0.0,0.0,0.0,0.0,0.0,0.0,0.0,0.0,0.0,0.0,0.0,0.0,0.0,0.0,0.0,0.0,0.0,0.0,0.0,0.0,0.0,0.0,0.0,0.0,0.0,0.0,0.0,0.0,0.0,0.0,0.0,0.0,0.0,0.0,0.0,0.0,0.0,0.0,0.0,0.0,0.0,0.0,0.0,0.0,0.0,0.0,0.0,0.0,0.0,0.0,0.0,0.0,0.0,0.0,0.0,0.0,0.0,0.0,0.0,0.0,0.0,0.0,0.0,0.0,0.0,0.0,0.0,0.0,0.0,0.0,0.0,0.0,0.0,0.0,0.0,-1.793,-1.7623,-1.7545,-1.7896,-1.8168,-1.8337,-1.8428,-1.8088,-1.7859,-1.7778,0.0,0.0,0.0,0.0,0.0,0.0,0.0,0.0,0.0,0.0,0.0,0.0,0.0,0.0,0.0,0.0,0.0,0.0,0.0,0.0,0.0,0.0,0.0,0.0,0.0,0.0,0.0,0.0,0.0,0.0,0.0,0.0,0.0,0.0,0.0,0.0,0.0,0.0,0.0,0.0,0.0,0.0,0.0,0.0,0.0,0.0,0.0,0.0,0.0,0.0,0.0,0.0,0.0,0.0,0.0,0.0,0.0,0.0,0.0,0.0,0.0,0.0,0.0,0.0,0.0,0.0,0.0,0.0,0.0,0.0,0.0,0.0,0.0,0.0,0.0,0.0,0.0,0.0,0.0,0.0,0.0,0.0,0.0,0.0,0.0,0.0,0.0,0.0,0.0,0.0,0.0,0.0,0.0,0.0,0.0,0.0,0.0,0.0,0.0,0.0,0.0,0.0,-1.7348,-1.727,-1.727,-1.7304,-1.7828,-1.793,-1.7451,-1.7852,-1.7765,-1.6921,0.0,0.0,0.0,0.0,0.0,0.0,0.0,0.0,0.0,0.0,0.0,0.0,0.0,0.0,0.0,0.0,0.0,0.0,0.0,0.0,0.0,0.0,0.0,0.0,0.0,0.0,0.0,0.0,0.0,0.0,0.0,0.0,0.0,0.0,0.0,0.0,0.0,0.0,0.0,0.0,0.0,0.0,0.0,0.0,0.0,0.0,0.0,0.0,0.0,0.0,0.0,0.0,0.0,0.0,0.0,0.0,0.0,0.0,0.0,0.0,-2.0223,-2.114,0.0,0.0,0.0,0.0,0.0,0.0,0.0,0.0,0.0,0.0,0.0,0.0,0.0,0.0,0.0,0.0,0.0,0.0,0.0,0.0,0.0,0.0,0.0,0.0,0.0,0.0,0.0,0.0,0.0,0.0,0.0,0.0,0.0,0.0,0.0,0.0,0.0,0.0,0.0,0.0,-1.6777,-1.6412,-1.6316,-1.6751,-1.6881,-1.7088,-1.7373,-1.7132,-1.706,-1.725,-1.6628,0.0,0.0,0.0,0.0,0.0,0.0,0.0,0.0,0.0,0.0,0.0,0.0,0.0,0.0,0.0,0.0,0.0,0.0,0.0,0.0,0.0,0.0,0.0,0.0,0.0,0.0,0.0,0.0,0.0,0.0,0.0,0.0,0.0,0.0,0.0,0.0,0.0,0.0,0.0,0.0,0.0,0.0,0.0,0.0,0.0,0.0,0.0,0.0,0.0,0.0,0.0,0.0,0.0,0.0,0.0,0.0,0.0,0.0,0.0,-1.9409,-1.9997,0.0,0.0,0.0,0.0,0.0,0.0,0.0,0.0,0.0,0.0,0.0,0.0,0.0,0.0,0.0,0.0,0.0,0.0,0.0,0.0,0.0,0.0,0.0,0.0,0.0,0.0,0.0,0.0,0.0,0.0,0.0,0.0,0.0,0.0,0.0,0.0,0.0,0.0,0.0,0.0,-1.6202,-1.5964,-1.5903,-1.6202,-1.6438,-1.6612,-1.6621,-1.6612,-1.6612,-1.6621,-1.6379,0.0,0.0,0.0,0.0,0.0,0.0,0.0,0.0,0.0,0.0,0.0,0.0,0.0,0.0,0.0,0.0,0.0,0.0,0.0,0.0,0.0,0.0,0.0,0.0,0.0,0.0,0.0,0.0,0.0,0.0,0.0,0.0,0.0,0.0,0.0,0.0,0.0,0.0,0.0,0.0,0.0,0.0,0.0,0.0,0.0,0.0,0.0,0.0,0.0,0.0,0.0,0.0,0.0,-1.871,-1.8643,-1.8643,-1.8643,-1.8506,-1.8331,-1.8534,-1.8698,-1.8891,-1.9809,0.0,0.0,0.0,0.0,0.0,0.0,0.0,0.0,0.0,0.0,0.0,0.0,0.0,0.0,0.0,0.0,0.0,0.0,0.0,0.0,0.0,0.0,-1.4574,-1.3807,-1.3587,-1.355,-1.3402,0.0,0.0,0.0,0.0,0.0,0.0,0.0,0.0,0.0,0.0,0.0,-1.5805,-1.5805,-1.5822,-1.5891,-1.6298,-1.6395,-1.6029,-1.6342,-1.6369,-1.5926,-1.6237,-1.6044,0.0,0.0,0.0,0.0,0.0,0.0,0.0,0.0,0.0,0.0,0.0,0.0,0.0,0.0,0.0,0.0,0.0,0.0,0.0,0.0,0.0,0.0,0.0,0.0,0.0,0.0,0.0,0.0,0.0,0.0,0.0,0.0,-1.8158,-1.7742,0.0,0.0,0.0,0.0,0.0,0.0,0.0,0.0,0.0,0.0,0.0,0.0,0.0,-1.9096,-1.9044,-1.8442,-1.8138,-1.8138,-1.7467,-1.7176,-1.7176,-1.7176,-1.7169,-1.7121,-1.7169,0.0,-1.9242,-1.9364,0.0,0.0,0.0,0.0,0.0,0.0,0.0,0.0,0.0,0.0,0.0,0.0,0.0,0.0,0.0,0.0,0.0,0.0,0.0,0.0,0.0,0.0,-1.4188,-1.3365,-1.3163,-1.2975,-1.228,-1.2955,-1.3673,-1.3637,-1.3637,-1.389,0.0,0.0,0.0,0.0,0.0,0.0,-1.5805,-1.5805,-1.5925,-1.6197,-1.6295,-1.6433,-1.6739,-1.6493,-1.6332,-1.6313,-1.6048,-1.5542,-1.4715,-1.4751,0.0,0.0,0.0,0.0,0.0,0.0,0.0,0.0,0.0,0.0,0.0,0.0,0.0,0.0,0.0,0.0,0.0,0.0,0.0,0.0,0.0,0.0,0.0,0.0,0.0,0.0,0.0,0.0,0.0,-1.7984,-1.768,-1.7585,-1.8165,-1.8911,0.0,0.0,0.0,0.0,0.0,0.0,0.0,0.0,0.0,-1.7954,-1.81,-1.8041,-1.7808,-1.7113,-1.6759,-1.6759,-1.5991,-1.5644,-1.5657,-1.581,-1.5892,-1.5946,-1.6048,-1.6513,-1.7237,-1.7962,-1.8493,-1.8789,0.0,0.0,0.0,0.0,-1.693,-1.6239,-1.6239,-1.5834,-1.532,-1.5288,0.0,0.0,0.0,0.0,0.0,0.0,0.0,-1.4103,-1.3779,-1.3678,-1.341,-1.2625,-1.2426,-1.2313,-1.196,-1.2316,-1.2777,-1.2979,-1.3063,-1.3267,-1.3884,-1.3998,0.0,0.0,0.0,-1.4552,-1.4705,-1.4728,-1.4862,-1.5139,-1.517,-1.524,-1.5435,-1.5264,-1.5178,-1.5216,-1.4924,-1.4581,-1.4235,-1.4061,-1.3894,0.0,0.0,0.0,0.0,0.0,0.0,0.0,0.0,0.0,0.0,0.0,0.0,0.0,0.0,0.0,0.0,0.0,0.0,0.0,0.0,0.0,0.0,0.0,0.0,0.0,0.0,0.0,0.0,-1.7226,-1.7324,-1.7488,-1.7975,-1.8636,0.0,0.0,0.0,0.0,0.0,0.0,-1.7037,-1.6929,-1.6732,-1.6307,-1.6608,-1.6617,-1.6298,-1.5777,-1.5535,-1.5499,-1.494,-1.4667,-1.472,-1.4916,-1.5063,-1.5127,-1.5265,-1.5343,-1.5513,-1.6573,-1.6978,-1.7013,-1.7373,-1.7182,-1.6733,-1.6795,-1.6286,-1.5568,-1.5568,-1.5219,-1.4734,-1.4739,-1.4591,-1.4348,-1.3966,0.0,0.0,0.0,0.0,-1.3498,-1.3093,-1.2991,-1.283,-1.2241,-1.2079,-1.2079,-1.2079,-1.2079,-1.2178,-1.246,-1.2505,-1.2702,-1.3301,-1.3407,0.0,-1.3674,-1.3711,-1.3799,-1.3995,-1.3986,-1.4072,-1.4327,-1.4356,-1.4352,-1.4392,-1.432,-1.4238,-1.4238,-1.3968,-1.3751,-1.3515,-1.3334,-1.3179,-1.3138,0.0,0.0,0.0,0.0,0.0,0.0,0.0,0.0,0.0,0.0,0.0,0.0,0.0,0.0,0.0,0.0,0.0,0.0,0.0,0.0,0.0,0.0,0.0,0.0,0.0,0.0,0.0,0.0,0.0,-1.6941,-1.7307,0.0,0.0,0.0,0.0,-1.8165,-1.7459,-1.6865,-1.6448,-1.5724,-1.5129,-1.4724,-1.4732,-1.4732,-1.4708,-1.4736,-1.4745,-1.4752,-1.4782,-1.4795,-1.481,-1.481,-1.4818,-1.4833,-1.4833,-1.4975,-1.523,-1.549,-1.5618,-1.5611,-1.5921,-1.5968,-1.5976,-1.6296,-1.5805,-1.4928,-1.4928,-1.4295,-1.3455,-1.3262,-1.3352,-1.3432,-1.2634,-1.2902,0.0,0.0,-1.2589,-1.2729,-1.2747,-1.2705,-1.2705,-1.2668,-1.2662,-1.2662,-1.2662,-1.2662,-1.2512,-1.2039,-1.1942,-1.2169,-1.2969,0.0,-1.3362,-1.4151,-1.4275,-1.4243,-1.4297,-1.4297,-1.4334,-1.447,-1.4505,-1.4538,-1.467,-1.4336,-1.4121,-1.4121,-1.381,-1.3251,-1.2495,-1.2449,-1.2355,-1.2094,-1.1382,0.0,0.0,0.0,0.0,0.0,0.0,0.0,0.0,0.0,0.0,0.0,0.0,0.0,0.0,0.0,0.0,0.0,0.0,0.0,0.0,0.0,0.0,0.0,0.0,0.0,0.0,0.0,0.0,-1.7229,-1.7,0.0,-1.7356,-1.6679,-1.6237,-1.6237,-1.5745,-1.5401,-1.527,-1.5153,-1.4996,-1.467,-1.486,-1.4909,-1.4751,-1.4294,-1.4046,-1.4053,-1.3551,-1.3353,-1.3373,-1.3581,-1.3682,-1.3693,-1.3823,-1.396,-1.4054,-1.4111,-1.4792,-1.5851,-1.6104,-1.5817,-1.5218,-1.5343,-1.472,-1.3886,-1.3886,-1.3639,-1.3332,-1.3306,-1.3256,-1.32,-1.3124,-1.3053,-1.3007,-1.3069,-1.3031,-1.3012,-1.3181,-1.2684,-1.2187,-1.2187,-1.2187,-1.2187,-1.2187,-1.2729,-1.3169,-1.2982,-1.253,-1.2201,-1.2305,-1.2313,-1.2433,-1.2711,-1.2751,-1.2815,-1.2996,-1.2894,-1.2915,-1.3146,-1.2974,-1.2892,-1.2948,-1.2826,-1.2764,-1.2764,-1.2465,-1.219,-1.191,-1.171,-1.1581,-1.1486,-1.122,-1.1135,0.0,0.0,0.0,0.0,0.0,0.0,0.0,0.0,0.0,0.0,0.0,0.0,0.0,0.0,0.0,0.0,0.0,0.0,0.0,0.0,0.0,0.0,0.0,0.0,0.0,-1.6397,-1.6447,-1.6703,-1.6163,-1.5939,-1.6363,-1.5544,-1.5051,-1.517,-1.4663,-1.4387,-1.4502,-1.4396,-1.4289,-1.4092,-1.4234,-1.4187,-1.4031,-1.3545,-1.3327,-1.3327,-1.2828,-1.2605,-1.2654,-1.2827,-1.2926,-1.2966,-1.3094,-1.3236,-1.3323,-1.3409,-1.4176,-1.5319,-1.5465,-1.5085,-1.4464,-1.4608,-1.4117,-1.3341,-1.3162,-1.315,-1.3219,-1.328,-1.3276,-1.329,-1.3465,-1.2993,-1.2516,-1.2864,-1.2615,-1.2249,-1.241,-1.1941,-1.1385,-1.1385,-1.1385,-1.1385,-1.1385,-1.1946,-1.2455,-1.2455,-1.2595,-1.2662,-1.2493,-1.2457,-1.2415,-1.2332,-1.2374,-1.2433,-1.2437,-1.2418,-1.2396,-1.2391,-1.2239,-1.2113,-1.2025,-1.2025,-1.2025,-1.2025,-1.1869,-1.1768,-1.1768,-1.1491,-1.133,-1.1247,-1.0789,-1.046,-1.0339,0.0,0.0,0.0,0.0,0.0,0.0,0.0,0.0,0.0,0.0,0.0,0.0,0.0,0.0,0.0,0.0,0.0,0.0,0.0,0.0,0.0,0.0,0.0,-1.507,-1.5857,-1.6038,-1.5282,-1.4832,-1.4724,-1.511,-1.4795,-1.4704,-1.5014,-1.4321,-1.397,-1.4236,-1.3391,-1.2902,-1.2902,-1.2664,-1.2504,-1.2504,-1.2566,-1.2614,-1.2614,-1.2668,-1.2705,-1.2705,-1.2705,-1.2705,-1.2705,-1.2705,-1.2862,-1.3109,-1.3361,-1.3654,-1.3878,-1.3837,-1.3818,-1.3856,-1.4174,-1.397,-1.3442,-1.293,-1.2934,-1.3113,-1.3113,-1.3243,-1.3447,-1.3447,-1.2706,-1.187,-1.187,-1.118,-1.044,-1.044,-1.0394,-1.0394,-1.0394,-1.0394,-1.0394,-1.0394,-1.0394,-1.044,-1.044,-1.2059,-1.3441,-1.3468,-1.3423,-1.3326,-1.3099,-1.3235,0.0,-1.2729,-1.282,-1.282,-1.2455,-1.2363,-1.2272,-1.2048,-1.2048,-1.2048,-1.1997,-1.1997,-1.1997,-1.1997,-1.1738,-1.1469,-1.1246,-0.9903,-0.9192,-0.9192,0.0,0.0,0.0,0.0,0.0,0.0,0.0,0.0,0.0,0.0,0.0,0.0,0.0,0.0,0.0,0.0,0.0,0.0,0.0,0.0,0.0,-1.515,-1.4936,-1.5154,-1.5125,-1.5005,-1.4788,-1.4375,-1.4134,-1.4268,-1.3856,-1.36,-1.373,-1.3386,-1.3224,-1.3265,-1.3078,-1.2864,-1.2701,-1.2854,-1.2828,-1.2655,-1.2644,-1.2681,-1.2681,-1.2668,-1.2705,-1.2705,-1.2705,-1.2705,-1.2705,-1.2705,-1.2747,-1.2819,-1.2899,-1.2942,-1.3089,-1.385,-1.4027,-1.3866,-1.3986,-1.3911,-1.3792,-1.3815,-1.3912,-1.3831,-1.3067,-1.2869,-1.2782,-1.2061,-1.1629,-1.1389,-1.1389,-1.1192,-1.1005,-1.1005,-1.0378,-0.9801,-0.9801,-0.9801,-0.9801,-0.9801,-1.0426,-1.1005,-1.1005,-1.1437,-1.1957,-1.2275,-1.1757,-1.1431,-1.1879,-1.137,-1.1099,-1.1574,-1.0828,-1.0828,-1.2272,-1.1579,-1.0981,-1.0939,-1.0939,-1.0607,-0.9811,-0.9764,-0.9764,-0.9764,-0.9716,-0.9618,-0.9566,-0.919,-0.9,0.0,0.0,0.0,0.0,0.0,0.0,0.0,0.0,0.0,0.0,0.0,0.0,0.0,0.0,0.0,0.0,0.0,0.0,0.0,0.0,0.0,0.0,-1.4317,-1.4015,-1.4149,-1.4259,-1.4204,-1.3873,-1.3689,-1.3621,-1.3621,-1.3374,-1.326,-1.3347,-1.3186,-1.3118,-1.3241,-1.3109,-1.2983,-1.2816,-1.288,-1.2875,-1.2705,-1.2705,-1.2705,-1.2705,-1.2705,-1.2705,-1.2705,-1.2705,-1.2491,-1.21,-1.21,-1.1942,-1.1641,-1.1641,-1.1701,-1.1855,0.0,0.0,0.0,0.0,-1.3049,-1.3008,-1.2775,-1.2744,-1.273,-1.2102,-1.1971,-1.195,-1.1365,-1.0881,-1.0538,-1.0538,-1.0194,-0.9854,-0.9854,-0.941,-0.8924,-0.8924,-0.8924,-0.8924,-0.8924,-0.941,-0.9854,-0.9854,-0.9854,0.0,-1.0663,-1.0674,-1.0669,-1.099,-1.056,-1.0281,-1.0484,-0.9957,-0.9953,-1.1099,-1.0583,-1.0109,-1.0109,-1.0109,0.0,0.0,0.0,-0.9163,-0.904,-0.9036,0.0,0.0,0.0,-0.8326,-0.8326,-0.7905,0.0,0.0,-0.7014,-0.7232,0.0,0.0,0.0,0.0,0.0,0.0,0.0,0.0,0.0,0.0,0.0,0.0,0.0,0.0,0.0,0.0,-1.3117,-1.2458,-1.2797,-1.3425,-1.3615,-1.2914,-1.3073,-1.326,-1.326,-1.3293,-1.342,-1.3633,-1.3441,-1.3428,-1.3633,-1.3264,0.0,0.0,0.0,-1.2534,-1.2534,-1.2443,-1.24,-1.24,-1.24,-1.24,-1.24,-1.24,-1.194,-1.1192,-1.1192,-1.0793,-1.0237,-1.0237,-1.0313,-1.0621,-1.2182,-1.2809,-1.2705,-1.2035,-1.1794,-1.1661,-1.0808,0.0,0.0,-1.071,-1.083,-1.0974,-1.0877,-1.0145,-0.941,-0.941,-0.8726,-0.7988,-0.7988,-0.7988,-0.7988,-0.7988,-0.8005,-0.8015,-0.8015,-0.8029,-0.8039,-0.8039,-0.8039,-0.8285,-0.8927,-0.983,-1.0391,-1.019,-1.0083,-0.9838,-0.9456,-0.9505,-0.9604,-0.9608,-0.9509,0.0,-0.9406,-0.9406,-0.9357,-0.9262,-0.9262,-0.9139,-0.8883,-0.8875,-0.8806,-0.8613,-0.7816,-0.7395,-0.7395,-0.6549,-0.6124,-0.6172,-0.6988,-0.7346,0.0,0.0,0.0,0.0,0.0,0.0,0.0,0.0,0.0,0.0,0.0,0.0,0.0,0.0,0.0,-1.3923,-1.3254,-1.2804,-1.308,-1.344,-1.3534,-1.3186,-1.334,-1.352,-1.352,-1.3774,-1.3941,-1.4001,-1.3617,-1.3383,-1.3476,-1.3052,-1.279,-1.279,-1.1972,-1.158,-1.158,-1.0837,-1.0443,-1.0443,-1.0443,0.0,-1.0443,-1.0443,-1.0411,-1.0405,-1.0405,-1.0395,-1.0361,-1.0361,-1.0482,-1.074,-1.0862,-1.0912,-1.0941,-1.1012,-1.0995,-1.1019,-1.1043,-1.108,-1.0967,-1.0089,-0.9874,-0.9752,-0.8874,-0.8482,0.0,-0.8333,-0.8137,-0.7988,-0.7988,-0.7988,-0.7988,-0.7988,-0.8136,-0.8225,-0.8225,-0.8316,-0.8397,-0.8397,-0.8397,-0.8342,-0.8238,-0.8245,-0.8329,-0.8715,-0.8074,-0.768,-0.8219,-0.7574,-0.7726,-0.9406,-0.8814,-0.8319,-0.8319,-0.8319,-0.7922,-0.708,-0.703,-0.7021,-0.6945,-0.6942,-0.693,-0.6906,-0.6712,-0.6613,-0.6613,-0.6418,-0.6319,-0.6363,-0.6365,-0.6367,0.0,0.0,0.0,0.0,0.0,0.0,0.0,0.0,0.0,0.0,0.0,-1.433,-1.4242,0.0,-1.348,-1.3558,-1.3244,-1.308,-1.3347,-1.3513,-1.3547,-1.3407,-1.3687,-1.3868,-1.3868,-1.3869,-1.3913,-1.3913,-1.3483,-1.3052,-1.2577,-1.2186,-1.1794,-1.1311,-1.0837,-1.0577,-1.0577,-1.0139,-0.9879,-0.9879,-0.9879,-0.9936,-1.0039,-1.0039,-0.9884,-0.9579,-0.9579,-0.941,-0.9119,-0.9164,-0.93,-0.9372,-0.9236,-0.9871,-1.0739,-1.0355,-1.0197,-1.0118,-0.9723,-0.9608,-0.9525,-0.9072,-0.8952,-0.8866,-0.8391,-0.8262,-0.8262,-0.8262,-0.8262,-0.8262,-0.8262,-0.8262,-0.8262,-0.8262,-0.8319,-0.8377,-0.8377,-0.8431,-0.8482,-0.8482,-0.8377,-0.8167,-0.7855,-0.7586,-0.7491,-0.7738,-0.7232,-0.693,-0.7334,-0.6924,-0.7027,-0.8098,-0.7741,-0.7386,-0.7386,-0.7386,-0.7181,-0.6619,-0.6619,-0.6619,-0.6619,-0.6619,-0.6619,-0.6619,-0.6559,-0.6476,-0.6476,-0.6476,-0.6476,-0.6476,-0.6469,-0.6377,0.0,0.0,0.0,0.0,0.0,0.0,0.0,-1.4273,-1.4695,-1.4348,-1.4074,-1.3903,-1.3775,-1.3286,-1.2978,-1.324,-1.3293,-1.3353,-1.3605,-1.3474,-1.3344,-1.3309,-1.3726,-1.3955,-1.3695,-1.3483,-1.33,-1.3124,-1.2741,-1.2229,-1.1451,-1.1192,-1.0664,-0.9923,-0.9705,-0.9623,-0.9623,-0.9444,-0.9379,-0.9415,-0.9415,-0.9527,-0.9677,-0.9677,-0.9371,-0.8753,-0.8789,-0.8453,-0.7865,-0.7938,-0.7988,-0.7988,-0.7988,-0.9069,-1.0489,-0.9608,-0.9335,-0.9218,-0.8382,-0.8052,-0.8147,-0.8269,-0.8364,-0.8385,-0.8445,-0.8482,-0.8482,-0.8482,-0.8482,-0.8482,-0.8482,-0.8482,-0.8482,-0.8482,-0.8506,-0.8526,-0.8526,-0.855,-0.857,-0.857,-0.8305,-0.7987,-0.7724,-0.7458,-0.7222,-0.712,-0.6959,-0.6801,-0.6801,-0.6801,-0.6801,-0.6801,-0.6801,-0.6801,-0.6801,-0.6801,-0.6801,-0.6801,-0.6801,-0.6801,-0.6801,-0.6801,-0.6801,-0.6801,-0.6706,-0.6654,-0.6654,-0.6654,-0.6499,-0.6292,-0.6385,-0.6487,-1.4958,-1.4703,-1.434,-1.3669,-1.3697,-1.3644,0.0,-1.2985,-1.334,-1.3058,-1.3172,-1.3317,-1.3271,-1.3199,-1.3253,-1.3507,-1.3553,-1.3571,-1.3688,-1.2983,-1.2383,-1.2182,-1.3118,-1.3349,-1.2314,-1.2229,-1.1832,-1.0999,-1.0745,-1.0572,-1.0443,-1.0183,-1.0009,-0.9923,-0.9104,-0.8671,-0.8671,-0.7837,-0.7515,-0.766,-0.766,-0.7742,-0.7898,-0.7898,-0.7884,-0.7935,-0.8077,-0.8047,-0.7965,-0.7982,-0.7988,-0.7988,-0.7988,-0.8137,-0.8333,-0.8233,-0.8277,-0.8445,-0.8296,-0.8326,-0.8435,-0.8452,-0.8459,-0.8462,-0.8476,-0.8482,-0.8482,-0.8482,-0.8482,-0.8482,-0.8482,-0.8482,-0.8482,-0.8482,-0.8584,-0.8682,-0.8682,-0.8791,-0.8834,-0.8834,-0.8608,-0.8329,-0.7999,-0.7726,-0.7376,-0.694,-0.6804,-0.6801,-0.6801,-0.6801,-0.6801,-0.6801,-0.6801,-0.6801,-0.6801,-0.6801,-0.6801,-0.6801,-0.6801,-0.6801,-0.6801,-0.6801,-0.6801,-0.6801,-0.6787,-0.6782,-0.6782,-0.6782,-0.625,-0.5189,-0.5197,-0.5776,-1.3564,-1.331,-1.3208,-1.2879,-1.3042,-1.3123,-1.2698,-1.2899,-1.3173,-1.3046,-1.312,-1.326,-1.3387,-1.342,-1.352,-1.3854,-1.3901,-1.3858,-1.3717,-1.2899,-1.2163,-1.1843,-1.1746,-1.1569,-1.1219,-1.1095,-1.0837,-1.0438,-1.0183,-0.9836,-0.9274,-0.9148,-0.8842,-0.8273,-0.7885,-0.7757,-0.7856,-0.7451,-0.7353,-0.7506,-0.7506,-0.758,-0.7723,-0.7723,-0.7804,-0.7897,-0.7961,-0.7988,-0.7988,-0.7988,-0.7988,-0.7988,-0.7988,-0.7988,-0.7988,-0.7988,-0.8029,-0.8136,-0.8136,-0.8174,-0.8238,-0.833,-0.836,-0.8374,-0.8459,-0.8482,-0.8482,-0.8482,-0.8547,-0.8615,-0.8615,-0.8679,-0.8747,-0.8747,-0.8798,-0.879,-0.879,-0.8838,-0.8826,-0.8712,-0.8432,-0.81,-0.7826,-0.7549,-0.729,-0.7076,-0.7008,-0.7008,-0.7008,-0.7008,-0.7008,-0.7008,-0.7008,-0.7008,-0.7008,-0.7008,-0.7008,-0.7008,-0.7008,-0.7008,-0.7008,-0.7008,-0.7008,-0.7008,-0.6288,-0.5878,-0.5878,-0.5175,-0.4582,-0.4045,-0.4142,-0.4435,-1.2482,-1.2305,-1.2318,-1.2405,-1.2623,-1.2804,-1.2891,-1.3113,-1.3327,-1.3327,-1.3394,-1.3514,-1.3686,-1.3726,-1.3834,-1.4055,-1.4088,-1.3913,-1.3307,-1.2425,-1.1558,-1.0885,-0.9971,-0.9488,-0.9614,-0.9749,-0.9705,-0.9444,-0.9226,-0.8838,-0.8149,-0.8151,-0.7867,-0.7204,-0.72,-0.7322,-0.7434,-0.7434,-0.7509,-0.7658,-0.7658,-0.7733,-0.7875,-0.7875,-0.7884,-0.7988,-0.7988,-0.7988,-0.7988,-0.7988,-0.7988,-0.7988,-0.7988,-0.7988,-0.7988,-0.7988,-0.8015,-0.8102,-0.8102,-0.813,-0.818,-0.8292,-0.8381,-0.8347,-0.8452,-0.8513,-0.8547,-0.8547,-0.8655,-0.8774,-0.8774,-0.8801,-0.8885,-0.8885,-0.8885,-0.8885,-0.8885,-0.8885,-0.8826,-0.8543,-0.8208,-0.7934,-0.7662,-0.7379,-0.721,-0.721,-0.721,-0.721,-0.721,-0.721,-0.721,-0.721,-0.721,-0.721,-0.721,-0.721,-0.721,-0.721,-0.6874,-0.671,-0.671,-0.6371,-0.6202,-0.6202,-0.5249,-0.4777,-0.4777,-0.3897,-0.3294,-0.2967,-0.3059,-0.291,-1.2305,-1.2305,-1.2371,-1.2697,-1.2777,-1.2864,-1.3126,-1.338,-1.3586,-1.3586,-1.3861,-1.4062,-1.4075,-1.4075,-1.4075,-1.4088,-1.4088,-1.361,-1.2229,-1.1225,-1.0135,-0.8759,-0.7753,-0.7183,-0.7228,-0.8017,-0.8193,-0.7272,-0.7183,-0.7183,-0.7139,-0.7327,-0.7409,-0.7409,-0.7509,-0.7587,-0.7594,-0.7594,-0.7665,-0.7804,-0.7804,-0.7885,-0.7982,-0.7982,-0.7985,-0.7988,-0.7988,-0.7988,-0.7988,-0.7988,-0.7988,-0.7988,-0.7988,-0.7988,-0.7988,-0.7988,-0.8133,-0.8313,-0.8313,-0.8353,-0.8469,-0.8472,-0.8476,-0.8476,-0.8479,-0.8584,-0.8703,-0.8703,-0.8815,-0.8875,-0.8875,-0.8878,-0.8885,-0.8885,-0.8885,-0.8885,-0.8885,-0.8885,-0.8826,-0.8543,-0.8208,-0.7934,-0.7662,-0.7379,-0.721,-0.721,-0.721,-0.721,-0.721,-0.721,-0.721,-0.721,-0.721,-0.721,-0.721,-0.721,-0.721,-0.721,-0.6096,-0.5483,-0.5483,-0.4308,-0.3692,-0.3692,-0.3691,-0.3634,-0.3634,-0.3634,-0.3018,-0.1846,-0.1847,-0.1064,-1.2305,-1.2305,-1.2371,-1.271,-1.2938,-1.3133,-1.3387,-1.3728,-1.3941,-1.3941,-1.4015,-1.4088,-1.4088,-1.4088,-1.4088,-1.4088,-1.3955,-1.3392,-1.2186,-1.1095,-0.9923,-0.8671,-0.7665,-0.7095,-0.7095,-0.7404,-0.7448,-0.7139,-0.7238,-0.7292,-0.7292,-0.7441,-0.7522,-0.7522,-0.7573,-0.7645,-0.774,-0.774,-0.7814,-0.7914,-0.7914,-0.7941,-0.7988,-0.7988,-0.7988,-0.7988,-0.7988,-0.7988,-0.7988,-0.7988,-0.7988,-0.7988,-0.7988,-0.7988,-0.7988,-0.7988,-0.8022,-0.8116,-0.8116,-0.8147,-0.8187,-0.8187,-0.8258,-0.8391,-0.8391,-0.8442,-0.856,-0.856,-0.8669,-0.8788,-0.8788,-0.8807,-0.8885,-0.8885,-0.8885,-0.8885,-0.8885,-0.8885,-0.8771,-0.8266,-0.7482,-0.698,-0.7268,-0.5924,-0.4808,-0.4808,-0.6149,-0.721,-0.721,-0.721,-0.721,-0.721,-0.6485,-0.5984,-0.5984,-0.5256,-0.4808,-0.4808,-0.4418,-0.4196,-0.4196,-0.3804,-0.358,-0.358,-0.2797,-0.2407,-0.2407,-0.1623,-0.1008,-0.0616,-0.0448,-0.0056,-1.2305,-1.2378,-1.2532,-1.2878,-1.314,-1.34,-1.3693,-1.3948,-1.4088,-1.4088,-1.4088,-1.4088,-1.4088,-1.4088,-1.4088,-1.4088,-1.3955,-1.33,-1.1703,-1.0904,-0.9904,-0.8286,-0.7628,-0.726,-0.726,-0.726,-0.7237,-0.7227,-0.7366,-0.7451,-0.7451,-0.7594,-0.7675,-0.7675,-0.7729,-0.7801,-0.7892,-0.7892,-0.7894,-0.7988,-0.7988,-0.7988,-0.7988,-0.7988,-0.7988,-0.7988,-0.7988,-0.7988,-0.7988,-0.7988,-0.7988,-0.7988,-0.7988,-0.7988,-0.7988,-0.7988,-0.8025,-0.8113,-0.8008,-0.8025,-0.8123,-0.8123,-0.8225,-0.8347,-0.8347,-0.8448,-0.8564,-0.8564,-0.8672,-0.8791,-0.8791,-0.8811,-0.8885,-0.8885,-0.8885,-0.8771,-0.8325,-0.8269,-0.7934,-0.6927,-0.6142,-0.5697,-0.5868,-0.4641,-0.358,-0.358,-0.492,-0.5924,-0.5924,-0.5924,-0.5924,-0.5924,-0.52,-0.4756,-0.4756,-0.4029,-0.358,-0.358,-0.3189,-0.2966,-0.2966,-0.2519,-0.2295,-0.2295,-0.1567,-0.1176,-0.1176,-0.0392,0.0,0.0,0.028,0.0449,-1.2318,-1.2569,-1.2864,-1.3153,-1.34,-1.368,-1.4021,-1.4088,-1.4088,-1.4088,-1.4088,-1.4088,-1.4108,-1.4095,-1.4088,-1.4108,-1.4053,-1.3215,-1.0913,-1.0676,-0.9876,-0.764,-0.7506,-0.76,-0.76,-0.7607,-0.755,-0.745,-0.7529,-0.7611,-0.7611,-0.7746,-0.7824,-0.7824,-0.7914,-0.7988,-0.7988,-0.7988,-0.7988,-0.7988,-0.7988,-0.7988,-0.7988,-0.7988,-0.7988,-0.7988,-0.7988,-0.7988,-0.7988,-0.7988,-0.7988,-0.7988,-0.7988,-0.7995,-0.8002,-0.8002,-0.815,-0.8258,-0.8113,-0.816,-0.8333,-0.8333,-0.8377,-0.8492,-0.8492,-0.8601,-0.8723,-0.8723,-0.8825,-0.8885,-0.8885,-0.883,-0.8826,-0.8826,-0.8771,-0.838,-0.7263,-0.6985,-0.6536,-0.4804,-0.447,-0.4249,-0.3525,-0.3469,-0.3469,-0.3413,-0.3413,-0.3469,-0.358,-0.358,-0.358,-0.358,-0.3525,-0.3525,-0.3525,-0.3469,-0.3413,-0.3413,-0.2351,-0.1736,-0.1736,-0.0616,0.0,0.0,0.0,0.0,0.0,0.0,0.0,0.0,0.028,0.0617,-1.261,-1.2723,-1.2911,-1.336,-1.3547,-1.368,-1.4021,-1.4088,-1.4088,-1.4088,-1.4088,-1.4155,-1.4369,-1.4229,-1.4162,-1.4376,-1.3354,-1.2095,-1.0783,-0.9837,-0.8845,-0.7552,-0.7506,-0.76,-0.76,-0.7695,-0.774,-0.7702,-0.7736,-0.7756,-0.7756,-0.7899,-0.7931,-0.7931,-0.7968,-0.7988,-0.7988,-0.7988,-0.7988,-0.7988,-0.7988,-0.7988,-0.7988,-0.7988,-0.7988,-0.7988,-0.7988,-0.7988,-0.7988,-0.7988,-0.7988,-0.7988,-0.7988,-0.8109,-0.8211,-0.8211,-0.8303,-0.8421,-0.8384,-0.8394,-0.8428,-0.8428,-0.853,-0.8652,-0.8652,-0.876,-0.8824,-0.8824,-0.8854,-0.8885,-0.8885,-0.8211,-0.7543,-0.7543,-0.6924,-0.6197,-0.5919,-0.5808,-0.5586,-0.4693,-0.4137,-0.3188,-0.1232,-0.1679,-0.1959,-0.1064,-0.0896,-0.1567,-0.3357,-0.358,-0.358,-0.358,-0.2797,-0.2239,-0.2239,-0.1456,-0.0896,-0.0896,-0.0616,-0.0448,-0.0448,-0.0168,0.0,0.0,0.0,0.0,0.0,0.0,0.0,0.0,0.0505,0.0841,-1.2703,-1.2884,-1.306,-1.3487,-1.37,-1.3881,-1.4048,-1.4088,-1.4088,-1.4088,-1.4088,-1.4175,-1.4469,-1.4282,-1.4182,-1.4339,-1.3127,-1.174,-1.0611,-0.9643,-0.8647,-0.761,-0.7662,-0.7794,-0.7794,-0.7865,-0.7913,-0.7913,-0.7913,-0.7913,-0.7913,-0.7941,-0.7988,-0.7988,-0.7988,-0.7988,-0.7988,-0.7988,-0.7988,-0.7988,-0.7988,-0.7988,-0.7988,-0.7988,-0.7988,-0.7988,-0.7988,-0.7988,-0.7988,-0.7988,-0.7988,-0.7995,-0.8113,-0.8194,-0.833,-0.834,-0.8455,-0.8581,-0.8581,-0.8625,-0.8672,-0.8604,-0.8686,-0.8811,-0.8811,-0.8814,-0.8885,-0.8885,-0.8885,-0.8885,-0.8885,-0.7989,-0.7096,-0.7096,-0.6255,-0.525,-0.4749,-0.447,-0.408,-0.2908,-0.235,-0.1567,-0.0224,-0.056,-0.0784,-0.0112,0.0,-0.0504,-0.1847,-0.2015,-0.2015,-0.2015,-0.14,-0.1008,-0.1008,-0.0392,0.0,0.0,0.0,0.0,0.0,0.0,0.0,0.0,0.0,0.0,0.0,0.0,0.0,0.0,0.0617,0.0897,-1.2764,-1.3033,-1.334,-1.3586,-1.3895,-1.4088,-1.4088,-1.4088,-1.4088,-1.4088,-1.4088,-1.4175,-1.4469,-1.4282,-1.409,-1.4028,-1.2899,-1.1638,-1.0313,-0.9515,-0.8703,-0.7738,-0.7858,-0.7988,-0.7988,-0.7988,-0.7988,-0.7988,-0.7988,-0.7988,-0.7988,-0.7988,-0.7988,-0.7988,-0.7988,-0.7988,-0.7988,-0.7988,-0.7988,-0.7988,-0.7988,-0.7988,-0.7988,-0.7988,-0.7988,-0.7988,-0.7988,-0.7988,-0.7988,-0.7988,-0.8002,-0.8032,-0.8218,-0.8347,-0.8343,-0.8469,-0.8608,-0.874,-0.874,-0.8828,-0.8861,-0.8784,-0.8828,-0.8885,-0.8885,-0.8885,-0.8885,-0.8885,-0.8885,-0.8881,-0.8716,-0.7765,-0.6816,-0.6649,-0.5755,-0.4637,-0.358,-0.3078,-0.235,-0.0785,-0.0224,0.0,0.0,0.0,0.0,0.0,0.0,0.0,0.0,0.0,0.0,0.0,0.0,0.0,0.0,0.0,0.0,0.0,0.0,0.0,0.0,0.0,0.0,0.0,0.0,0.0,0.0,0.0,0.0,0.0,0.0617,0.0897,-1.3046,-1.3347,-1.36,-1.3935,-1.4048,-1.4088,-1.4088,-1.4088,-1.4088,-1.4088,-1.4088,-1.4175,-1.4469,-1.4282,-1.3871,-1.3168,-1.1842,-1.0481,-0.9323,-0.8401,-0.7828,-0.7644,-0.7858,-0.7988,-0.7988,-0.7988,-0.7988,-0.7988,-0.7988,-0.7988,-0.7988,-0.7988,-0.7988,-0.7988,-0.7988,-0.7988,-0.7988,-0.7988,-0.7988,-0.7988,-0.7988,-0.7988,-0.7988,-0.7988,-0.7988,-0.7988,-0.7988,-0.7988,-0.7988,-0.7988,-0.8113,-0.8235,-0.831,-0.8421,-0.8635,-0.8662,-0.8767,-0.8844,-0.8844,-0.8861,-0.8878,-0.8851,-0.8861,-0.8885,-0.8885,-0.8885,-0.8885,-0.8885,-0.8885,-0.866,-0.7654,-0.6536,-0.5419,-0.4416,-0.3302,-0.2353,-0.213,-0.1682,-0.1177,-0.0897,-0.0393,0.0,0.0,0.0,0.0,0.0,0.0,0.0,0.0,0.0,0.0,0.0,0.0,0.0,0.0,0.0,0.0,0.0,0.0,0.0,0.0,0.0,0.0,0.0,0.0,0.0,0.0,0.0,0.0,0.0,0.0617,0.0897,-1.3307,-1.35,-1.3673,-1.4015,-1.4088,-1.4088,-1.4088,-1.4088,-1.4088,-1.4088,-1.4088,-1.4175,-1.4469,-1.4282,-1.3828,-1.2955,-1.1543,-1.0183,-0.9061,-0.8102,-0.7509,-0.759,-0.779,-0.7901,-0.7982,-0.7988,-0.7988,-0.7988,-0.7988,-0.7988,-0.7988,-0.7988,-0.7988,-0.7988,-0.7988,-0.7988,-0.7988,-0.7988,-0.7988,-0.7988,-0.7988,-0.7988,-0.7988,-0.7988,-0.7988,-0.7988,-0.7988,-0.7988,-0.7988,-0.7988,-0.813,-0.833,-0.835,-0.8516,-0.872,-0.8801,-0.8821,-0.8885,-0.8885,-0.8885,-0.8885,-0.8885,-0.8885,-0.8885,-0.8885,-0.8885,-0.8885,-0.8885,-0.8436,-0.7823,-0.7263,-0.581,-0.4305,-0.3747,-0.2688,-0.1739,-0.157,-0.1177,-0.0841,-0.0673,-0.028,0.0,0.0,0.0,0.0,0.0,0.0,0.0,0.0,0.0,0.0,0.0,0.0,0.0,0.0,0.0,0.0,0.0,0.0,0.0,0.0,0.0,0.0,0.0,0.0,0.0,0.0,0.0,0.0056,0.0224,0.0673,0.0953,-1.3387,-1.36,-1.3753,-1.4028,-1.4088,-1.4088,-1.4088,-1.4088,-1.4088,-1.4088,-1.4088,-1.4155,-1.4389,-1.4242,-1.3724,-1.2578,-1.1386,-1.0139,-0.8803,-0.79,-0.7428,-0.7584,-0.7726,-0.7872,-0.7975,-0.7988,-0.7988,-0.7988,-0.7988,-0.7988,-0.7988,-0.7988,-0.7988,-0.7988,-0.7988,-0.7988,-0.7988,-0.7988,-0.7988,-0.7988,-0.7988,-0.7988,-0.7988,-0.7988,-0.7988,-0.7988,-0.7988,-0.7988,-0.7988,-0.7988,-0.815,-0.8378,-0.8438,-0.8598,-0.8774,-0.8841,-0.8885,-0.8885,-0.8885,-0.8885,-0.8885,-0.8885,-0.8885,-0.8885,-0.8885,-0.8716,-0.8491,-0.8491,-0.7654,-0.6649,-0.6427,-0.4975,-0.3525,-0.3302,-0.2465,-0.1739,-0.1458,-0.1121,-0.0841,-0.0561,-0.0224,0.0,0.0,0.0,0.0,0.0,0.0,0.0,0.0,0.0,0.0,0.0,0.0,0.0,0.0,0.0,0.0,0.0,0.0,0.0,0.0,0.0,0.0,0.0,0.0,0.0,0.0,0.0,0.0112,0.0393,0.0729,0.1065,-1.3233,-1.3641,-1.4055,-1.4082,-1.4088,-1.4088,-1.4088,-1.4088,-1.4088,-1.4088,-1.4088,-1.4095,-1.4122,-1.4108,-1.344,-1.151,-1.0842,-0.9923,-0.7896,-0.7503,-0.7428,-0.7584,-0.7726,-0.7872,-0.7975,-0.7988,-0.7988,-0.7988,-0.7988,-0.7988,-0.7988,-0.7988,-0.7988,-0.7988,-0.7988,-0.7988,-0.7988,-0.7988,-0.7988,-0.7988,-0.7988,-0.7988,-0.7988,-0.7988,-0.7988,-0.7988,-0.7988,-0.7988,-0.7988,-0.7988,-0.8204,-0.8465,-0.8476,-0.8662,-0.8865,-0.8878,-0.8885,-0.8885,-0.8885,-0.8885,-0.8885,-0.8885,-0.8885,-0.8885,-0.8885,-0.8159,-0.7263,-0.7263,-0.6422,-0.5306,-0.4193,-0.3748,-0.3301,-0.2242,-0.1907,-0.1795,-0.1739,-0.129,-0.0897,-0.0841,-0.0393,0.0,0.0,0.0,0.0,0.0,0.0,0.0,0.0,0.0,0.0,0.0,0.0,0.0,0.0,0.0,0.0,0.0,0.0,0.0,0.0,0.0,0.0,0.0,0.0,0.0,0.0,0.0,0.0112,0.0393,0.0729,0.1065,-1.316,-1.338,-1.3561,-1.3561,-1.3561,-1.3607,-1.374,-1.378,-1.3874,-1.4048,-1.4088,-1.4088,-1.4088,-1.4088,-1.3483,-1.1488,-1.0832,-0.9923,-0.8028,-0.7419,-0.7326,-0.757,-0.7648,-0.7777,-0.7968,-0.7988,-0.7988,-0.7988,-0.7988,-0.7988,-0.7988,-0.7988,-0.7988,-0.7988,-0.7988,-0.7988,-0.7988,-0.7988,-0.7988,-0.7988,-0.7988,-0.7988,-0.7988,-0.7988,-0.7988,-0.7988,-0.7988,-0.7988,-0.7988,-0.7988,-0.8214,-0.8482,-0.8482,-0.8669,-0.8885,-0.8885,-0.8885,-0.8885,-0.8885,-0.8885,-0.8885,-0.8885,-0.8436,-0.7823,-0.7823,-0.7487,-0.6985,-0.6255,-0.5252,-0.4193,-0.3748,-0.3079,-0.2409,-0.1907,-0.1795,-0.1795,-0.1795,-0.1346,-0.0897,-0.0897,-0.0393,0.0,0.0,0.0,0.0,0.0,0.0,0.0,0.0,0.0,0.0,0.0,0.0,0.0,0.0,0.0,0.0,0.0,0.0,0.0,0.0,0.0,0.0,0.0,0.0,0.0,0.0,0.0,0.0224,0.0729,0.0841,0.1177,-1.3013,-1.314,-1.3213,-1.3213,-1.3213,-1.3267,-1.3427,-1.3473,-1.3533,-1.3781,-1.3895,-1.3955,-1.3955,-1.3811,-1.3179,-1.1542,-1.0664,-0.9666,-0.8116,-0.7452,-0.7193,-0.7502,-0.757,-0.7699,-0.7897,-0.7965,-0.7988,-0.7988,-0.7988,-0.7988,-0.7988,-0.7988,-0.7988,-0.7988,-0.7988,-0.7988,-0.7988,-0.7988,-0.7988,-0.7988,-0.7988,-0.7988,-0.7988,-0.7988,-0.7988,-0.7988,-0.7988,-0.7988,-0.7988,-0.7988,-0.8214,-0.8482,-0.8482,-0.8669,-0.8885,-0.8885,-0.8885,-0.8885,-0.8885,-0.8885,-0.8885,-0.8885,-0.81,-0.7041,-0.6705,-0.6369,-0.5924,-0.5085,-0.397,-0.3079,-0.3079,-0.2409,-0.1795,-0.1795,-0.1795,-0.1795,-0.1795,-0.1402,-0.1009,-0.0897,-0.0505,-0.0112,0.0,0.0,0.0,0.0,0.0,0.0,0.0,0.0,0.0,0.0,0.0,0.0,0.0,0.0,0.0,0.0,0.0,0.0,0.0,0.0,0.0,0.0,0.0,0.0,0.0,0.0,0.028,0.0729,0.0841,0.1234,-1.279,-1.3012,-1.3213,-1.3213,-1.3213,-1.3213,-1.3213,-1.3213,-1.3213,-1.322,-1.3407,-1.3606,-1.3606,-1.3123,-1.24,-1.1456,-1.0149,-0.889,-0.8028,-0.7452,-0.7156,-0.7356,-0.7506,-0.7655,-0.7797,-0.7901,-0.7988,-0.7988,-0.7988,-0.7988,-0.7988,-0.7988,-0.7988,-0.7988,-0.7988,-0.7988,-0.7988,-0.7988,-0.7988,-0.7988,-0.7988,-0.7988,-0.7988,-0.7988,-0.7988,-0.7988,-0.7988,-0.7988,-0.7988,-0.7988,-0.8214,-0.8482,-0.8482,-0.8669,-0.8885,-0.8885,-0.8885,-0.8885,-0.8885,-0.8885,-0.8885,-0.8885,-0.81,-0.6871,-0.5753,-0.4582,-0.3636,-0.3636,-0.2744,-0.1795,-0.1795,-0.1795,-0.1795,-0.1795,-0.1795,-0.1795,-0.1795,-0.1514,-0.1234,-0.0953,-0.0617,-0.0336,-0.0056,0.0,0.0,0.0,0.0,0.0,0.0,0.0,0.0,0.0,0.0,0.0,0.0,0.0,0.0,0.0,0.0,0.0,0.0,0.0,0.0,0.0,0.0,0.0,0.0,0.0,0.0112,0.0393,0.0729,0.1234,-1.2445,-1.2512,-1.2585,-1.2585,-1.2585,-1.2645,-1.2884,-1.2931,-1.2991,-1.3166,-1.328,-1.3367,-1.3567,-1.2965,-1.2199,-1.1429,-1.0106,-0.889,-0.8028,-0.7452,-0.7197,-0.7353,-0.759,-0.7801,-0.7904,-0.7961,-0.7988,-0.7988,-0.7988,-0.7988,-0.7988,-0.7988,-0.7988,-0.7988,-0.7988,-0.7988,-0.7988,-0.7988,-0.7988,-0.7988,-0.7988,-0.7988,-0.7988,-0.7988,-0.7988,-0.7988,-0.7988,-0.7988,-0.7988,-0.7988,-0.8214,-0.8482,-0.8482,-0.8669,-0.8885,-0.8885,-0.8885,-0.8885,-0.8885,-0.8885,-0.8885,-0.8885,-0.754,-0.5864,-0.5528,-0.4582,-0.3413,-0.2576,-0.2074,-0.1795,-0.1795,-0.1795,-0.1795,-0.1795,-0.1795,-0.1795,-0.1795,-0.1514,-0.1234,-0.0953,-0.0617,-0.0336,-0.0056,0.0,0.0,0.0,0.0,0.0,0.0,0.0,0.0,0.0,0.0,0.0,0.0,0.0,0.0,0.0,0.0,0.0,0.0,0.0,0.0,0.0,0.0,0.0,0.0,0.0,0.028,0.0729,0.1065,0.1402,-1.2305,-1.2305,-1.2305,-1.2305,-1.2305,-1.2351,-1.2569,-1.2616,-1.267,-1.2826,-1.2959,-1.3126,-1.3387,-1.2533,-1.1674,-1.1316,-0.9809,-0.8524,-0.789,-0.7402,-0.7176,-0.7431,-0.7621,-0.7814,-0.7971,-0.7988,-0.7988,-0.7988,-0.7988,-0.7988,-0.7988,-0.7988,-0.7988,-0.7988,-0.7988,-0.7988,-0.7988,-0.7988,-0.7988,-0.7988,-0.7988,-0.7988,-0.7988,-0.7988,-0.7988,-0.7988,-0.7988,-0.7988,0.0,-0.7988,-0.8184,-0.8408,-0.8462,-0.8632,-0.8804,-0.8861,-0.8885,-0.8885,-0.8885,-0.8885,-0.8885,-0.8885,-0.7315,-0.525,-0.4305,-0.3525,-0.2744,-0.2019,-0.1795,-0.1795,-0.1795,-0.1795,-0.1795,-0.1795,-0.1795,-0.1795,-0.1795,-0.1627,-0.1402,-0.1121,-0.0897,-0.0617,-0.0224,-0.0168,-0.0112,0.0,0.0,0.0,0.0,0.0,0.0,0.0,0.0,0.0,0.0,0.0,0.0,0.0,0.0,0.0,0.0,0.0,0.0,0.0,0.0,0.0,0.0,0.0,0.0224,0.0729,0.1009,0.129,0.0,-1.2305,-1.2305,-1.2305,-1.2305,-1.2305,-1.2305,-1.2305,0.0,-1.2305,-1.2556,-1.2812,-1.3068,-1.1869,-1.0932,-1.1079,-0.9314,-0.786,-0.7692,-0.7362,-0.721,-0.7563,-0.76,-0.7716,-0.7961,-0.7988,-0.7988,-0.7988,-0.7988,-0.7988,-0.7988,-0.7988,-0.7988,-0.7988,-0.7988,-0.7988,-0.7988,-0.7988,-0.7988,-0.7988,-0.7988,-0.7988,-0.7988,-0.7988,-0.7988,-0.7988,-0.7988,-0.7988,-0.7988,-0.7988,-0.813,-0.8337,-0.8428,-0.8574,-0.873,-0.8828,-0.8885,-0.8885,-0.8885,-0.8885,-0.8881,-0.8716,-0.7091,-0.486,-0.2521,-0.1795,-0.1795,-0.1795,-0.1795,-0.1795,-0.1795,-0.1795,-0.1795,-0.1795,-0.1795,-0.1795,-0.1795,-0.1795,-0.1683,-0.1346,-0.129,-0.1121,-0.0505,-0.0393,-0.0336,-0.0056,0.0,0.0,0.0,0.0,0.0,0.0,0.0,0.0,0.0,0.0,0.0,0.0,0.0,0.0,0.0,0.0,0.0,0.0,0.0,0.0,0.0,0.0,0.0112,0.0393,0.0729,0.1065,-1.2305,0.0,-1.2305,-1.2305,-1.2305,-1.2305,0.0,-1.2305,-1.2305,-1.2305,-1.2358,-1.2377,-1.2147,-1.1266,-1.0383,-1.0019,-0.8792,-0.7823,-0.7597,-0.7299,-0.721,-0.7563,-0.76,-0.7716,-0.7961,-0.7988,-0.7988,-0.7988,-0.7988,-0.7988,-0.7988,-0.7988,-0.7988,-0.7988,-0.7988,-0.7988,-0.7988,-0.7988,-0.7988,-0.7988,-0.7988,-0.7988,-0.7988,-0.7988,-0.7988,-0.7988,-0.7988,-0.7988,-0.7988,-0.7988,-0.813,-0.8337,-0.8428,-0.8574,-0.873,-0.8828,-0.8885,-0.8885,-0.8885,-0.8885,-0.8602,-0.6811,-0.525,-0.3747,-0.2242,-0.1795,-0.1795,-0.1795,-0.1795,-0.1795,-0.1795,-0.1795,-0.1795,-0.1795,-0.1795,-0.1795,-0.1795,-0.1795,-0.1683,-0.1346,-0.129,-0.1121,-0.0505,-0.0393,-0.0336,-0.0056,0.0,0.0,0.0,0.0,0.0,0.0,0.0,0.0,0.0,0.0,0.0,0.0,0.0,0.0,0.0,0.0,0.0,0.0,0.0,0.0,0.0,0.0,0.0112,0.0393,0.0729,0.1065,-1.2305,-1.2305,-1.2305,-1.2305,-1.2305,-1.2305,-1.2305,-1.2305,-1.2305,-1.2305,-1.2003,-1.1765,-1.1772,-1.0727,-0.9805,-0.9726,-0.8689,-0.7764,-0.7367,-0.7293,-0.7333,-0.757,-0.7658,-0.7787,-0.7968,-0.7988,-0.7988,-0.7988,-0.7988,-0.7988,-0.7988,-0.7988,-0.7988,-0.7988,-0.7988,-0.7988,-0.7988,-0.7988,-0.7988,-0.7988,-0.7988,-0.7988,-0.7988,-0.7988,-0.7988,-0.7988,-0.7988,-0.7988,-0.7988,-0.7988,-0.8039,-0.818,-0.8326,-0.8476,-0.8625,-0.8777,-0.8824,-0.8885,-0.8885,-0.8546,-0.7765,-0.5975,-0.4582,-0.3358,-0.2186,-0.1795,-0.1795,-0.1795,-0.1795,-0.1795,-0.1795,-0.1795,-0.1795,-0.1795,-0.1795,-0.1795,-0.1795,-0.1795,-0.1739,-0.157,-0.1514,-0.1346,-0.0729,-0.0617,-0.0505,-0.0056,0.0,0.0,0.0,0.0,0.0,0.0,0.0,0.0,0.0,0.0,0.0,0.0,0.0,0.0,0.0,0.0,0.0,0.0,0.0,0.0,0.0,0.0,0.0056,0.0224,0.0673,0.0897,-1.2305,-1.2305,-1.2305,-1.2305,-1.2305,-1.2305,-1.2305,-1.2305,-1.2305,-1.2305,-1.1669,-1.1199,-1.1528,-1.0288,-0.9262,-0.9527,-0.8605,-0.7676,-0.7183,-0.7275,-0.7428,-0.7584,-0.7726,-0.7872,-0.7975,-0.7988,-0.7988,-0.7988,-0.7988,-0.7988,-0.7988,-0.7988,-0.7988,-0.7988,-0.7988,-0.7988,-0.7988,-0.7988,-0.7988,-0.7988,-0.7988,-0.7988,-0.7988,-0.7988,-0.7988,-0.7988,-0.7988,-0.7988,-0.7988,-0.7988,-0.7988,-0.8005,-0.8211,-0.8357,-0.8503,-0.8655,-0.8808,-0.8885,-0.8885,-0.7986,-0.6702,-0.5697,-0.447,-0.3135,-0.213,-0.1795,-0.1795,-0.1795,-0.1795,-0.1795,-0.1795,-0.1795,-0.1795,-0.1795,-0.1795,-0.1795,-0.1795,-0.1795,-0.1795,-0.1795,-0.1795,-0.1627,-0.1065,-0.0953,-0.0729,-0.0168,0.0,0.0,0.0,0.0,0.0,0.0,0.0,0.0,0.0,0.0,0.0,0.0,0.0,0.0,0.0,0.0,0.0,0.0,0.0,0.0,0.0,0.0,0.0,0.0,0.0617,0.0729,-1.2305,-1.2305,-1.2305,-1.2305,-1.2305,-1.2305,-1.2305,-1.2305,-1.2305,-1.2305,-1.1669,-1.1003,-1.0668,-0.9837,-0.905,-0.8528,-0.7955,-0.7459,-0.7143,-0.7275,-0.7428,-0.7584,-0.7726,-0.7872,-0.7975,-0.7988,-0.7988,-0.7988,-0.7988,-0.7988,-0.7988,-0.7988,-0.7988,-0.7988,-0.7988,-0.7988,-0.7988,-0.7988,-0.7988,-0.7988,-0.7988,-0.7988,-0.7988,-0.7988,-0.7988,-0.7988,-0.7988,-0.7988,-0.7988,-0.7988,-0.7988,-0.8005,-0.8211,-0.8357,-0.8503,-0.8655,-0.8808,-0.8885,-0.8885,-0.7482,-0.5641,-0.5472,-0.3914,-0.2018,-0.1851,-0.1795,-0.1795,-0.1795,-0.1795,-0.1795,-0.1795,-0.1795,-0.1795,-0.1795,-0.1795,-0.1795,-0.1795,-0.1795,-0.1795,-0.1795,-0.1795,-0.1683,-0.129,-0.1065,-0.0785,-0.0393,-0.0168,0.0,0.0,0.0,0.0,0.0,0.0,0.0,0.0,0.0,0.0,0.0,0.0,0.0,0.0,0.0,0.0,0.0,0.0,0.0,0.0,0.0,0.0,0.0,0.0617,0.0729,-1.2258,-1.2305,-1.2305,-1.2305,-1.2305,-1.2194,-1.1744,-1.1632,-1.1521,-1.1099,-1.0453,-0.9925,-0.9777,-0.9202,-0.8581,-0.8245,-0.794,-0.7635,-0.7367,-0.744,-0.7519,-0.759,-0.7797,-0.7914,-0.7982,-0.7988,-0.7988,-0.7988,-0.7988,-0.7988,-0.7988,-0.7988,-0.7988,-0.7988,-0.7988,-0.7988,-0.7988,-0.7988,-0.7988,-0.7988,-0.7988,-0.7988,-0.7988,-0.7988,-0.7988,-0.7988,-0.7988,-0.7988,-0.7988,-0.7988,-0.7988,-0.7995,-0.8116,-0.8286,-0.8509,-0.8747,-0.8824,-0.8885,-0.8885,-0.7371,-0.5417,-0.5417,-0.3748,-0.1795,-0.1795,-0.1795,-0.1795,-0.1795,-0.1795,-0.1795,-0.1795,-0.1795,-0.1795,-0.1795,-0.1795,-0.1795,-0.1795,-0.1795,-0.1795,-0.1795,-0.1795,-0.1683,-0.1346,-0.1065,-0.0785,-0.0449,-0.0168,0.0,0.0,0.0,0.0,0.0,0.0,0.0,0.0,0.0,0.0,0.0,0.0,0.0,0.0,0.0,0.0,0.0,0.0,0.0,0.0,0.0,0.0,0.0,0.0449,0.0449,-1.2225,-1.2305,-1.2305,-1.2305,-1.2305,-1.2077,-1.1298,-1.1111,-1.0881,-1.0083,-0.943,-0.9028,-0.9158,-0.874,-0.8355,-0.8221,-0.8028,-0.7812,-0.7551,-0.7548,-0.76,-0.76,-0.7858,-0.7988,-0.7988,-0.7988,-0.7988,-0.7988,-0.7988,-0.7988,-0.7988,-0.7988,-0.7988,-0.7988,-0.7988,-0.7988,-0.7988,-0.7988,-0.7988,-0.7988,-0.7988,-0.7988,-0.7988,-0.7988,-0.7988,-0.7988,-0.7988,-0.7988,-0.7988,-0.7988,-0.7988,-0.7988,-0.7988,-0.8221,-0.8516,-0.8784,-0.8851,-0.8885,-0.8885,-0.7371,-0.5417,-0.5417,-0.3748,-0.1795,-0.1795,-0.1795,-0.1795,-0.1795,-0.1795,-0.1795,-0.1795,-0.1795,-0.1795,-0.1795,-0.1795,-0.1795,-0.1795,-0.1795,-0.1795,-0.1795,-0.1795,-0.1739,-0.1458,-0.1177,-0.0897,-0.0673,-0.0336,-0.0112,-0.0112,-0.0056,0.0,0.0,0.0,0.0,0.0,0.0,0.0,0.0,0.0,0.0,0.0,0.0,0.0,0.0,0.0,0.0,0.0,0.0,0.0,0.0,0.028,0.028,-1.2225,-1.2305,-1.2305,-1.2305,-1.2305,-1.2077,-1.1298,-1.1111,-1.0881,-1.0083,-0.943,-0.9028,-0.9158,-0.8857,-0.8504,-0.8245,-0.8028,-0.7812,-0.7551,-0.7548,-0.76,-0.76,-0.7858,-0.7988,-0.7988,-0.7988,-0.7988,-0.7988,-0.7988,-0.7988,-0.7988,-0.7988,-0.7988,-0.7988,-0.7988,-0.7988,-0.7988,-0.7988,-0.7988,-0.7988,-0.7988,-0.7988,-0.7988,-0.7988,-0.7988,-0.7988,-0.7988,-0.7988,-0.7988,-0.7988,-0.7988,-0.7988,-0.7988,-0.8221,-0.8503,-0.8665,-0.8818,-0.8885,-0.8885,-0.7371,-0.5417,-0.5417,-0.3748,-0.1795,-0.1795,-0.1795,-0.1795,-0.1795,-0.1795,-0.1795,-0.1795,-0.1795,-0.1795,-0.1795,-0.1795,-0.1795,-0.1795,-0.1795,-0.1795,-0.1795,-0.1795,-0.1795,-0.1795,-0.1514,-0.129,-0.1234,-0.0729,-0.0393,-0.0393,-0.0168,0.0,0.0,0.0,0.0,0.0,0.0,0.0,0.0,0.0,0.0,0.0,0.0,0.0,0.0,0.0,0.0,0.0,0.0,0.0,0.0,0.028,0.028,-1.2435,-1.2445,-1.2234,-1.1885,-1.1684,-1.1329,-1.0539,-1.0437,-1.0165,-0.8854,-0.8564,-0.8634,-0.879,-0.8688,-0.8564,-0.8472,-0.812,-0.7856,-0.7768,-0.7682,-0.76,-0.76,-0.7858,-0.7988,-0.7988,-0.7988,-0.7988,-0.7988,-0.7988,-0.7988,-0.7988,-0.7988,-0.7988,-0.7988,-0.7988,-0.7988,-0.7988,-0.7988,-0.7988,-0.7988,-0.7988,-0.7988,-0.7988,-0.7988,-0.7988,-0.7988,-0.7988,-0.7988,-0.7988,-0.7988,-0.7988,-0.7998,-0.8147,-0.8306,-0.8503,-0.8655,-0.8808,-0.8885,-0.8885,-0.7371,-0.5417,-0.5417,-0.3748,-0.1795,-0.1795,-0.1795,-0.1795,-0.1795,-0.1795,-0.1795,-0.1795,-0.1795,-0.1795,-0.1795,-0.1795,-0.1795,-0.1795,-0.1795,-0.1795,-0.1795,-0.1795,-0.1795,-0.1795,-0.1514,-0.129,-0.129,-0.0785,-0.0393,-0.0393,-0.0168,0.0,0.0,0.0,0.0,0.0,0.0,0.0,0.0,0.0,0.0,0.0,0.0,0.0,0.0,0.0,0.0,0.0,0.0,0.0,0.0,0.0112,0.0112,-1.2429,-1.2309,-1.1825,-1.1487,-1.1076,-1.0627,-0.9817,-0.9712,-0.9458,-0.8146,-0.8081,-0.8349,-0.8575,-0.8612,-0.8568,-0.8476,-0.8164,-0.7856,-0.7768,-0.7728,-0.7695,-0.76,-0.7907,-0.8088,-0.7988,-0.7988,-0.7988,-0.7988,-0.7988,-0.7988,-0.7988,-0.7988,-0.7988,-0.7988,-0.8088,-0.8137,-0.8137,-0.8187,-0.8237,-0.8237,-0.8237,-0.8187,-0.8137,-0.8137,-0.8137,-0.8137,-0.8137,-0.8088,-0.7988,-0.7988,-0.7988,-0.8002,-0.8157,-0.8286,-0.8431,-0.8584,-0.8733,-0.8817,-0.8865,-0.7371,-0.5417,-0.5417,-0.3748,-0.1795,-0.1795,-0.1795,-0.1795,-0.1795,-0.1795,-0.1795,-0.1795,-0.1795,-0.1795,-0.1795,-0.1795,-0.1795,-0.1795,-0.1795,-0.1795,-0.1795,-0.1795,-0.1795,-0.1795,-0.1627,-0.1458,-0.1458,-0.1009,-0.0673,-0.0561,-0.028,-0.0112,0.0,0.0,0.0,0.0,0.0,0.0,0.0,0.0,0.0,0.0,0.0,0.0,0.0,0.0,0.0,0.0,0.0,0.0,0.0,0.0,0.0,-1.2151,-1.1713,-1.1111,-1.1117,-1.0625,-0.9987,-0.9163,-0.9006,-0.8829,-0.8143,-0.8166,-0.8349,-0.8575,-0.8612,-0.852,-0.8245,-0.8028,-0.7812,-0.7551,-0.7773,-0.7875,-0.7647,-0.8098,-0.8283,-0.8038,-0.7988,-0.7988,-0.7988,-0.7988,-0.7988,-0.7988,-0.7988,-0.7988,-0.7988,-0.8283,-0.8382,-0.8382,-0.8676,-0.8825,-0.8825,-0.8825,-0.8676,-0.8382,-0.8382,-0.8382,-0.8382,-0.8382,-0.8237,-0.7988,-0.7988,-0.7988,-0.7988,-0.7988,-0.8133,-0.834,-0.8428,-0.8577,-0.873,-0.8831,-0.7371,-0.5417,-0.5417,-0.3748,-0.1795,-0.1795,-0.1795,-0.1795,-0.1795,-0.1795,-0.1795,-0.1795,-0.1795,-0.1795,-0.1795,-0.1795,-0.1795,-0.1795,-0.1795,-0.1795,-0.1795,-0.1795,-0.1795,-0.1795,-0.1795,-0.1795,-0.1795,-0.1514,-0.1177,-0.0953,-0.0617,-0.028,-0.0056,0.0,0.0,0.0,0.0,0.0,0.0,0.0,0.0,0.0,0.0,0.0,0.0,0.0,0.0,0.0,0.0,0.0,0.0,0.0,0.0,-1.2665,-1.2056,-1.1089,-1.0935,-1.0124,-0.9158,-0.8465,-0.885,-0.9178,-0.8537,-0.849,-0.8547,-0.86,-0.8612,-0.852,-0.8245,-0.8028,-0.7812,-0.7551,-0.7677,-0.7795,-0.7865,-0.8295,-0.8559,-0.8566,-0.8577,-0.8577,-0.8577,-0.8577,-0.8577,-0.8577,-0.8577,-0.8577,-0.8577,-0.8627,-0.8676,-0.8676,-0.8775,-0.8825,-0.8825,-0.8825,-0.8775,-0.8676,-0.8676,-0.8581,-0.8382,-0.8382,-0.8237,-0.7988,-0.7988,-0.7988,-0.7988,-0.7988,-0.8133,-0.834,-0.8428,-0.8577,-0.873,-0.8831,-0.7371,-0.5417,-0.5417,-0.3748,-0.1795,-0.1795,-0.1795,-0.1795,-0.1795,-0.1795,-0.1795,-0.1795,-0.1795,-0.1795,-0.1795,-0.1795,-0.1795,-0.1795,-0.1795,-0.1795,-0.1795,-0.1795,-0.1795,-0.1795,-0.1795,-0.1795,-0.1795,-0.1514,-0.1121,-0.0617,-0.028,-0.0112,0.0,0.0,0.0,0.0,0.0,0.0,0.0,0.0,0.0,0.0,0.0,0.0,0.0,0.0,0.0,0.0,0.0,0.0,0.0,0.0,0.0,-1.2176,-1.1511,-1.0523,-1.0166,-0.9352,-0.8523,-0.83,-0.87,-0.9035,-0.8675,-0.8612,-0.8612,-0.8612,-0.8612,-0.8476,-0.8116,-0.7984,-0.7764,-0.7411,-0.7635,-0.7883,-0.7998,-0.8442,-0.8751,-0.881,-0.8825,-0.8825,-0.8825,-0.8825,-0.8825,-0.8825,-0.8825,-0.8825,-0.8825,-0.8928,-0.8977,-0.8977,-0.9076,-0.9126,-0.9126,-0.9126,-0.9126,-0.9126,-0.9027,-0.8829,-0.8528,-0.8333,-0.8137,-0.7988,-0.7988,-0.7988,-0.7988,-0.7988,-0.8096,-0.8197,-0.8343,-0.8492,-0.8642,-0.8794,-0.7329,-0.5417,-0.5417,-0.3748,-0.1795,-0.1795,-0.1795,-0.1795,-0.1795,-0.1795,-0.1795,-0.1795,-0.1795,-0.1795,-0.1795,-0.1795,-0.1795,-0.1795,-0.1795,-0.1795,-0.1795,-0.1795,-0.1795,-0.1795,-0.1795,-0.1795,-0.1795,-0.1402,-0.1009,-0.0673,-0.0224,0.0,0.0,0.0,0.0,0.0,0.0,0.0,0.0,0.0,0.0,0.0,0.0,0.0,0.0,0.0,0.0,0.0,0.0,0.0,0.0,0.0,0.0,-1.1144,-1.0481,-0.9656,-0.9164,-0.8545,-0.813,-0.8531,-0.8612,-0.8612,-0.8612,-0.8612,-0.8612,-0.8612,-0.8612,-0.8432,-0.7988,-0.79,-0.772,-0.7228,-0.7714,-0.8051,-0.807,-0.861,-0.8966,-0.8886,-0.8863,-0.8874,-0.8874,-0.8874,-0.8874,-0.8874,-0.8874,-0.8874,-0.8874,-0.913,-0.9236,-0.9236,-0.948,-0.9579,-0.9579,-0.9579,-0.9579,-0.9579,-0.9331,-0.908,-0.8775,-0.8233,-0.7988,-0.7988,-0.7988,-0.7988,-0.7988,-0.7988,-0.7988,-0.8008,-0.8214,-0.836,-0.8503,-0.8548,-0.7155,-0.5361,-0.525,-0.3692,-0.1795,-0.1795,-0.1795,-0.1795,-0.1795,-0.1795,-0.1795,-0.1795,-0.1795,-0.1795,-0.1795,-0.1795,-0.1795,-0.1795,-0.1795,-0.1795,-0.1795,-0.1795,-0.1795,-0.1795,-0.1795,-0.1795,-0.1795,-0.129,-0.0953,-0.0897,-0.0393,0.0,0.0,0.0,0.0,0.0,0.0,0.0,0.0,0.0,0.0,0.0,0.0,0.0,0.0,0.0,0.0,0.0,0.0,0.0,0.0,0.0,0.0,-1.1258,-1.0198,-0.9014,-0.9268,-0.8789,-0.8292,-0.8559,-0.8612,-0.8612,-0.8612,-0.8612,-0.8612,-0.8612,-0.8612,-0.852,-0.8204,-0.7984,-0.7856,-0.7764,-0.7842,-0.8057,-0.8364,-0.8811,-0.9127,-0.9248,-0.9343,-0.9426,-0.9426,-0.9426,-0.9426,-0.9426,-0.9426,-0.9426,-0.9426,-0.948,-0.9529,-0.9529,-0.9579,-0.9579,-0.9579,-0.9579,-0.9579,-0.9579,-0.9529,-0.9278,-0.8775,-0.8233,-0.7988,-0.7988,-0.7988,-0.7988,-0.7988,-0.7988,-0.7988,-0.8008,-0.8214,-0.836,-0.8397,-0.7576,-0.6441,-0.525,-0.4305,-0.2967,-0.1795,-0.1795,-0.1795,-0.1795,-0.1795,-0.1795,-0.1795,-0.1795,-0.1795,-0.1795,-0.1795,-0.1795,-0.1795,-0.1795,-0.1795,-0.1795,-0.1795,-0.1795,-0.1795,-0.1795,-0.1795,-0.1795,-0.1795,-0.1458,-0.1121,-0.0953,-0.0561,-0.0224,0.0,0.0,0.0,0.0,0.0,0.0,0.0,0.0,0.0,0.0,0.0,0.0,0.0,0.0,0.0,0.0,0.0,0.0,0.0,0.0,0.0,-1.0749,-1.003,-0.9177,-0.8806,-0.8594,-0.849,-0.8592,-0.8612,-0.8612,-0.8612,-0.8612,-0.8612,-0.8612,-0.8612,-0.852,-0.8245,-0.8113,-0.8028,-0.79,-0.7984,-0.8178,-0.8446,-0.8848,-0.9165,-0.9384,-0.9518,-0.9579,-0.9579,-0.9579,-0.9579,-0.9579,-0.9579,-0.9579,-0.9579,-0.9579,-0.9579,-0.9579,-0.9579,-0.9579,-0.9579,-0.9579,-0.9579,-0.9579,-0.9327,-0.9076,-0.8775,-0.8233,-0.7988,-0.7988,-0.7988,-0.7988,-0.7988,-0.7988,-0.7988,-0.8002,-0.813,-0.8296,-0.844,-0.7877,-0.6668,-0.5306,-0.4693,-0.3246,-0.1795,-0.1795,-0.1795,-0.1795,-0.1795,-0.1795,-0.1795,-0.1795,-0.1795,-0.1795,-0.1795,-0.1795,-0.1795,-0.1795,-0.1795,-0.1795,-0.1795,-0.1795,-0.1795,-0.1795,-0.1795,-0.1795,-0.1795,-0.1514,-0.1234,-0.1121,-0.0673,-0.0336,-0.0224,-0.0056,0.0,0.0,0.0,0.0,0.0,0.0,0.0,0.0,0.0,0.0,0.0,0.0,0.0,0.0,0.0,0.0,0.0,0.0,0.0,-1.029,-0.9954,-0.9532,-0.8301,-0.8268,-0.8571,-0.8604,-0.8612,-0.8612,-0.8612,-0.8612,-0.8612,-0.8612,-0.8612,-0.852,-0.8292,-0.8245,-0.8157,-0.8032,-0.8113,-0.8299,-0.8493,-0.8878,-0.9153,-0.9343,-0.9502,-0.9579,-0.9579,-0.9579,-0.9579,-0.9579,-0.9579,-0.9579,-0.9579,-0.9579,-0.9579,-0.9579,-0.9579,-0.9579,-0.9579,-0.9579,-0.9579,-0.9579,-0.9076,-0.8874,-0.8829,-0.8237,-0.8038,-0.8088,-0.8041,-0.7988,-0.7988,-0.7988,-0.7988,-0.7992,-0.8019,-0.8252,-0.8433,-0.8035,-0.6797,-0.5306,-0.4916,-0.3413,-0.1795,-0.1795,-0.1795,-0.1795,-0.1795,-0.1795,-0.1795,-0.1795,-0.1795,-0.1795,-0.1795,-0.1795,-0.1795,-0.1795,-0.1795,-0.1795,-0.1795,-0.1795,-0.1795,-0.1795,-0.1795,-0.1795,-0.1795,-0.157,-0.1346,-0.129,-0.0841,-0.0449,-0.0393,-0.0168,0.0,0.0,0.0,0.0,0.0,0.0,0.0,0.0,0.0,0.0,0.0,0.0,0.0,0.0,0.0,0.0,0.0,0.0,0.0,-1.0819,-1.0235,-0.9237,-0.8242,-0.817,-0.8369,-0.8575,-0.8612,-0.8612,-0.8612,-0.8612,-0.8612,-0.8612,-0.8612,-0.8568,-0.8564,-0.8336,-0.8288,-0.8476,-0.8336,-0.83,-0.8553,-0.8897,-0.9104,-0.9129,-0.9433,-0.9579,-0.9579,-0.9579,-0.9579,-0.9579,-0.9579,-0.9579,-0.9579,-0.9579,-0.9579,-0.9579,-0.9579,-0.9579,-0.9579,-0.9579,-0.9579,-0.9579,-0.9282,-0.9133,-0.9084,-0.8336,-0.8137,-0.8333,-0.8088,-0.7988,-0.7988,-0.7988,-0.7988,-0.8005,-0.8191,-0.8343,-0.8233,-0.6263,-0.5499,-0.5027,-0.2967,-0.2074,-0.1795,-0.1795,-0.1795,-0.1795,-0.1795,-0.1795,-0.1795,-0.1795,-0.1795,-0.1795,-0.1795,-0.1795,-0.1795,-0.1795,-0.1795,-0.1795,-0.1795,-0.1795,-0.1795,-0.1795,-0.1795,-0.1795,-0.1795,-0.1739,-0.1627,-0.1346,-0.1009,-0.0729,-0.0449,-0.0168,0.0,0.0,0.0,0.0,0.0,0.0,0.0,0.0,0.0,0.0,0.0,0.0,0.0,0.0,0.0,0.0,0.0,0.0,0.0,-1.0267,-0.9701,-0.9006,-0.8188,-0.8154,-0.8341,-0.8567,-0.8612,-0.8612,-0.8612,-0.8612,-0.8612,-0.8612,-0.8612,-0.8612,-0.8612,-0.852,-0.8472,-0.8568,-0.852,-0.8472,-0.8568,-0.8881,-0.9096,-0.9096,-0.9421,-0.9579,-0.9579,-0.9579,-0.9579,-0.9579,-0.9579,-0.9579,-0.9579,-0.9579,-0.9579,-0.9579,-0.9579,-0.9579,-0.9579,-0.9579,-0.9579,-0.9579,-0.9331,-0.9187,-0.9187,-0.8485,-0.8382,-0.8577,-0.8333,-0.8333,-0.8432,-0.8432,-0.8333,-0.8254,-0.8465,-0.8515,-0.8289,-0.6657,-0.5781,-0.5139,-0.3358,-0.2353,-0.1795,-0.1795,-0.1795,-0.1795,-0.1795,-0.1795,-0.1795,-0.1795,-0.1795,-0.1795,-0.1795,-0.1795,-0.1795,-0.1795,-0.1795,-0.1795,-0.1795,-0.1795,-0.1795,-0.1795,-0.1795,-0.1795,-0.1795,-0.1795,-0.1739,-0.1627,-0.1177,-0.0841,-0.0673,-0.028,0.0,0.0,0.0,0.0,0.0,0.0,0.0,0.0,0.0,0.0,0.0,0.0,0.0,0.0,0.0,0.0,0.0,0.0,0.0,-0.9807,-0.9359,-0.9012,-0.8141,-0.8052,-0.8215,-0.8486,-0.8539,-0.8555,-0.86,-0.8612,-0.8612,-0.8612,-0.8612,-0.8612,-0.8612,-0.8612,-0.8612,-0.8612,-0.8612,-0.8612,-0.8612,-0.8881,-0.9096,-0.9096,-0.9421,-0.9579,-0.9579,-0.9579,-0.9579,-0.9579,-0.9579,-0.9579,-0.9579,-0.9579,-0.9579,-0.9579,-0.9579,-0.9579,-0.9579,-0.9579,-0.9579,-0.9579,-0.9381,-0.9282,-0.9282,-0.8733,-0.863,-0.8878,-0.8627,-0.863,-0.8825,-0.8825,-0.8702,-0.861,-0.8725,-0.8727,-0.8451,-0.7026,-0.6021,-0.5139,-0.3636,-0.2521,-0.1795,-0.1795,-0.1795,-0.1795,-0.1795,-0.1795,-0.1795,-0.1795,-0.1795,-0.1795,-0.1795,-0.1795,-0.1795,-0.1795,-0.1795,-0.1795,-0.1795,-0.1795,-0.1795,-0.1795,-0.1795,-0.1795,-0.1795,-0.1795,-0.1795,-0.1795,-0.129,-0.0897,-0.0897,-0.0336,0.0,0.0,0.0,0.0,0.0,0.0,0.0,0.0,0.0,0.0,0.0,0.0,0.0,0.0,0.0,0.0,0.0,0.0,0.0,-0.9938,-0.9686,-0.9514,-0.8155,-0.782,-0.7918,-0.8227,-0.8304,-0.8353,-0.8575,-0.8612,-0.8612,-0.8612,-0.8612,-0.8612,-0.8612,-0.8612,-0.8612,-0.8612,-0.8612,-0.8612,-0.8612,-0.8881,-0.9096,-0.9096,-0.9421,-0.9579,-0.9579,-0.9579,-0.9579,-0.9579,-0.9579,-0.9579,-0.9579,-0.9579,-0.9579,-0.9579,-0.9579,-0.9579,-0.9579,-0.9579,-0.9579,-0.9579,-0.9579,-0.9579,-0.9529,-0.9027,-0.8928,-0.9133,-0.8878,-0.8775,-0.8825,-0.8825,-0.8922,-0.9035,-0.8945,-0.8998,-0.8821,-0.6316,-0.5468,-0.5027,-0.2632,-0.1851,-0.1795,-0.1795,-0.1795,-0.1795,-0.1795,-0.1795,-0.1795,-0.1795,-0.1795,-0.1795,-0.1795,-0.1795,-0.1795,-0.1795,-0.1795,-0.1795,-0.1795,-0.1795,-0.1795,-0.1795,-0.1795,-0.1795,-0.1795,-0.1795,-0.1795,-0.1795,-0.129,-0.0897,-0.0897,-0.0336,0.0,0.0,0.0,0.0,0.0,0.0,0.0,0.0,0.0,0.0,0.0,0.0,0.0,0.0,0.0,0.0,0.0,0.0,0.0,-1.029,-0.9933,-0.9652,-0.8519,-0.802,-0.7894,-0.8211,-0.8292,-0.8345,-0.8571,-0.8612,-0.8612,-0.8612,-0.8612,-0.8612,-0.8612,-0.8612,-0.8612,-0.8612,-0.8612,-0.8612,-0.8612,-0.8881,-0.9096,-0.9096,-0.9421,-0.9579,-0.9579,-0.9579,-0.9579,-0.9579,-0.9579,-0.9579,-0.9579,-0.9579,-0.9579,-0.9579,-0.9579,-0.9579,-0.9579,-0.9579,-0.9579,-0.9579,-0.9579,-0.9579,-0.9579,-0.9377,-0.9377,-0.943,-0.9179,-0.9179,-0.9327,-0.9327,-0.9334,-0.9352,-0.9421,-0.9429,-0.9154,-0.699,-0.6255,-0.581,-0.3194,-0.2356,-0.23,-0.1908,-0.1795,-0.1795,-0.1795,-0.1795,-0.1795,-0.1795,-0.1795,-0.1795,-0.1795,-0.1795,-0.1795,-0.1795,-0.1795,-0.1795,-0.1795,-0.1795,-0.1795,-0.1795,-0.1795,-0.1795,-0.1795,-0.1795,-0.1795,-0.1795,-0.1402,-0.1065,-0.0897,-0.0505,-0.0168,0.0,0.0,0.0,0.0,0.0,0.0,0.0,0.0,0.0,0.0,0.0,0.0,0.0,0.0,0.0,0.0,0.0,0.0,-1.0498,-1.0169,-0.9893,-0.874,-0.8306,-0.8173,-0.8139,-0.8158,-0.8251,-0.8477,-0.8518,-0.8535,-0.86,-0.8612,-0.8612,-0.8612,-0.8388,-0.8296,-0.8564,-0.8612,-0.8612,-0.8612,-0.8881,-0.9096,-0.9096,-0.9421,-0.9579,-0.9579,-0.9579,-0.9579,-0.9579,-0.9579,-0.9579,-0.9579,-0.9579,-0.9579,-0.9579,-0.9579,-0.9579,-0.9579,-0.9579,-0.9579,-0.9579,-0.9579,-0.9579,-0.9579,-0.9579,-0.9579,-0.9579,-0.943,-0.943,-0.9583,-0.9693,-0.9722,-0.9745,-0.9762,-0.9827,-0.9555,-0.7448,-0.6702,-0.6311,-0.381,-0.2862,-0.2637,-0.2244,-0.1964,-0.1795,-0.1795,-0.1795,-0.1795,-0.1795,-0.1795,-0.1795,-0.1795,-0.1795,-0.1795,-0.1795,-0.1795,-0.1795,-0.1795,-0.1795,-0.1795,-0.1795,-0.1795,-0.1795,-0.1795,-0.1795,-0.1795,-0.1795,-0.1514,-0.1177,-0.0953,-0.0617,-0.028,0.0,0.0,0.0,0.0,0.0,0.0,0.0,0.0,0.0,0.0,0.0,0.0,0.0,0.0,0.0,0.0,0.0,0.0,0.0,0.0,0.0,-0.8758,-0.8694,-0.8804,-0.7999,-0.7935,-0.8065,-0.8251,-0.8292,-0.8345,-0.8563,-0.8556,-0.856,-0.8604,-0.7981,-0.7801,-0.8476,-0.8612,-0.8612,-0.8612,-0.8881,-0.9096,-0.9096,-0.9421,-0.9579,-0.9579,-0.9579,-0.9579,-0.9579,-0.9579,-0.9579,-0.9579,-0.9579,-0.9579,-0.9579,-0.9579,-0.9579,-0.9579,-0.9579,-0.9579,-0.9579,-0.9579,-0.9579,-0.9579,-0.9579,-0.9579,-0.9579,-0.9579,-0.9579,-0.9644,-0.9819,-0.9998,-1.0184,-1.0036,-1.0159,-0.9978,-0.7587,-0.6755,-0.6424,-0.4311,-0.3253,-0.275,-0.2693,-0.23,-0.1851,-0.1795,-0.1795,-0.1795,-0.1795,-0.1795,-0.1795,-0.1795,-0.1795,-0.1795,-0.1795,-0.1795,-0.1795,-0.1795,-0.1795,-0.1795,-0.1795,-0.1795,-0.1795,-0.1795,-0.1795,-0.1795,-0.1795,-0.1514,-0.1234,-0.0953,-0.0617,-0.028,-0.0056,0.0,0.0,0.0,0.0,0.0,0.0,0.0,0.0,0.0,0.0,0.0,0.0,0.0,0.0,0.0,0.0,0.0,-1.1575,0.0,0.0,0.0,0.0,0.0,-0.8805,-0.8384,-0.8065,-0.8251,-0.8292,-0.8264,-0.8182,-0.7847,-0.7763,-0.8283,-0.8344,-0.8384,-0.8568,-0.8612,-0.8612,-0.8612,-0.8881,-0.9096,-0.9096,-0.9421,-0.9579,-0.9579,-0.9579,-0.9579,-0.9579,-0.9579,-0.9579,-0.9579,-0.9579,-0.9579,-0.9579,-0.9579,-0.9579,-0.9579,-0.9579,-0.9579,-0.9579,-0.9579,-0.9579,-0.9579,-0.9579,-0.9579,-0.9579,-0.9579,-0.9579,-0.9644,-0.9819,-0.9998,-1.0184,-1.0257,-1.0434,-1.0414,-0.9082,-0.8195,-0.7365,-0.5699,-0.4644,-0.3866,-0.2974,-0.2581,-0.2356,-0.1908,-0.1795,-0.1795,-0.1795,-0.1795,-0.1795,-0.1795,-0.1795,-0.1795,-0.1795,-0.1795,-0.1795,-0.1795,-0.1795,-0.1795,-0.1795,-0.1795,-0.1795,-0.1795,-0.1795,-0.1795,-0.1795,-0.1739,-0.1514,-0.1234,-0.0953,-0.0617,-0.0336,-0.0112,0.0,0.0,0.0,0.0,0.0,0.0,0.0,0.0,0.0,0.0,0.0,0.0,0.0,0.0,0.0,0.0,-1.2051,-1.1751,-1.1458,-1.0858,0.0,0.0,-0.9527,-0.892,-0.8455,-0.8572,-0.8313,-0.8057,-0.802,-0.7727,-0.7666,-0.809,-0.8264,-0.839,-0.8592,-0.8612,-0.8612,-0.8612,-0.8812,-0.8982,-0.8982,-0.9303,-0.9514,-0.9514,-0.9583,-0.9579,-0.9579,-0.9579,-0.9579,-0.9579,-0.9579,-0.9579,-0.9579,-0.9579,-0.9579,-0.9579,-0.9579,-0.9579,-0.9579,-0.9579,-0.9579,-0.9579,-0.9579,-0.9579,-0.9579,-0.9579,-0.9579,-0.9603,-0.9904,-1.0118,-1.0245,-1.0448,-1.0607,-1.0582,-0.9691,-0.8806,-0.7808,-0.6591,-0.5425,-0.4313,-0.3365,-0.2918,-0.2581,-0.1964,-0.1795,-0.1795,-0.1795,-0.1795,-0.1795,-0.1795,-0.1795,-0.1795,-0.1795,-0.1795,-0.1795,-0.1795,-0.1795,-0.1795,-0.1795,-0.1795,-0.1795,-0.1795,-0.1795,-0.1795,-0.1795,-0.1795,-0.1683,-0.1346,-0.1065,-0.0785,-0.0449,-0.0168,0.0,0.0,0.0,0.0,0.0,0.0,0.0,0.0,0.0,0.0,0.0,0.0,0.0,0.0,0.0,0.0,-1.2287,-1.2103,-1.1969,-1.1056,-1.1045,0.0,-1.0268,-0.954,-0.9091,-0.9114,-0.8581,-0.8077,-0.8093,-0.809,-0.8069,-0.8008,-0.8012,-0.8134,-0.8531,-0.858,-0.8588,-0.8608,-0.8718,-0.882,-0.882,-0.9129,-0.938,-0.94,-0.9527,-0.9579,-0.9579,-0.9579,-0.9579,-0.9579,-0.9579,-0.9579,-0.9579,-0.9579,-0.9579,-0.9579,-0.9579,-0.9579,-0.9579,-0.9579,-0.9579,-0.9579,-0.9579,-0.9579,-0.9579,-0.9579,-0.9591,-0.9689,-1.003,-1.0228,-1.0286,-1.057,-1.0692,-1.0582,-0.9691,-0.8806,-0.7864,-0.6988,-0.5764,-0.448,-0.3867,-0.3253,-0.2637,-0.1964,-0.1795,-0.1795,-0.1795,-0.1795,-0.1795,-0.1795,-0.1795,-0.1795,-0.1795,-0.1795,-0.1795,-0.1795,-0.1795,-0.1795,-0.1795,-0.1795,-0.1795,-0.1795,-0.1795,-0.1795,-0.1795,-0.1795,-0.1683,-0.1402,-0.1065,-0.0785,-0.0505,-0.0168,0.0,0.0,0.0,0.0,0.0,0.0,0.0,0.0,0.0,0.0,0.0,0.0,0.0,0.0,0.0,0.0,-1.2854,-1.2179,-1.1608,-1.1646,-1.1062,0.0,-1.1015,-1.0302,-0.9647,-0.9907,-0.9831,-0.9477,-0.869,-0.8679,-0.864,-0.8069,-0.8012,-0.8089,-0.8312,-0.8345,-0.8398,-0.8596,-0.8718,-0.882,-0.882,-0.9019,-0.9206,-0.9392,-0.9527,-0.9579,-0.9579,-0.9579,-0.9579,-0.9579,-0.9579,-0.9579,-0.9579,-0.9579,-0.9579,-0.9579,-0.9579,-0.9579,-0.9579,-0.9579,-0.9579,-0.9579,-0.9579,-0.9579,-0.9579,-0.9579,-0.9709,-0.9855,-1.0126,-1.0253,-1.0408,-1.0615,-1.0692,-1.0582,-0.9691,-0.8806,-0.7864,-0.6988,-0.6047,-0.5098,-0.4482,-0.3923,-0.3195,-0.2131,-0.1795,-0.1795,-0.1795,-0.1795,-0.1795,-0.1795,-0.1795,-0.1795,-0.1795,-0.1795,-0.1795,-0.1795,-0.1795,-0.1795,-0.1795,-0.1795,-0.1795,-0.1795,-0.1795,-0.1795,-0.1795,-0.1795,-0.1795,-0.1683,-0.1234,-0.0897,-0.0785,-0.0336,0.0,0.0,0.0,0.0,0.0,0.0,0.0,0.0,0.0,0.0,0.0,0.0,0.0,0.0,0.0,0.0,-1.3654,-1.2862,-1.2193,-1.2165,-1.1608,0.0,0.0,-1.0993,-1.0395,-1.0438,-1.0225,-0.9856,-0.9212,-0.9273,-0.9227,-0.8479,-0.8339,-0.8324,-0.8155,-0.815,-0.8223,-0.8406,-0.8503,-0.8593,-0.8686,-0.8857,-0.9035,-0.9214,-0.9393,-0.949,-0.949,-0.9575,-0.9579,-0.9579,-0.9579,-0.9579,-0.9579,-0.9579,-0.9579,-0.9579,-0.9579,-0.9579,-0.9579,-0.9579,-0.9579,-0.9579,-0.9579,-0.9579,-0.9579,-0.9579,-0.9782,-1.0082,-1.018,-1.0274,-1.0403,-1.0627,-1.0692,-1.0582,-0.9691,-0.8806,-0.7864,-0.6988,-0.6102,-0.5268,-0.4704,-0.3866,-0.2973,-0.2075,-0.1795,-0.1795,-0.1795,-0.1795,-0.1795,-0.1795,-0.1795,-0.1795,-0.1795,-0.1795,-0.1795,-0.1795,-0.1795,-0.1795,-0.1795,-0.1795,-0.1795,-0.1795,-0.1795,-0.1795,-0.1795,-0.1795,-0.1795,-0.1795,-0.1234,-0.0897,-0.0897,-0.0336,0.0,0.0,0.0,0.0,0.0,0.0,0.0,0.0,0.0,0.0,0.0,0.0,0.0,0.0,0.0,0.0,-1.4519,-1.3646,-1.2966,-1.2799,-1.2427,-1.2123,0.0,0.0,0.0,-1.1082,-1.066,-1.0247,-0.9867,-0.9988,-0.9873,-0.9133,-0.8951,-0.8749,-0.828,-0.8204,-0.8205,-0.8306,-0.826,-0.8308,-0.8539,-0.8731,-0.8922,-0.9035,-0.9271,-0.9441,-0.9404,-0.9531,-0.9579,-0.9579,-0.9579,-0.9579,-0.9579,-0.9579,-0.9579,-0.9579,-0.9579,-0.9579,-0.9579,-0.9579,-0.9579,-0.9579,-0.9579,-0.9579,-0.9579,-0.9579,-0.9839,-1.0212,-1.0212,-1.0294,-1.0501,-1.0639,-1.0692,-1.0523,-0.9471,-0.864,-0.7811,-0.6765,-0.5993,-0.5268,-0.4538,-0.3643,-0.2748,-0.202,-0.1795,-0.1795,-0.1795,-0.1795,-0.1795,-0.1795,-0.1795,-0.1795,-0.1795,-0.1795,-0.1795,-0.1795,-0.1795,-0.1795,-0.1795,-0.1795,-0.1795,-0.1795,-0.1795,-0.1795,-0.1795,-0.1795,-0.1795,-0.1795,-0.129,-0.0953,-0.0897,-0.0393,-0.0056,0.0,0.0,0.0,0.0,0.0,0.0,0.0,0.0,0.0,0.0,0.0,0.0,0.0,0.0,0.0,-1.5206,-1.4139,-1.3241,-1.3852,-1.3467,-1.3022,-1.3249,0.0,-1.2678,-1.2204,0.0,-1.1805,-1.1069,0.0,0.0,-1.0147,-0.9882,-0.9568,-0.8966,-0.8876,-0.8747,-0.8332,-0.8146,-0.8117,-0.8304,-0.8771,-0.9007,-0.8865,-0.9315,-0.9527,-0.9412,-0.9531,-0.9579,-0.9579,-0.9579,-0.9579,-0.9579,-0.9579,-0.9579,-0.9579,-0.9579,-0.9579,-0.9579,-0.9579,-0.9579,-0.9579,-0.9579,-0.9579,-0.9579,-0.9579,-0.9839,-1.0212,-1.0212,-1.0367,-1.0664,-1.0684,-1.0692,-1.0468,-0.8751,-0.8085,-0.7753,-0.61,-0.5493,-0.5212,-0.4035,-0.3587,-0.3251,-0.2131,-0.1795,-0.1795,-0.1795,-0.1795,-0.1795,-0.1795,-0.1795,-0.1795,-0.1795,-0.1795,-0.1795,-0.1795,-0.1795,-0.1795,-0.1795,-0.1795,-0.1795,-0.1795,-0.1795,-0.1795,-0.1795,-0.1795,-0.1795,-0.1795,-0.1458,-0.1177,-0.0897,-0.0561,-0.028,0.0,0.0,0.0,0.0,0.0,0.0,0.0,0.0,0.0,0.0,0.0,0.0,0.0,0.0,0.0,-1.5954,-1.5133,-1.438,-1.448,-1.413,-1.3767,-1.3898,-1.3924,-1.3841,-1.3469,0.0,0.0,0.0,0.0,0.0,0.0,-1.0651,-1.0404,-0.9795,-0.9591,-0.9169,-0.8251,-0.8154,-0.8203,-0.828,-0.8593,-0.8714,-0.8528,-0.9015,-0.9287,-0.921,-0.9372,-0.9518,-0.9575,-0.9579,-0.9579,-0.9579,-0.9579,-0.9579,-0.9579,-0.9579,-0.9579,-0.9579,-0.9579,-0.9579,-0.9579,-0.9579,-0.9579,-0.9587,-0.9734,-0.9929,-1.0224,-1.0278,-1.0473,-1.0692,-1.0692,-1.0692,-1.0414,-0.864,-0.7974,-0.77,-0.5991,-0.5382,-0.5214,-0.437,-0.3867,-0.3419,-0.258,-0.2076,-0.1795,-0.1795,-0.1795,-0.1795,-0.1795,-0.1795,-0.1795,-0.1795,-0.1795,-0.1795,-0.1795,-0.1795,-0.1795,-0.1795,-0.1795,-0.1795,-0.1795,-0.1795,-0.1795,-0.1795,-0.1795,-0.1795,-0.1795,-0.1514,-0.1177,-0.0897,-0.0617,-0.028,0.0,0.0,0.0,0.0,0.0,0.0,0.0,0.0,0.0,0.0,0.0,0.0,0.0,0.0,0.0,-1.6716,-1.6129,-1.5535,-1.5335,-1.5044,-1.4745,-1.4663,-1.4779,-1.4798,-1.4268,-1.387,0.0,0.0,0.0,-1.2157,-1.1683,0.0,-1.1093,0.0,-1.0368,0.0,0.0,0.0,0.0,0.0,-0.8544,-0.8617,-0.8385,-0.8865,-0.9145,-0.91,-0.9306,-0.9437,-0.9571,-0.9579,-0.9579,-0.9579,-0.9579,-0.9579,-0.9579,-0.9579,-0.9579,-0.9579,-0.9579,-0.9579,-0.9579,-0.9579,-0.9579,-0.964,-0.9815,-1.0045,-1.0233,-1.0363,-1.0542,-1.0692,-1.0692,-1.0692,-1.0468,-0.8916,-0.8033,-0.7371,-0.588,-0.5382,-0.5268,-0.4482,-0.3921,-0.3419,-0.2692,-0.2132,-0.1795,-0.1795,-0.1795,-0.1795,-0.1795,-0.1795,-0.1795,-0.1795,-0.1795,-0.1795,-0.1795,-0.1795,-0.1795,-0.1795,-0.1795,-0.1795,-0.1795,-0.1795,-0.1795,-0.1795,-0.1795,-0.1795,-0.1795,-0.157,-0.129,-0.0953,-0.0673,-0.0393,0.0,0.0,0.0,0.0,0.0,0.0,0.0,0.0,0.0,0.0,0.0,0.0,0.0,0.0,0.0,-1.7468,-1.6864,-1.637,-1.6745,-1.6519,-1.6143,-1.5808,-1.5754,-1.5441,-1.4234,-1.3997,-1.386,-1.3465,-1.2856,0.0,0.0,0.0,0.0,0.0,0.0,0.0,0.0,0.0,0.0,0.0,-0.8771,-0.8938,0.0,-0.9094,-0.9322,-0.9104,-0.9306,-0.9437,-0.9571,-0.9579,-0.9579,-0.9579,-0.9579,-0.9579,-0.9579,-0.9579,-0.9579,-0.9579,-0.9579,-0.9579,-0.9579,-0.9579,-0.9579,-0.964,-0.9815,-1.0045,-1.0233,-1.0363,-1.0542,-1.0692,-1.0692,-1.0692,-1.0582,-0.9695,-0.8205,-0.6601,-0.5714,-0.5382,-0.5156,-0.3979,-0.3587,-0.3363,-0.2187,-0.1795,-0.1795,-0.1795,-0.1795,-0.1795,-0.1795,-0.1795,-0.1795,-0.1795,-0.1795,-0.1795,-0.1795,-0.1795,-0.1795,-0.1795,-0.1795,-0.1795,-0.1795,-0.1795,-0.1795,-0.1795,-0.1795,-0.1795,-0.1795,-0.1795,-0.157,-0.0953,-0.0897,-0.0617,-0.0056,0.0,0.0,0.0,0.0,0.0,0.0,0.0,0.0,0.0,0.0,0.0,0.0,0.0,0.0,-1.7568,-1.7303,-1.7064,-1.6936,-1.6807,-1.6674,-1.6559,-1.6517,-1.6402,-1.5982,-1.5531,-1.514,-1.5014,-1.4138,0.0,0.0,0.0,0.0,0.0,0.0,0.0,0.0,0.0,0.0,0.0,0.0,0.0,0.0,-0.8706,0.0,-0.9088,-0.9153,-0.9319,-0.9571,-0.9579,-0.9579,-0.9579,-0.9579,-0.9579,-0.9579,-0.9579,-0.9579,-0.9579,-0.9579,-0.9579,-0.9579,-0.9579,-0.9579,-0.9603,-0.9945,-1.0155,-1.0245,-1.0489,-1.0639,-1.0692,-1.0692,-1.0692,-1.0468,-0.8972,-0.7315,-0.577,-0.5493,-0.5382,-0.5268,-0.4426,-0.3921,-0.3419,-0.2636,-0.2132,-0.1795,-0.1795,-0.1795,-0.1795,-0.1795,-0.1795,-0.1795,-0.1795,-0.1795,-0.1795,-0.1795,-0.1795,-0.1795,-0.1795,-0.1795,-0.1795,-0.1795,-0.1795,-0.1795,-0.1795,-0.1795,-0.1795,-0.1795,-0.1795,-0.157,-0.0953,-0.0561,-0.0224,0.0,0.0,0.0,0.0,0.0,0.0,0.0,0.0,0.0,0.0,0.0,0.0,0.0,0.0,0.0,-1.7999,-1.7825,-1.7623,-1.7211,-1.711,-1.711,-1.711,-1.7009,-1.6908,-1.6908,-1.64,-1.5947,-1.5806,-1.4917,0.0,0.0,0.0,0.0,0.0,-1.1595,0.0,0.0,0.0,0.0,0.0,0.0,0.0,0.0,0.0,0.0,0.0,-0.906,-0.923,-0.9518,-0.9596,-0.9579,-0.9579,-0.9579,-0.9579,-0.9579,-0.9579,-0.9579,-0.9579,-0.9579,-0.9579,-0.9579,-0.9579,-0.9661,-0.9742,-1.0038,-1.0253,-1.029,-1.0578,-1.0692,-1.0692,-1.0692,-1.0523,-1.0025,-0.8527,-0.7041,-0.5826,-0.5493,-0.5382,-0.5268,-0.4426,-0.3923,-0.3419,-0.2636,-0.2076,-0.1795,-0.1795,-0.1795,-0.1795,-0.1795,-0.1795,-0.1795,-0.1795,-0.1795,-0.1795,-0.1795,-0.1795,-0.1795,-0.1795,-0.1795,-0.1795,-0.1795,-0.1795,-0.1795,-0.1795,-0.1795,-0.1795,-0.1795,-0.1795,-0.157,-0.0953,-0.0336,0.0,0.0,0.0,0.0,0.0,0.0,0.0,0.0,0.0,0.0,0.0,0.0,0.0,0.0,0.0,0.0]},{"header":{"parameterUnit":"m.s-1","parameterCategory":1,"la1":30.6,"la2":29.2853,"lo1":-89.7004,"lo2":-87.6739,"dx":0.0162,"dy":0.0183,"nx":112,"ny":82,"refTime":"2022-11-03T12:00:00:Z","depth":0,"parameterNumber":3,"parameterNumberName":"V-component_of_WINDS"},"data":[0.0,0.0,0.0,0.0,0.0,0.0,0.0,0.0,0.0,0.0,0.0,0.0,0.0,0.0,0.0,0.0,0.0,0.0,0.0,0.0,0.0,0.0,0.0,0.0,0.0,0.0,0.0,0.0,0.0,0.0,0.0,0.0,0.0,0.0,0.0,0.0,0.0,0.0,0.0,0.0,0.0,0.0,0.0,0.0,0.0,0.0,0.0,0.0,0.0,0.0,0.0,0.0,0.0,0.0,0.0,0.0,0.0,0.0,0.0,0.0,0.0,0.0,0.0,0.0,0.0,0.0,0.0,0.0,0.0,0.0,0.0,0.0,0.0,0.0,0.0,0.0,0.0,0.0,0.0,0.0,0.0,0.0,0.0,0.0,0.0,0.0,0.0,0.0,0.0,0.0,2.3867,2.3538,2.3566,2.3595,2.3595,2.3595,2.337,2.2868,0.0,0.0,0.0,0.0,0.0,0.0,0.0,0.0,0.0,0.0,0.0,0.0,0.0,0.0,0.0,0.0,0.0,0.0,0.0,0.0,0.0,0.0,0.0,0.0,0.0,0.0,0.0,0.0,0.0,0.0,0.0,0.0,0.0,0.0,0.0,0.0,0.0,0.0,0.0,0.0,0.0,0.0,0.0,0.0,0.0,0.0,0.0,0.0,0.0,0.0,0.0,0.0,0.0,0.0,0.0,0.0,0.0,0.0,0.0,0.0,0.0,0.0,0.0,0.0,0.0,0.0,0.0,0.0,0.0,0.0,0.0,0.0,0.0,0.0,0.0,0.0,0.0,0.0,0.0,0.0,0.0,0.0,0.0,0.0,0.0,0.0,0.0,0.0,0.0,0.0,0.0,0.0,0.0,0.0,0.0,0.0,0.0,0.0,0.0,0.0,0.0,0.0,0.0,0.0,2.3581,2.3588,2.3595,2.3595,2.3595,2.3595,2.3565,2.346,0.0,0.0,0.0,0.0,0.0,0.0,0.0,0.0,0.0,0.0,0.0,0.0,0.0,0.0,0.0,0.0,0.0,0.0,0.0,0.0,0.0,0.0,0.0,0.0,0.0,0.0,0.0,0.0,0.0,0.0,0.0,0.0,0.0,0.0,0.0,0.0,0.0,0.0,0.0,0.0,0.0,0.0,0.0,0.0,0.0,0.0,0.0,0.0,0.0,0.0,0.0,0.0,0.0,0.0,0.0,0.0,0.0,0.0,0.0,0.0,0.0,0.0,0.0,0.0,0.0,0.0,0.0,0.0,0.0,0.0,0.0,0.0,0.0,0.0,0.0,0.0,0.0,0.0,0.0,0.0,0.0,0.0,0.0,0.0,0.0,0.0,0.0,0.0,0.0,0.0,0.0,0.0,0.0,0.0,0.0,0.0,0.0,0.0,0.0,0.0,0.0,0.0,0.0,2.4795,2.4657,2.4687,2.4373,2.4141,2.4141,2.3819,2.3595,2.3595,2.3283,0.0,0.0,0.0,0.0,0.0,0.0,0.0,0.0,0.0,0.0,0.0,0.0,0.0,0.0,0.0,0.0,0.0,0.0,0.0,0.0,0.0,0.0,0.0,0.0,0.0,0.0,0.0,0.0,0.0,0.0,0.0,0.0,0.0,0.0,0.0,0.0,0.0,0.0,0.0,0.0,0.0,0.0,0.0,0.0,0.0,0.0,0.0,0.0,0.0,0.0,0.0,0.0,0.0,0.0,0.0,0.0,0.0,0.0,0.0,0.0,0.0,0.0,0.0,0.0,0.0,0.0,0.0,0.0,0.0,0.0,0.0,0.0,0.0,0.0,0.0,0.0,0.0,0.0,0.0,0.0,0.0,0.0,0.0,0.0,0.0,0.0,0.0,0.0,0.0,0.0,0.0,0.0,0.0,0.0,0.0,0.0,0.0,0.0,0.0,0.0,0.0,0.0,2.5839,2.5886,2.5786,2.5235,2.4769,2.4619,2.4126,2.3774,2.361,2.3595,0.0,0.0,0.0,0.0,0.0,0.0,0.0,0.0,0.0,0.0,0.0,0.0,0.0,0.0,0.0,0.0,0.0,0.0,0.0,0.0,0.0,0.0,0.0,0.0,0.0,0.0,0.0,0.0,0.0,0.0,0.0,0.0,0.0,0.0,0.0,0.0,0.0,0.0,0.0,0.0,0.0,0.0,0.0,0.0,0.0,0.0,0.0,0.0,0.0,0.0,0.0,0.0,0.0,0.0,0.0,0.0,0.0,0.0,0.0,0.0,0.0,0.0,0.0,0.0,0.0,0.0,0.0,0.0,0.0,0.0,0.0,0.0,0.0,0.0,0.0,0.0,0.0,0.0,0.0,0.0,0.0,0.0,0.0,0.0,0.0,0.0,0.0,0.0,0.0,0.0,0.0,0.0,0.0,0.0,0.0,0.0,0.0,0.0,0.0,0.0,0.0,0.0,2.693,2.6767,2.6378,2.5871,2.5277,2.4649,2.456,2.4261,2.364,2.3595,0.0,0.0,0.0,0.0,0.0,0.0,0.0,0.0,0.0,0.0,0.0,0.0,0.0,0.0,0.0,0.0,0.0,0.0,0.0,0.0,0.0,0.0,0.0,0.0,0.0,0.0,0.0,0.0,0.0,0.0,0.0,0.0,0.0,0.0,0.0,0.0,0.0,0.0,0.0,0.0,0.0,0.0,0.0,0.0,0.0,0.0,0.0,0.0,0.0,0.0,0.0,0.0,0.0,0.0,0.0,0.0,0.0,0.0,0.0,0.0,0.0,0.0,0.0,0.0,0.0,0.0,0.0,0.0,0.0,0.0,0.0,0.0,0.0,0.0,0.0,0.0,0.0,0.0,0.0,0.0,0.0,0.0,0.0,0.0,0.0,0.0,0.0,0.0,0.0,0.0,0.0,0.0,0.0,0.0,0.0,0.0,0.0,0.0,0.0,0.0,0.0,0.0,2.8075,2.8255,2.8112,2.754,2.7053,2.6805,2.5976,2.5371,2.5113,0.0,0.0,0.0,0.0,0.0,0.0,0.0,0.0,0.0,0.0,0.0,0.0,0.0,0.0,0.0,0.0,0.0,0.0,0.0,0.0,0.0,0.0,0.0,0.0,0.0,0.0,0.0,0.0,0.0,0.0,0.0,0.0,0.0,0.0,0.0,0.0,0.0,0.0,0.0,0.0,0.0,0.0,0.0,0.0,0.0,0.0,0.0,0.0,0.0,0.0,0.0,0.0,0.0,0.0,0.0,0.0,0.0,0.0,0.0,0.0,0.0,0.0,0.0,0.0,0.0,0.0,0.0,0.0,0.0,0.0,0.0,0.0,0.0,0.0,0.0,0.0,0.0,0.0,0.0,0.0,0.0,0.0,0.0,0.0,0.0,0.0,0.0,0.0,0.0,0.0,0.0,0.0,0.0,0.0,0.0,0.0,0.0,0.0,0.0,0.0,0.0,0.0,2.8909,2.9134,2.9325,2.9325,2.8776,2.8329,2.8129,2.7205,2.6477,2.6034,0.0,0.0,0.0,0.0,0.0,0.0,0.0,0.0,0.0,0.0,0.0,0.0,0.0,0.0,0.0,0.0,0.0,0.0,0.0,0.0,0.0,0.0,0.0,0.0,0.0,0.0,0.0,0.0,0.0,0.0,0.0,0.0,0.0,0.0,0.0,0.0,0.0,0.0,0.0,0.0,0.0,0.0,0.0,0.0,0.0,0.0,0.0,0.0,0.0,0.0,0.0,0.0,0.0,0.0,0.0,0.0,0.0,0.0,0.0,0.0,0.0,0.0,0.0,0.0,0.0,0.0,0.0,0.0,0.0,0.0,0.0,0.0,0.0,0.0,0.0,0.0,0.0,0.0,0.0,0.0,0.0,0.0,0.0,0.0,0.0,0.0,0.0,0.0,0.0,0.0,0.0,0.0,0.0,0.0,0.0,0.0,0.0,0.0,0.0,0.0,0.0,0.0,3.0506,3.0113,2.9815,2.9815,2.9393,2.8851,2.8177,2.8113,2.7512,0.0,0.0,0.0,0.0,0.0,0.0,0.0,0.0,0.0,0.0,0.0,0.0,0.0,0.0,0.0,0.0,0.0,0.0,0.0,0.0,0.0,0.0,0.0,0.0,0.0,0.0,0.0,0.0,0.0,0.0,0.0,0.0,0.0,0.0,0.0,0.0,0.0,0.0,0.0,0.0,0.0,0.0,0.0,0.0,0.0,0.0,0.0,0.0,0.0,0.0,0.0,0.0,0.0,0.0,0.0,0.0,0.0,0.0,0.0,0.0,0.0,0.0,0.0,0.0,0.0,0.0,0.0,0.0,0.0,0.0,0.0,0.0,0.0,0.0,0.0,0.0,0.0,0.0,0.0,0.0,0.0,0.0,0.0,0.0,0.0,0.0,0.0,0.0,0.0,0.0,0.0,0.0,0.0,0.0,0.0,0.0,0.0,0.0,0.0,0.0,0.0,0.0,0.0,3.0855,3.0938,3.0922,3.0675,3.0514,3.0248,2.984,2.9519,2.9081,2.8432,0.0,0.0,0.0,0.0,0.0,0.0,0.0,0.0,0.0,0.0,0.0,0.0,0.0,0.0,0.0,0.0,0.0,0.0,0.0,0.0,0.0,0.0,0.0,0.0,0.0,0.0,0.0,0.0,0.0,0.0,0.0,0.0,0.0,0.0,0.0,0.0,0.0,0.0,0.0,0.0,0.0,0.0,0.0,0.0,0.0,0.0,0.0,0.0,0.0,0.0,0.0,0.0,0.0,0.0,0.0,0.0,0.0,0.0,0.0,0.0,0.0,0.0,0.0,0.0,0.0,0.0,0.0,0.0,0.0,0.0,0.0,0.0,0.0,0.0,0.0,0.0,0.0,0.0,0.0,0.0,0.0,0.0,0.0,0.0,0.0,0.0,0.0,0.0,0.0,0.0,0.0,0.0,0.0,0.0,0.0,0.0,0.0,0.0,0.0,0.0,0.0,0.0,3.1213,3.1387,3.1408,3.1232,3.1075,3.0975,3.0898,3.0555,3.0169,2.9808,0.0,0.0,0.0,0.0,0.0,0.0,0.0,0.0,0.0,0.0,0.0,0.0,0.0,0.0,0.0,0.0,0.0,0.0,0.0,0.0,0.0,0.0,0.0,0.0,0.0,0.0,0.0,0.0,0.0,0.0,0.0,0.0,0.0,0.0,0.0,0.0,0.0,0.0,0.0,0.0,0.0,0.0,0.0,0.0,0.0,0.0,0.0,0.0,0.0,0.0,0.0,0.0,0.0,0.0,0.0,0.0,0.0,0.0,0.0,0.0,0.0,0.0,0.0,0.0,0.0,0.0,0.0,0.0,0.0,0.0,0.0,0.0,0.0,0.0,0.0,0.0,0.0,0.0,0.0,0.0,0.0,0.0,0.0,0.0,0.0,0.0,0.0,0.0,0.0,0.0,0.0,0.0,0.0,0.0,0.0,0.0,0.0,0.0,0.0,0.0,0.0,0.0,3.154,3.156,3.156,3.1542,3.1271,3.1213,3.1483,3.1235,3.0925,3.0526,0.0,0.0,0.0,0.0,0.0,0.0,0.0,0.0,0.0,0.0,0.0,0.0,0.0,0.0,0.0,0.0,0.0,0.0,0.0,0.0,0.0,0.0,0.0,0.0,0.0,0.0,0.0,0.0,0.0,0.0,0.0,0.0,0.0,0.0,0.0,0.0,0.0,0.0,0.0,0.0,0.0,0.0,0.0,0.0,0.0,0.0,0.0,0.0,0.0,0.0,0.0,0.0,0.0,0.0,0.0,0.0,0.0,0.0,0.0,0.0,3.0554,3.0903,0.0,0.0,0.0,0.0,0.0,0.0,0.0,0.0,0.0,0.0,0.0,0.0,0.0,0.0,0.0,0.0,0.0,0.0,0.0,0.0,0.0,0.0,0.0,0.0,0.0,0.0,0.0,0.0,0.0,0.0,0.0,0.0,0.0,0.0,0.0,0.0,0.0,0.0,0.0,0.0,3.1803,3.2037,3.2108,3.1839,3.1748,3.1637,3.1504,3.1635,3.1585,3.1281,3.0865,0.0,0.0,0.0,0.0,0.0,0.0,0.0,0.0,0.0,0.0,0.0,0.0,0.0,0.0,0.0,0.0,0.0,0.0,0.0,0.0,0.0,0.0,0.0,0.0,0.0,0.0,0.0,0.0,0.0,0.0,0.0,0.0,0.0,0.0,0.0,0.0,0.0,0.0,0.0,0.0,0.0,0.0,0.0,0.0,0.0,0.0,0.0,0.0,0.0,0.0,0.0,0.0,0.0,0.0,0.0,0.0,0.0,0.0,0.0,3.0986,3.1238,0.0,0.0,0.0,0.0,0.0,0.0,0.0,0.0,0.0,0.0,0.0,0.0,0.0,0.0,0.0,0.0,0.0,0.0,0.0,0.0,0.0,0.0,0.0,0.0,0.0,0.0,0.0,0.0,0.0,0.0,0.0,0.0,0.0,0.0,0.0,0.0,0.0,0.0,0.0,0.0,3.2144,3.2284,3.2336,3.2144,3.2002,3.1912,3.1929,3.1912,3.1912,3.1929,3.1548,0.0,0.0,0.0,0.0,0.0,0.0,0.0,0.0,0.0,0.0,0.0,0.0,0.0,0.0,0.0,0.0,0.0,0.0,0.0,0.0,0.0,0.0,0.0,0.0,0.0,0.0,0.0,0.0,0.0,0.0,0.0,0.0,0.0,0.0,0.0,0.0,0.0,0.0,0.0,0.0,0.0,0.0,0.0,0.0,0.0,0.0,0.0,0.0,0.0,0.0,0.0,0.0,0.0,3.0683,3.0723,3.0723,3.0723,3.1261,3.2153,3.1153,3.1351,3.2394,3.2644,0.0,0.0,0.0,0.0,0.0,0.0,0.0,0.0,0.0,0.0,0.0,0.0,0.0,0.0,0.0,0.0,0.0,0.0,0.0,0.0,0.0,0.0,3.3319,3.3644,3.3734,3.3749,3.3807,0.0,0.0,0.0,0.0,0.0,0.0,0.0,0.0,0.0,0.0,0.0,3.2406,3.2406,3.2441,3.2581,3.2336,3.2352,3.2774,3.2423,3.23,3.2564,3.2213,3.183,0.0,0.0,0.0,0.0,0.0,0.0,0.0,0.0,0.0,0.0,0.0,0.0,0.0,0.0,0.0,0.0,0.0,0.0,0.0,0.0,0.0,0.0,0.0,0.0,0.0,0.0,0.0,0.0,0.0,0.0,0.0,0.0,2.7564,2.6997,0.0,0.0,0.0,0.0,0.0,0.0,0.0,0.0,0.0,0.0,0.0,0.0,0.0,3.0559,3.0477,3.0845,3.1024,3.1024,3.143,3.1634,3.1634,3.1634,3.1704,3.1863,3.1704,0.0,3.3161,3.3204,0.0,0.0,0.0,0.0,0.0,0.0,0.0,0.0,0.0,0.0,0.0,0.0,0.0,0.0,0.0,0.0,0.0,0.0,0.0,0.0,0.0,0.0,3.545,3.5747,3.5801,3.5891,3.6176,3.4649,3.3214,3.3229,3.3229,3.3124,0.0,0.0,0.0,0.0,0.0,0.0,3.2406,3.2406,3.2651,3.3301,3.3318,3.3599,3.4319,3.3722,3.3301,3.3353,3.2722,3.2403,3.2572,3.2556,0.0,0.0,0.0,0.0,0.0,0.0,0.0,0.0,0.0,0.0,0.0,0.0,0.0,0.0,0.0,0.0,0.0,0.0,0.0,0.0,0.0,0.0,0.0,0.0,0.0,0.0,0.0,0.0,0.0,2.7562,2.7619,2.8417,2.893,2.9613,0.0,0.0,0.0,0.0,0.0,0.0,0.0,0.0,0.0,3.1176,3.1588,3.1644,3.1237,3.1601,3.1769,3.1769,3.2162,3.2614,3.3105,3.3054,3.3318,3.3811,3.3741,3.3951,3.429,3.3429,3.2937,3.2791,0.0,0.0,0.0,0.0,3.4617,3.4925,3.4925,3.4746,3.4613,3.516,0.0,0.0,0.0,0.0,0.0,0.0,0.0,3.5126,3.5778,3.5984,3.6106,3.6408,3.6476,3.6535,3.6673,3.5895,3.4986,3.4369,3.4254,3.4007,3.3211,3.3078,0.0,0.0,0.0,3.3073,3.3518,3.3571,3.3876,3.4713,3.4785,3.4946,3.5287,3.5,3.4803,3.4786,3.4019,3.3635,3.3741,3.3327,3.2931,0.0,0.0,0.0,0.0,0.0,0.0,0.0,0.0,0.0,0.0,0.0,0.0,0.0,0.0,0.0,0.0,0.0,0.0,0.0,0.0,0.0,0.0,0.0,0.0,0.0,0.0,0.0,0.0,2.8179,2.8691,3.0137,3.0213,3.0636,0.0,0.0,0.0,0.0,0.0,0.0,3.2041,3.2781,3.2838,3.209,3.2595,3.2612,3.2073,3.2528,3.2753,3.277,3.3263,3.3833,3.4469,3.4406,3.4746,3.5421,3.5319,3.5392,3.5466,3.4074,3.3502,3.3572,3.4375,3.4841,3.5081,3.5311,3.5634,3.5911,3.5911,3.5636,3.5353,3.6027,3.5666,3.4963,3.5118,0.0,0.0,0.0,0.0,3.5864,3.672,3.6942,3.6999,3.7259,3.7312,3.7312,3.7312,3.7312,3.6931,3.568,3.5436,3.5138,3.4204,3.4036,0.0,3.3951,3.3936,3.4154,3.4748,3.4836,3.516,3.6025,3.6098,3.6204,3.642,3.6238,3.6144,3.6144,3.5348,3.4909,3.498,3.44,3.4,3.3785,0.0,0.0,0.0,0.0,0.0,0.0,0.0,0.0,0.0,0.0,0.0,0.0,0.0,0.0,0.0,0.0,0.0,0.0,0.0,0.0,0.0,0.0,0.0,0.0,0.0,0.0,0.0,0.0,0.0,3.1694,3.2295,0.0,0.0,0.0,0.0,3.3985,3.4265,3.4105,3.3352,3.3721,3.3586,3.2782,3.28,3.28,3.2747,3.3589,3.4012,3.403,3.4931,3.5391,3.5427,3.5427,3.5445,3.5481,3.5481,3.593,3.6543,3.5519,3.5079,3.5167,3.597,3.6291,3.6415,3.7256,3.7806,3.814,3.814,3.8361,3.8663,3.8792,3.8099,3.7283,3.7623,3.747,0.0,0.0,3.8317,3.8888,3.8943,3.8957,3.8957,3.899,3.8971,3.8971,3.8971,3.8971,3.8507,3.6915,3.6617,3.6501,3.6121,0.0,3.5978,3.5696,3.5667,3.5701,3.5722,3.5722,3.6043,3.6851,3.6942,3.7264,3.8093,3.7468,3.7028,3.7028,3.6331,3.6039,3.6288,3.6283,3.5882,3.5124,3.5423,0.0,0.0,0.0,0.0,0.0,0.0,0.0,0.0,0.0,0.0,0.0,0.0,0.0,0.0,0.0,0.0,0.0,0.0,0.0,0.0,0.0,0.0,0.0,0.0,0.0,0.0,0.0,0.0,3.2403,3.292,0.0,3.434,3.4196,3.4041,3.4041,3.3668,3.3311,3.3028,3.3639,3.388,3.3639,3.4175,3.4494,3.4541,3.5049,3.5317,3.5335,3.5886,3.6439,3.6993,3.6938,3.7213,3.7749,3.7723,3.7839,3.8096,3.7741,3.7312,3.6895,3.7148,3.7377,3.7667,3.7975,3.8346,3.8676,3.8676,3.8785,3.8995,3.9622,3.9618,3.9452,4.0094,3.9439,3.8734,3.9927,4.0104,4.0048,4.0568,4.0849,4.098,4.098,4.098,4.098,4.098,4.0836,4.0531,3.9955,3.8562,3.7273,3.6641,3.6535,3.6495,3.6399,3.6385,3.6569,3.7086,3.7183,3.7507,3.8315,3.8497,3.8669,3.898,3.8753,3.8568,3.8568,3.7802,3.7379,3.7489,3.7,3.659,3.6292,3.6416,3.6279,0.0,0.0,0.0,0.0,0.0,0.0,0.0,0.0,0.0,0.0,0.0,0.0,0.0,0.0,0.0,0.0,0.0,0.0,0.0,0.0,0.0,0.0,0.0,0.0,0.0,3.1583,3.2019,3.3138,3.3231,3.3512,3.4305,3.3912,3.3706,3.3974,3.3621,3.3486,3.3755,3.4436,3.4819,3.4878,3.5452,3.5786,3.5848,3.6347,3.6615,3.6615,3.7123,3.7674,3.8234,3.8197,3.8493,3.9036,3.8993,3.9131,3.939,3.9361,3.9215,3.9014,3.8641,3.8665,3.8944,3.9202,3.932,3.9301,3.9053,3.916,3.9507,4.0125,4.0558,4.0903,4.1441,4.0896,4.0308,4.1428,4.1422,4.1186,4.1729,4.1987,4.2121,4.2121,4.2121,4.2121,4.2121,4.2006,4.1879,4.1879,4.0407,3.8971,3.8451,3.8339,3.8353,3.838,3.8366,3.8552,3.9146,3.9234,3.9466,4.0061,4.0189,4.0248,4.0274,4.0274,4.0274,4.0274,3.975,3.9413,3.9413,3.864,3.8097,3.7816,3.7319,3.7088,3.7122,0.0,0.0,0.0,0.0,0.0,0.0,0.0,0.0,0.0,0.0,0.0,0.0,0.0,0.0,0.0,0.0,0.0,0.0,0.0,0.0,0.0,0.0,0.0,3.133,3.2511,3.353,3.3924,3.3312,3.3168,3.3937,3.3328,3.3219,3.4022,3.4362,3.4906,3.5683,3.6175,3.6435,3.6435,3.6519,3.6574,3.6574,3.7419,3.7836,3.7836,3.8702,3.9101,3.9101,3.9101,3.9101,3.9101,3.9101,3.9584,4.0346,4.0222,4.0659,4.1326,4.0473,4.0129,4.024,4.1018,4.0861,4.0174,3.95,3.9807,4.0508,4.0508,4.1062,4.1694,4.1694,4.1885,4.2089,4.2089,4.2277,4.2466,4.2466,4.2477,4.2477,4.2477,4.2477,4.2477,4.2477,4.2477,4.2466,4.2466,4.2055,4.1675,4.1605,4.1619,4.163,4.1702,4.1659,0.0,4.1796,4.1768,4.1768,4.1879,4.1906,4.1932,4.2018,4.2018,4.2018,4.2012,4.2012,4.2012,4.2012,4.1274,4.0497,3.9708,3.8291,3.7564,3.7564,0.0,0.0,0.0,0.0,0.0,0.0,0.0,0.0,0.0,0.0,0.0,0.0,0.0,0.0,0.0,0.0,0.0,0.0,0.0,0.0,0.0,3.2674,3.3351,3.3253,3.3094,3.302,3.3118,3.3661,3.4122,3.4341,3.4951,3.5429,3.5651,3.5802,3.5966,3.6201,3.6932,3.7359,3.7415,3.8002,3.834,3.8377,3.8628,3.8739,3.8739,3.899,3.9101,3.9101,3.9101,3.9101,3.9101,3.9101,3.9231,3.9454,3.9407,3.9537,3.9839,4.0655,4.1028,4.1144,4.1351,4.1727,4.2136,4.2519,4.2816,4.3047,4.3245,4.3446,4.3676,4.386,4.3976,4.4039,4.4039,4.407,4.4137,4.4137,4.4289,4.444,4.444,4.444,4.444,4.444,4.4277,4.4137,4.4137,4.4027,4.3484,4.2115,4.2039,4.2109,4.1944,4.2065,4.2157,4.209,4.2248,4.2248,4.1932,4.2109,4.2269,4.23,4.23,4.2344,4.2495,4.2506,4.2506,4.2506,4.2297,4.2079,4.185,4.1454,4.1236,0.0,0.0,0.0,0.0,0.0,0.0,0.0,0.0,0.0,0.0,0.0,0.0,0.0,0.0,0.0,0.0,0.0,0.0,0.0,0.0,0.0,0.0,3.3324,3.4045,3.437,3.39,3.3564,3.3701,3.4639,3.5253,3.5253,3.589,3.6431,3.6795,3.6853,3.7043,3.7393,3.7936,3.8247,3.8303,3.8776,3.9045,3.9101,3.9101,3.9101,3.9101,3.9101,3.9101,3.9101,3.9101,3.917,3.9272,3.9272,3.9524,3.9939,3.9939,4.0146,4.0508,0.0,0.0,0.0,0.0,4.2025,4.2548,4.3128,4.3545,4.3854,4.4011,4.429,4.4599,4.4751,4.4891,4.4973,4.4973,4.5052,4.5148,4.5148,4.5243,4.5381,4.5381,4.5381,4.5381,4.5381,4.5243,4.5148,4.5148,4.5148,0.0,4.3577,4.3414,4.3395,4.3275,4.3361,4.3449,4.346,4.3564,4.3545,4.3307,4.3456,4.3569,4.3569,4.3569,0.0,0.0,0.0,4.3578,4.3225,4.3206,0.0,0.0,0.0,4.2831,4.2831,4.2911,0.0,0.0,4.0035,3.9996,0.0,0.0,0.0,0.0,0.0,0.0,0.0,0.0,0.0,0.0,0.0,0.0,0.0,0.0,0.0,0.0,3.417,3.4229,3.5041,3.4973,3.4899,3.5123,3.5917,3.6431,3.6431,3.6523,3.6872,3.7584,3.7695,3.8052,3.8766,3.8935,0.0,0.0,0.0,3.9156,3.9156,3.9165,3.9178,3.9178,3.9178,3.9178,3.9178,3.9178,3.9362,3.9682,3.9682,4.0278,4.1249,4.1249,4.1753,4.2401,4.1124,4.0626,4.0761,4.1798,4.2171,4.2228,4.2555,0.0,0.0,4.3767,4.426,4.4849,4.4872,4.5063,4.5243,4.5243,4.5419,4.5594,4.5594,4.5594,4.5594,4.5594,4.5691,4.5748,4.5748,4.5825,4.5883,4.5883,4.5883,4.5819,4.5659,4.5273,4.5007,4.5033,4.5017,4.5072,4.5213,4.5203,4.5182,4.5201,4.5222,0.0,4.5223,4.5223,4.5234,4.5273,4.5273,4.4919,4.4154,4.4116,4.3771,4.3053,4.3225,4.3319,4.3319,4.3494,4.3576,4.3569,4.3208,4.303,0.0,0.0,0.0,0.0,0.0,0.0,0.0,0.0,0.0,0.0,0.0,0.0,0.0,0.0,0.0,3.4461,3.4641,3.5059,3.5936,3.6553,3.6685,3.6105,3.6776,3.7272,3.7272,3.7845,3.8303,3.8469,3.8586,3.8729,3.8862,3.9007,3.9073,3.9073,3.9311,3.9408,3.9408,3.9578,3.9664,3.9664,3.9664,0.0,3.9664,3.9664,4.0076,4.0783,4.0783,4.131,4.2143,4.2143,4.2636,4.3277,4.238,4.2004,4.2118,4.2967,4.3293,4.3388,4.4087,4.444,4.4609,4.4816,4.5004,4.515,4.539,4.5485,0.0,4.5513,4.5568,4.5594,4.5594,4.5594,4.5594,4.5594,4.6144,4.6644,4.6644,4.7163,4.7625,4.7625,4.7625,4.7614,4.7633,4.6462,4.5494,4.5362,4.55,4.5588,4.5454,4.5566,4.556,4.5223,4.5343,4.5436,4.5436,4.5436,4.5507,4.5665,4.5673,4.5615,4.5449,4.543,4.5352,4.5198,4.5247,4.5262,4.5262,4.5309,4.5323,4.5278,4.3896,4.3245,0.0,0.0,0.0,0.0,0.0,0.0,0.0,0.0,0.0,0.0,0.0,3.3658,3.3653,0.0,3.4889,3.5319,3.5542,3.5936,3.6795,3.7254,3.7345,3.696,3.7606,3.8102,3.8102,3.8496,3.875,3.875,3.8881,3.9007,3.9142,3.9245,3.9344,3.9445,3.9578,3.9648,3.9648,3.9742,3.9808,3.9808,3.9808,4.0035,4.0453,4.0453,4.0973,4.1907,4.1907,4.2446,4.3368,4.3818,4.4228,4.4572,4.4162,4.3844,4.368,4.4194,4.4391,4.4489,4.5017,4.5201,4.5298,4.5869,4.6052,4.6148,4.6693,4.6855,4.6855,4.6855,4.6855,4.6855,4.6855,4.6855,4.6855,4.6855,4.7182,4.7509,4.7509,4.7817,4.8105,4.8105,4.8124,4.816,4.8232,4.7563,4.6965,4.6865,4.6986,4.7071,4.697,4.7032,4.7017,4.6824,4.6885,4.6962,4.6962,4.6962,4.6994,4.7096,4.7096,4.7096,4.7096,4.7096,4.7096,4.7096,4.667,4.6445,4.6445,4.6445,4.6445,4.6445,4.6032,4.5374,0.0,0.0,0.0,0.0,0.0,0.0,0.0,3.3322,3.4203,3.3396,3.4083,3.4848,3.4857,3.5067,3.5536,3.6376,3.6523,3.6813,3.7636,3.7787,3.7812,3.7845,3.836,3.8735,3.8807,3.8881,3.8902,3.8942,3.9069,3.9232,3.9446,3.952,3.9625,3.9797,3.9851,3.9891,3.9891,3.9913,4.0029,4.0181,4.0181,4.0657,4.1504,4.1504,4.2054,4.3025,4.3197,4.3741,4.4605,4.5306,4.5594,4.5594,4.5594,4.5332,4.4985,4.5201,4.5378,4.5561,4.5782,4.596,4.6201,4.6894,4.7135,4.725,4.7894,4.8105,4.8105,4.8105,4.8105,4.8105,4.8105,4.8105,4.8105,4.8105,4.824,4.8355,4.8355,4.849,4.8606,4.8606,4.8652,4.8705,4.8767,4.8808,4.8686,4.8365,4.8369,4.8392,4.8392,4.8392,4.8392,4.8392,4.8392,4.8392,4.8392,4.8392,4.8392,4.8392,4.8392,4.8392,4.8392,4.8392,4.8392,4.8392,4.7715,4.7347,4.7347,4.7347,4.7369,4.7397,4.8094,4.7666,3.2354,3.2449,3.259,3.2898,3.3584,3.409,0.0,3.4847,3.5798,3.4924,3.5465,3.6098,3.6094,3.6142,3.6413,3.7235,3.7364,3.7669,3.8519,3.8803,3.8979,3.9083,3.8923,3.8906,3.9205,3.9232,3.9313,3.9493,3.9583,3.963,3.9664,3.9731,3.9775,3.9797,4.0032,4.0148,4.0148,4.0319,4.0798,4.1585,4.1585,4.2027,4.2872,4.2872,4.3331,4.4156,4.4944,4.5346,4.546,4.5556,4.5594,4.5594,4.5594,4.5568,4.5513,4.5531,4.6059,4.6703,4.675,4.7221,4.7836,4.7932,4.7971,4.799,4.8067,4.8105,4.8105,4.8105,4.8105,4.8105,4.8105,4.8105,4.8105,4.8105,4.8682,4.924,4.924,4.9856,5.0423,5.0423,5.0423,5.045,5.0503,5.0565,5.0104,4.8609,4.8411,4.8392,4.8392,4.8392,4.8392,4.8392,4.8392,4.8392,4.8392,4.8392,4.8392,4.8392,4.8392,4.8392,4.8392,4.8392,4.8392,4.8392,4.8295,4.8256,4.8256,4.8256,4.8288,4.8355,4.8433,4.8348,3.3258,3.3361,3.3422,3.355,3.4199,3.4753,3.4536,3.544,3.6193,3.5844,3.6046,3.6431,3.6905,3.6997,3.7272,3.8065,3.8193,3.8334,3.8737,3.8975,3.9171,3.935,3.9338,3.9371,3.9451,3.9507,3.9578,3.9645,3.9731,3.9819,3.9973,4.0022,4.0091,4.0212,4.033,4.0613,4.1131,4.1207,4.17,4.2566,4.2566,4.2989,4.3797,4.3797,4.4259,4.5075,4.5441,4.5594,4.5594,4.5594,4.5594,4.5594,4.5594,4.5594,4.5594,4.5594,4.5825,4.6144,4.6144,4.6355,4.6721,4.724,4.7413,4.749,4.7971,4.8105,4.8105,4.8105,4.8471,4.8856,4.8856,4.9221,4.9606,4.9606,4.9894,5.0173,5.0173,5.0442,5.0702,5.0702,5.073,5.0784,5.0846,5.0888,5.067,4.995,4.9861,4.9861,4.9861,4.9861,4.9861,4.9861,4.9861,4.9861,4.9861,4.9861,4.9861,4.9861,4.9861,4.9861,4.9861,4.9861,4.9861,4.9861,4.9426,4.9201,4.9201,4.924,4.9279,4.9327,4.9848,5.0058,3.3721,3.3807,3.3844,3.4082,3.4564,3.5059,3.5298,3.6028,3.6615,3.6615,3.6798,3.7129,3.7731,3.7841,3.801,3.8615,3.8707,3.875,3.8921,3.9109,3.9333,3.9585,3.9805,3.9903,3.9853,3.984,3.9851,3.9913,3.9964,4.0072,4.0278,4.0516,4.0712,4.0854,4.1093,4.1527,4.2162,4.2162,4.2585,4.3431,4.3431,4.3855,4.4662,4.4662,4.4998,4.5594,4.5594,4.5594,4.5594,4.5594,4.5594,4.5594,4.5594,4.5594,4.5594,4.5594,4.5748,4.5951,4.5951,4.6105,4.6394,4.7028,4.7231,4.7336,4.7932,4.8279,4.8471,4.8471,4.9086,4.976,4.976,5.0231,5.0712,5.0712,5.0712,5.0712,5.0712,5.0712,5.0702,5.0711,5.0747,5.081,5.0891,5.0893,5.0898,5.0898,5.0898,5.0898,5.0898,5.0898,5.0898,5.0898,5.0898,5.0898,5.0898,5.0898,5.0898,5.0898,5.0925,5.0966,5.0966,5.097,5.0972,5.0972,5.047,5.0183,5.0183,5.022,5.0263,5.0303,5.0924,5.1245,3.3807,3.3807,3.399,3.4766,3.4986,3.5224,3.6064,3.6886,3.7456,3.7456,3.8083,3.8634,3.867,3.867,3.867,3.8707,3.8707,3.8837,3.9232,3.947,3.9724,4.0129,4.0356,4.0481,4.0473,4.0304,4.0269,4.0465,4.0481,4.0481,4.0489,4.1288,4.175,4.175,4.2585,4.3028,4.3066,4.3066,4.347,4.4259,4.4259,4.472,4.5556,4.5556,4.5575,4.5594,4.5594,4.5594,4.5594,4.5594,4.5594,4.5594,4.5594,4.5594,4.5594,4.5594,4.6124,4.6846,4.6846,4.7375,4.8029,4.8048,4.8067,4.8067,4.8086,4.8682,4.9356,4.9356,4.999,5.0654,5.0654,5.0673,5.0712,5.0712,5.0712,5.0712,5.0712,5.0712,5.0702,5.0711,5.0747,5.081,5.0891,5.0893,5.0898,5.0898,5.0898,5.0898,5.0898,5.0898,5.0898,5.0898,5.0898,5.0898,5.0898,5.0898,5.0898,5.0898,5.1024,5.1093,5.1093,5.1167,5.1195,5.1195,5.1176,5.116,5.116,5.116,5.118,5.1256,5.1275,5.1337,3.3807,3.3807,3.399,3.4802,3.5426,3.6083,3.6905,3.7716,3.8303,3.8303,3.8505,3.8707,3.8707,3.8707,3.8707,3.8707,3.8735,3.8892,3.9245,3.9507,3.9797,4.0148,4.0372,4.0496,4.0496,4.0441,4.0433,4.0489,4.1046,4.1354,4.1354,4.22,4.2662,4.2662,4.2951,4.3355,4.3893,4.3893,4.4316,4.5171,4.5171,4.5325,4.5594,4.5594,4.5594,4.5594,4.5594,4.5594,4.5594,4.5594,4.5594,4.5594,4.5594,4.5594,4.5594,4.5594,4.5787,4.6028,4.6028,4.6201,4.6432,4.6432,4.6836,4.7288,4.7288,4.7875,4.8548,4.8548,4.9163,4.9837,4.9837,5.0269,5.0712,5.0712,5.0712,5.0712,5.0712,5.0712,5.0712,5.0757,5.0819,5.0871,5.0909,5.1005,5.1102,5.1102,5.0998,5.0898,5.0898,5.0898,5.0898,5.0898,5.0976,5.1037,5.1037,5.1078,5.1102,5.1102,5.1138,5.1176,5.1176,5.1187,5.1203,5.1203,5.1232,5.1272,5.1272,5.1302,5.1338,5.1363,5.1365,5.1387,3.3807,3.4009,3.4431,3.5261,3.6101,3.6942,3.7749,3.8322,3.8707,3.8707,3.8707,3.8707,3.8707,3.8707,3.8707,3.8707,3.8735,3.8902,3.9351,3.9823,4.0285,4.0728,4.1154,4.1439,4.1439,4.1439,4.1304,4.0989,4.1777,4.2258,4.2258,4.3066,4.3528,4.3528,4.3835,4.4239,4.4759,4.4759,4.5056,4.5594,4.5594,4.5594,4.5594,4.5594,4.5594,4.5594,4.5594,4.5594,4.5594,4.5594,4.5594,4.5594,4.5594,4.5594,4.5594,4.5594,4.5806,4.6009,4.571,4.5806,4.6067,4.6067,4.6644,4.7336,4.7336,4.7913,4.8567,4.8567,4.9183,4.9856,4.9856,5.0289,5.0712,5.0712,5.0712,5.0712,5.0767,5.0776,5.081,5.0898,5.094,5.0991,5.1011,5.1118,5.1203,5.1203,5.1092,5.1005,5.1005,5.1005,5.1005,5.1005,5.1084,5.1146,5.1146,5.1189,5.1203,5.1203,5.1229,5.1242,5.1242,5.1266,5.1277,5.1277,5.1304,5.1334,5.1334,5.1385,5.1406,5.1406,5.1405,5.1404,3.3844,3.4417,3.5224,3.6138,3.6942,3.7713,3.8524,3.8707,3.8707,3.8707,3.8707,3.8707,3.8762,3.8726,3.8707,3.8762,3.8741,3.8931,3.9517,4.037,4.1136,4.1728,4.2566,4.3104,4.3104,4.3143,4.2816,4.1981,4.2701,4.3162,4.3162,4.3932,4.4374,4.4374,4.5171,4.5594,4.5594,4.5594,4.5594,4.5594,4.5594,4.5594,4.5594,4.5594,4.5594,4.5594,4.5594,4.5594,4.5594,4.5594,4.5594,4.5594,4.5594,4.5633,4.5671,4.5671,4.622,4.6836,4.6009,4.6278,4.6962,4.6962,4.7509,4.8163,4.8163,4.8779,4.9471,4.9471,5.0048,5.0712,5.0712,5.0721,5.0702,5.0702,5.0712,5.0758,5.0871,5.091,5.093,5.1063,5.1094,5.1132,5.1207,5.1211,5.1211,5.1214,5.1214,5.1211,5.1203,5.1203,5.1203,5.1203,5.1207,5.1207,5.1207,5.1211,5.1214,5.1214,5.1274,5.1318,5.1318,5.1363,5.1406,5.1406,5.1406,5.1406,5.1406,5.1406,5.1406,5.1406,5.1405,5.1402,3.4527,3.4839,3.5353,3.6831,3.7345,3.7713,3.8524,3.8707,3.8707,3.8707,3.8707,3.8891,3.9478,3.9093,3.8909,3.9496,3.9338,3.9253,3.9552,4.0583,4.139,4.1764,4.2566,4.3104,4.3104,4.3643,4.3893,4.3682,4.3874,4.3989,4.3989,4.4797,4.5267,4.5267,4.5479,4.5594,4.5594,4.5594,4.5594,4.5594,4.5594,4.5594,4.5594,4.5594,4.5594,4.5594,4.5594,4.5594,4.5594,4.5594,4.5594,4.5594,4.5594,4.599,4.6567,4.6567,4.7086,4.7759,4.7548,4.7605,4.7798,4.7798,4.8375,4.9067,4.9067,4.9683,5.0366,5.0366,5.0539,5.0712,5.0712,5.0766,5.085,5.085,5.0879,5.0933,5.0966,5.0979,5.1004,5.1074,5.1141,5.1209,5.1333,5.1301,5.1291,5.1337,5.1359,5.1304,5.1218,5.1203,5.1203,5.1203,5.1232,5.1279,5.1279,5.1327,5.1359,5.1359,5.1363,5.1365,5.1365,5.1386,5.1406,5.1406,5.1406,5.1406,5.1406,5.1406,5.1406,5.1406,5.1404,5.1399,3.4784,3.5279,3.5881,3.718,3.7768,3.8138,3.8597,3.8707,3.8707,3.8707,3.8707,3.8946,3.9753,3.9239,3.8964,3.98,3.9517,3.932,3.9599,4.095,4.203,4.2349,4.3451,4.4201,4.4201,4.4605,4.4874,4.4874,4.4874,4.4874,4.4874,4.5325,4.5594,4.5594,4.5594,4.5594,4.5594,4.5594,4.5594,4.5594,4.5594,4.5594,4.5594,4.5594,4.5594,4.5594,4.5594,4.5594,4.5594,4.5594,4.5594,4.5633,4.6009,4.6471,4.6942,4.7298,4.7952,4.8663,4.8663,4.8913,4.9183,4.8798,4.926,4.9971,4.9971,5.0308,5.0712,5.0712,5.0712,5.0712,5.0712,5.0801,5.0894,5.0894,5.0945,5.102,5.1069,5.1094,5.1126,5.1206,5.1255,5.1304,5.1386,5.1364,5.1361,5.1386,5.1406,5.1365,5.1295,5.1288,5.1288,5.1288,5.1328,5.1338,5.1338,5.1385,5.1406,5.1406,5.1406,5.1406,5.1406,5.1406,5.1406,5.1406,5.1406,5.1406,5.1406,5.1406,5.1406,5.1406,5.1402,5.1398,3.4949,3.5807,3.6652,3.7456,3.8175,3.8707,3.8707,3.8707,3.8707,3.8707,3.8707,3.8946,3.9753,3.9239,3.8977,3.989,3.9551,3.9289,3.9698,4.1421,4.2776,4.306,4.4566,4.5594,4.5594,4.5594,4.5594,4.5594,4.5594,4.5594,4.5594,4.5594,4.5594,4.5594,4.5594,4.5594,4.5594,4.5594,4.5594,4.5594,4.5594,4.5594,4.5594,4.5594,4.5594,4.5594,4.5594,4.5594,4.5594,4.5594,4.5671,4.5845,4.6605,4.7038,4.7317,4.8029,4.8817,4.9567,4.9567,5.0067,5.0577,4.9817,5.0067,5.0712,5.0712,5.0712,5.0712,5.0712,5.0712,5.0693,5.0721,5.0816,5.0913,5.0935,5.1004,5.1079,5.1203,5.1236,5.1255,5.1381,5.1406,5.1406,5.1406,5.1406,5.1406,5.1406,5.1406,5.1406,5.1406,5.1406,5.1406,5.1406,5.1406,5.1406,5.1406,5.1406,5.1406,5.1406,5.1406,5.1406,5.1406,5.1406,5.1406,5.1406,5.1406,5.1406,5.1406,5.1406,5.1406,5.1406,5.1402,5.1398,3.5844,3.667,3.7492,3.8285,3.8597,3.8707,3.8707,3.8707,3.8707,3.8707,3.8707,3.8946,3.9753,3.9239,3.9034,4.008,3.9819,3.9634,3.9982,4.1761,4.3024,4.3077,4.4566,4.5594,4.5594,4.5594,4.5594,4.5594,4.5594,4.5594,4.5594,4.5594,4.5594,4.5594,4.5594,4.5594,4.5594,4.5594,4.5594,4.5594,4.5594,4.5594,4.5594,4.5594,4.5594,4.5594,4.5594,4.5594,4.5594,4.5594,4.6009,4.6701,4.6827,4.7759,4.8971,4.9125,4.9721,5.0481,5.0481,5.0577,5.0673,5.0519,5.0577,5.0712,5.0712,5.0712,5.0712,5.0712,5.0712,5.0731,5.0833,5.093,5.1022,5.1118,5.1241,5.1333,5.1362,5.1379,5.1373,5.1398,5.1405,5.1406,5.1406,5.1406,5.1406,5.1406,5.1406,5.1406,5.1406,5.1406,5.1406,5.1406,5.1406,5.1406,5.1406,5.1406,5.1406,5.1406,5.1406,5.1406,5.1406,5.1406,5.1406,5.1406,5.1406,5.1406,5.1406,5.1406,5.1406,5.1406,5.1402,5.1398,3.656,3.7217,3.7694,3.8505,3.8707,3.8707,3.8707,3.8707,3.8707,3.8707,3.8707,3.8946,3.9753,3.9239,3.905,4.017,3.9927,3.9731,4.0042,4.1442,4.2585,4.3047,4.4182,4.5094,4.5556,4.5594,4.5594,4.5594,4.5594,4.5594,4.5594,4.5594,4.5594,4.5594,4.5594,4.5594,4.5594,4.5594,4.5594,4.5594,4.5594,4.5594,4.5594,4.5594,4.5594,4.5594,4.5594,4.5594,4.5594,4.5594,4.6105,4.6942,4.7355,4.8298,4.9452,4.9913,5.0346,5.0712,5.0712,5.0712,5.0712,5.0712,5.0712,5.0712,5.0712,5.0712,5.0712,5.0712,5.0749,5.0827,5.0871,5.0998,5.1128,5.1172,5.1297,5.1396,5.1402,5.1393,5.1399,5.1402,5.1405,5.1406,5.1406,5.1406,5.1406,5.1406,5.1406,5.1406,5.1406,5.1406,5.1406,5.1406,5.1406,5.1406,5.1406,5.1406,5.1406,5.1406,5.1406,5.1406,5.1406,5.1406,5.1406,5.1406,5.1406,5.1406,5.1406,5.1406,5.1406,5.1406,5.1402,5.1397,3.6905,3.7492,3.7915,3.8542,3.8707,3.8707,3.8707,3.8707,3.8707,3.8707,3.8707,3.8891,3.9533,3.9129,3.9024,4.0044,3.9871,3.9742,4.012,4.1123,4.2124,4.3008,4.3816,4.4643,4.5518,4.5594,4.5594,4.5594,4.5594,4.5594,4.5594,4.5594,4.5594,4.5594,4.5594,4.5594,4.5594,4.5594,4.5594,4.5594,4.5594,4.5594,4.5594,4.5594,4.5594,4.5594,4.5594,4.5594,4.5594,4.5594,4.622,4.7212,4.7855,4.8759,4.976,5.0462,5.0712,5.0712,5.0712,5.0712,5.0712,5.0712,5.0712,5.0712,5.0712,5.0721,5.074,5.074,5.0833,5.0935,5.0963,5.1086,5.1207,5.1241,5.1327,5.1396,5.1405,5.1394,5.1399,5.1403,5.1406,5.1406,5.1406,5.1406,5.1406,5.1406,5.1406,5.1406,5.1406,5.1406,5.1406,5.1406,5.1406,5.1406,5.1406,5.1406,5.1406,5.1406,5.1406,5.1406,5.1406,5.1406,5.1406,5.1406,5.1406,5.1406,5.1406,5.1406,5.1406,5.1405,5.1401,5.1395,3.6358,3.7477,3.8615,3.8689,3.8707,3.8707,3.8707,3.8707,3.8707,3.8707,3.8707,3.8726,3.8799,3.8762,3.8896,3.9489,3.9597,3.9797,4.0388,4.1237,4.2124,4.3008,4.3816,4.4643,4.5518,4.5594,4.5594,4.5594,4.5594,4.5594,4.5594,4.5594,4.5594,4.5594,4.5594,4.5594,4.5594,4.5594,4.5594,4.5594,4.5594,4.5594,4.5594,4.5594,4.5594,4.5594,4.5594,4.5594,4.5594,4.5594,4.6528,4.8009,4.8067,4.9125,5.0596,5.0673,5.0712,5.0712,5.0712,5.0712,5.0712,5.0712,5.0712,5.0712,5.0712,5.0794,5.0871,5.0871,5.0925,5.1014,5.1137,5.1191,5.1222,5.1357,5.139,5.1394,5.1396,5.1409,5.1398,5.1399,5.1405,5.1406,5.1406,5.1406,5.1406,5.1406,5.1406,5.1406,5.1406,5.1406,5.1406,5.1406,5.1406,5.1406,5.1406,5.1406,5.1406,5.1406,5.1406,5.1406,5.1406,5.1406,5.1406,5.1406,5.1406,5.1406,5.1406,5.1406,5.1406,5.1405,5.1401,5.1395,3.6156,3.6762,3.7257,3.7257,3.7257,3.7386,3.7878,3.7988,3.812,3.8597,3.8707,3.8707,3.8707,3.8707,3.8881,3.9414,3.9559,3.9797,4.0362,4.0776,4.1546,4.2931,4.3374,4.4105,4.5479,4.5594,4.5594,4.5594,4.5594,4.5594,4.5594,4.5594,4.5594,4.5594,4.5594,4.5594,4.5594,4.5594,4.5594,4.5594,4.5594,4.5594,4.5594,4.5594,4.5594,4.5594,4.5594,4.5594,4.5594,4.5594,4.6586,4.8105,4.8105,4.9163,5.0712,5.0712,5.0712,5.0712,5.0712,5.0712,5.0712,5.0712,5.0749,5.0827,5.0827,5.0858,5.091,5.0945,5.1039,5.1137,5.1191,5.1255,5.133,5.139,5.1394,5.1394,5.1394,5.1408,5.1398,5.1398,5.1405,5.1406,5.1406,5.1406,5.1406,5.1406,5.1406,5.1406,5.1406,5.1406,5.1406,5.1406,5.1406,5.1406,5.1406,5.1406,5.1406,5.1406,5.1406,5.1406,5.1406,5.1406,5.1406,5.1406,5.1406,5.1406,5.1406,5.1406,5.1406,5.1401,5.1399,5.1393,3.5752,3.6101,3.6303,3.6303,3.6303,3.645,3.7015,3.7144,3.7309,3.7863,3.8175,3.834,3.834,3.86,3.8964,3.9439,3.9625,3.988,4.0344,4.0452,4.1054,4.2547,4.2931,4.3662,4.5075,4.546,4.5594,4.5594,4.5594,4.5594,4.5594,4.5594,4.5594,4.5594,4.5594,4.5594,4.5594,4.5594,4.5594,4.5594,4.5594,4.5594,4.5594,4.5594,4.5594,4.5594,4.5594,4.5594,4.5594,4.5594,4.6586,4.8105,4.8105,4.9163,5.0712,5.0712,5.0712,5.0712,5.0712,5.0712,5.0712,5.0712,5.0784,5.0902,5.0928,5.0951,5.1005,5.1056,5.1155,5.1255,5.1255,5.133,5.1394,5.1394,5.1394,5.1394,5.1394,5.1407,5.1396,5.1398,5.1404,5.1406,5.1406,5.1406,5.1406,5.1406,5.1406,5.1406,5.1406,5.1406,5.1406,5.1406,5.1406,5.1406,5.1406,5.1406,5.1406,5.1406,5.1406,5.1406,5.1406,5.1406,5.1406,5.1406,5.1406,5.1406,5.1406,5.1406,5.1405,5.1401,5.1399,5.1391,3.5023,3.5628,3.6303,3.6303,3.6303,3.6303,3.6303,3.6303,3.6303,3.6321,3.696,3.7511,3.7511,3.8385,3.9178,3.9464,3.978,4.0101,4.0362,4.0452,4.0843,4.172,4.2566,4.3412,4.422,4.5094,4.5594,4.5594,4.5594,4.5594,4.5594,4.5594,4.5594,4.5594,4.5594,4.5594,4.5594,4.5594,4.5594,4.5594,4.5594,4.5594,4.5594,4.5594,4.5594,4.5594,4.5594,4.5594,4.5594,4.5594,4.6586,4.8105,4.8105,4.9163,5.0712,5.0712,5.0712,5.0712,5.0712,5.0712,5.0712,5.0712,5.0784,5.0905,5.0985,5.1084,5.1199,5.1199,5.1294,5.1394,5.1394,5.1394,5.1394,5.1394,5.1394,5.1394,5.1394,5.1403,5.1391,5.1397,5.1402,5.1405,5.1406,5.1406,5.1406,5.1406,5.1406,5.1406,5.1406,5.1406,5.1406,5.1406,5.1406,5.1406,5.1406,5.1406,5.1406,5.1406,5.1406,5.1406,5.1406,5.1406,5.1406,5.1406,5.1406,5.1406,5.1406,5.1406,5.1406,5.1405,5.1401,5.1391,3.4192,3.4376,3.4578,3.4578,3.4578,3.4743,3.5279,3.5408,3.5573,3.6174,3.6486,3.685,3.7401,3.7923,3.8545,3.9371,3.9791,4.0101,4.0362,4.0452,4.0816,4.17,4.3047,4.4239,4.5114,4.5441,4.5594,4.5594,4.5594,4.5594,4.5594,4.5594,4.5594,4.5594,4.5594,4.5594,4.5594,4.5594,4.5594,4.5594,4.5594,4.5594,4.5594,4.5594,4.5594,4.5594,4.5594,4.5594,4.5594,4.5594,4.6586,4.8105,4.8105,4.9163,5.0712,5.0712,5.0712,5.0712,5.0712,5.0712,5.0712,5.0712,5.083,5.0972,5.099,5.1084,5.1214,5.1302,5.1364,5.1394,5.1394,5.1394,5.1394,5.1394,5.1394,5.1394,5.1394,5.1403,5.1391,5.1397,5.1402,5.1405,5.1406,5.1406,5.1406,5.1406,5.1406,5.1406,5.1406,5.1406,5.1406,5.1406,5.1406,5.1406,5.1406,5.1406,5.1406,5.1406,5.1406,5.1406,5.1406,5.1406,5.1406,5.1406,5.1406,5.1406,5.1406,5.1406,5.1405,5.1401,5.1395,5.1407,3.3807,3.3807,3.3807,3.3807,3.3807,3.3935,3.4417,3.4546,3.4692,3.5238,3.5605,3.6064,3.6905,3.7595,3.8483,3.9789,4.0087,4.032,4.0827,4.068,4.0958,4.2143,4.322,4.4316,4.5498,4.5594,4.5594,4.5594,4.5594,4.5594,4.5594,4.5594,4.5594,4.5594,4.5594,4.5594,4.5594,4.5594,4.5594,4.5594,4.5594,4.5594,4.5594,4.5594,4.5594,4.5594,4.5594,4.5594,0.0,4.5594,4.6413,4.7682,4.799,4.8952,5.025,5.0577,5.0712,5.0712,5.0712,5.0712,5.0712,5.0712,5.0844,5.102,5.1128,5.1207,5.1294,5.1386,5.1394,5.1394,5.1394,5.1394,5.1394,5.1394,5.1394,5.1394,5.1394,5.14,5.1407,5.1394,5.1398,5.1402,5.1406,5.1406,5.1406,5.1406,5.1406,5.1406,5.1406,5.1406,5.1406,5.1406,5.1406,5.1406,5.1406,5.1406,5.1406,5.1406,5.1406,5.1406,5.1406,5.1406,5.1406,5.1406,5.1406,5.1406,5.1406,5.1406,5.1406,5.1401,5.1396,5.1409,0.0,3.3807,3.3807,3.3807,3.3807,3.3807,3.3807,3.3807,0.0,3.3807,3.438,3.5202,3.6148,3.7359,3.8761,4.0464,4.0545,4.0673,4.15,4.0965,4.115,4.2893,4.3104,4.3758,4.5441,4.5594,4.5594,4.5594,4.5594,4.5594,4.5594,4.5594,4.5594,4.5594,4.5594,4.5594,4.5594,4.5594,4.5594,4.5594,4.5594,4.5594,4.5594,4.5594,4.5594,4.5594,4.5594,4.5594,4.5594,4.5594,4.6105,4.6981,4.7798,4.8625,4.951,5.0385,5.0712,5.0712,5.0712,5.0712,5.0693,5.0721,5.0856,5.1058,5.1325,5.1394,5.1394,5.1394,5.1394,5.1394,5.1394,5.1394,5.1394,5.1394,5.1394,5.1394,5.1394,5.1394,5.1398,5.1408,5.1409,5.1394,5.1404,5.1405,5.1405,5.1406,5.1406,5.1406,5.1406,5.1406,5.1406,5.1406,5.1406,5.1406,5.1406,5.1406,5.1406,5.1406,5.1406,5.1406,5.1406,5.1406,5.1406,5.1406,5.1406,5.1406,5.1406,5.1406,5.1406,5.1405,5.1401,5.1395,3.3807,0.0,3.3807,3.3807,3.3807,3.3807,0.0,3.3807,3.3807,3.3807,3.3954,3.4591,3.6303,3.6994,3.7921,3.9813,4.0282,4.0481,4.0743,4.0619,4.115,4.2893,4.3104,4.3758,4.5441,4.5594,4.5594,4.5594,4.5594,4.5594,4.5594,4.5594,4.5594,4.5594,4.5594,4.5594,4.5594,4.5594,4.5594,4.5594,4.5594,4.5594,4.5594,4.5594,4.5594,4.5594,4.5594,4.5594,4.5594,4.5594,4.6105,4.6981,4.7798,4.8625,4.951,5.0385,5.0712,5.0712,5.0712,5.0712,5.0721,5.0874,5.102,5.1172,5.1357,5.1394,5.1394,5.1394,5.1394,5.1394,5.1394,5.1394,5.1394,5.1394,5.1394,5.1394,5.1394,5.1394,5.1398,5.1408,5.1409,5.1394,5.1404,5.1405,5.1405,5.1406,5.1406,5.1406,5.1406,5.1406,5.1406,5.1406,5.1406,5.1406,5.1406,5.1406,5.1406,5.1406,5.1406,5.1406,5.1406,5.1406,5.1406,5.1406,5.1406,5.1406,5.1406,5.1406,5.1406,5.1405,5.1401,5.1395,3.3807,3.3807,3.3807,3.3807,3.3807,3.3807,3.3807,3.3807,3.3807,3.3807,3.3895,3.4535,3.6365,3.6951,3.7913,4.0127,4.0444,4.0413,4.0487,4.0838,4.1585,4.2931,4.3431,4.4162,4.5479,4.5594,4.5594,4.5594,4.5594,4.5594,4.5594,4.5594,4.5594,4.5594,4.5594,4.5594,4.5594,4.5594,4.5594,4.5594,4.5594,4.5594,4.5594,4.5594,4.5594,4.5594,4.5594,4.5594,4.5594,4.5594,4.5883,4.6394,4.7221,4.8067,4.8913,4.9779,5.0366,5.0712,5.0712,5.073,5.0816,5.0959,5.1084,5.1238,5.136,5.1394,5.1394,5.1394,5.1394,5.1394,5.1394,5.1394,5.1394,5.1394,5.1394,5.1394,5.1394,5.1394,5.1396,5.1402,5.1403,5.1408,5.1401,5.1402,5.1404,5.1406,5.1406,5.1406,5.1406,5.1406,5.1406,5.1406,5.1406,5.1406,5.1406,5.1406,5.1406,5.1406,5.1406,5.1406,5.1406,5.1406,5.1406,5.1406,5.1406,5.1406,5.1406,5.1406,5.1406,5.1406,5.1402,5.1398,3.3807,3.3807,3.3807,3.3807,3.3807,3.3807,3.3807,3.3807,3.3807,3.3807,3.4011,3.4723,3.6422,3.7096,3.821,4.0657,4.0702,4.043,4.0481,4.1258,4.2124,4.3008,4.3816,4.4643,4.5518,4.5594,4.5594,4.5594,4.5594,4.5594,4.5594,4.5594,4.5594,4.5594,4.5594,4.5594,4.5594,4.5594,4.5594,4.5594,4.5594,4.5594,4.5594,4.5594,4.5594,4.5594,4.5594,4.5594,4.5594,4.5594,4.5594,4.5691,4.6567,4.7394,4.8221,4.9086,4.9952,5.0712,5.0712,5.0782,5.0908,5.0991,5.1094,5.1252,5.1362,5.1394,5.1394,5.1394,5.1394,5.1394,5.1394,5.1394,5.1394,5.1394,5.1394,5.1394,5.1394,5.1394,5.1394,5.1394,5.1394,5.14,5.1395,5.1397,5.1401,5.1406,5.1406,5.1406,5.1406,5.1406,5.1406,5.1406,5.1406,5.1406,5.1406,5.1406,5.1406,5.1406,5.1406,5.1406,5.1406,5.1406,5.1406,5.1406,5.1406,5.1406,5.1406,5.1406,5.1406,5.1406,5.1402,5.1401,3.3807,3.3807,3.3807,3.3807,3.3807,3.3807,3.3807,3.3807,3.3807,3.3807,3.4011,3.4765,3.6602,3.7198,3.806,4.0119,4.0456,4.0491,4.0508,4.1258,4.2124,4.3008,4.3816,4.4643,4.5518,4.5594,4.5594,4.5594,4.5594,4.5594,4.5594,4.5594,4.5594,4.5594,4.5594,4.5594,4.5594,4.5594,4.5594,4.5594,4.5594,4.5594,4.5594,4.5594,4.5594,4.5594,4.5594,4.5594,4.5594,4.5594,4.5594,4.5691,4.6567,4.7394,4.8221,4.9086,4.9952,5.0712,5.0712,5.0819,5.0997,5.0996,5.1159,5.1367,5.1392,5.1394,5.1394,5.1394,5.1394,5.1394,5.1394,5.1394,5.1394,5.1394,5.1394,5.1394,5.1394,5.1394,5.1394,5.1394,5.1394,5.1398,5.1409,5.1395,5.14,5.1405,5.1406,5.1406,5.1406,5.1406,5.1406,5.1406,5.1406,5.1406,5.1406,5.1406,5.1406,5.1406,5.1406,5.1406,5.1406,5.1406,5.1406,5.1406,5.1406,5.1406,5.1406,5.1406,5.1406,5.1406,5.1402,5.1401,3.3678,3.3807,3.3807,3.3807,3.3807,3.3847,3.3985,3.4023,3.4061,3.416,3.4731,3.5636,3.6971,3.7782,3.8709,4.0079,4.0379,4.0458,4.0487,4.1665,4.2643,4.3047,4.422,4.5171,4.5556,4.5594,4.5594,4.5594,4.5594,4.5594,4.5594,4.5594,4.5594,4.5594,4.5594,4.5594,4.5594,4.5594,4.5594,4.5594,4.5594,4.5594,4.5594,4.5594,4.5594,4.5594,4.5594,4.5594,4.5594,4.5594,4.5594,4.5633,4.6028,4.699,4.8259,4.9606,5.0366,5.0712,5.0712,5.0835,5.1002,5.1002,5.1191,5.1394,5.1394,5.1394,5.1394,5.1394,5.1394,5.1394,5.1394,5.1394,5.1394,5.1394,5.1394,5.1394,5.1394,5.1394,5.1394,5.1394,5.1394,5.1398,5.1408,5.1395,5.14,5.1404,5.1406,5.1406,5.1406,5.1406,5.1406,5.1406,5.1406,5.1406,5.1406,5.1406,5.1406,5.1406,5.1406,5.1406,5.1406,5.1406,5.1406,5.1406,5.1406,5.1406,5.1406,5.1406,5.1406,5.1406,5.1404,5.1404,3.3587,3.3807,3.3807,3.3807,3.3807,3.3868,3.4136,3.4197,3.425,3.4453,3.5346,3.6377,3.725,3.8433,3.9517,4.0183,4.0362,4.0424,4.0493,4.2003,4.3104,4.3104,4.4566,4.5594,4.5594,4.5594,4.5594,4.5594,4.5594,4.5594,4.5594,4.5594,4.5594,4.5594,4.5594,4.5594,4.5594,4.5594,4.5594,4.5594,4.5594,4.5594,4.5594,4.5594,4.5594,4.5594,4.5594,4.5594,4.5594,4.5594,4.5594,4.5594,4.5594,4.6624,4.8298,4.9817,5.0519,5.0712,5.0712,5.0835,5.1002,5.1002,5.1191,5.1394,5.1394,5.1394,5.1394,5.1394,5.1394,5.1394,5.1394,5.1394,5.1394,5.1394,5.1394,5.1394,5.1394,5.1394,5.1394,5.1394,5.1394,5.1396,5.1405,5.1393,5.1398,5.1402,5.1405,5.1406,5.1406,5.1406,5.1406,5.1406,5.1406,5.1406,5.1406,5.1406,5.1406,5.1406,5.1406,5.1406,5.1406,5.1406,5.1406,5.1406,5.1406,5.1406,5.1406,5.1406,5.1406,5.1406,5.1405,5.1405,3.3587,3.3807,3.3807,3.3807,3.3807,3.3868,3.4136,3.4197,3.425,3.4453,3.5346,3.6377,3.725,3.8947,4.0224,4.0298,4.0362,4.0424,4.0493,4.2003,4.3104,4.3104,4.4566,4.5594,4.5594,4.5594,4.5594,4.5594,4.5594,4.5594,4.5594,4.5594,4.5594,4.5594,4.5594,4.5594,4.5594,4.5594,4.5594,4.5594,4.5594,4.5594,4.5594,4.5594,4.5594,4.5594,4.5594,4.5594,4.5594,4.5594,4.5594,4.5594,4.5594,4.6624,4.8221,4.9144,5.001,5.0712,5.0712,5.0835,5.1002,5.1002,5.1191,5.1394,5.1394,5.1394,5.1394,5.1394,5.1394,5.1394,5.1394,5.1394,5.1394,5.1394,5.1394,5.1394,5.1394,5.1394,5.1394,5.1394,5.1394,5.1394,5.1394,5.1403,5.139,5.1391,5.1401,5.1405,5.1405,5.1406,5.1406,5.1406,5.1406,5.1406,5.1406,5.1406,5.1406,5.1406,5.1406,5.1406,5.1406,5.1406,5.1406,5.1406,5.1406,5.1406,5.1406,5.1406,5.1406,5.1406,5.1405,5.1405,3.405,3.4192,3.3957,3.4639,3.4419,3.4105,3.4337,3.4817,3.5304,3.5676,3.691,3.8156,3.9042,3.9805,4.0291,4.0291,4.0363,4.0415,4.0432,4.1959,4.3104,4.3104,4.4566,4.5594,4.5594,4.5594,4.5594,4.5594,4.5594,4.5594,4.5594,4.5594,4.5594,4.5594,4.5594,4.5594,4.5594,4.5594,4.5594,4.5594,4.5594,4.5594,4.5594,4.5594,4.5594,4.5594,4.5594,4.5594,4.5594,4.5594,4.5594,4.5652,4.6201,4.7105,4.8221,4.9086,4.9952,5.0712,5.0712,5.0835,5.1002,5.1002,5.1191,5.1394,5.1394,5.1394,5.1394,5.1394,5.1394,5.1394,5.1394,5.1394,5.1394,5.1394,5.1394,5.1394,5.1394,5.1394,5.1394,5.1394,5.1394,5.1394,5.1394,5.1403,5.1409,5.1409,5.14,5.1405,5.1405,5.1406,5.1406,5.1406,5.1406,5.1406,5.1406,5.1406,5.1406,5.1406,5.1406,5.1406,5.1406,5.1406,5.1406,5.1406,5.1406,5.1406,5.1406,5.1406,5.1406,5.1406,5.1406,5.1406,3.4032,3.4283,3.4102,3.4835,3.4865,3.4759,3.4956,3.5472,3.6086,3.6744,3.8018,3.9279,4.0129,4.0301,4.031,4.031,4.0354,4.0415,4.0432,4.195,4.3088,4.3104,4.4558,4.5577,4.5594,4.5594,4.5594,4.5594,4.5594,4.5594,4.5594,4.5594,4.5594,4.5594,4.5577,4.5568,4.5568,4.5559,4.555,4.555,4.555,4.5559,4.5568,4.5568,4.5568,4.5568,4.5568,4.5577,4.5594,4.5594,4.5594,4.5671,4.6259,4.699,4.7817,4.8682,4.9529,5.0327,5.0596,5.0835,5.1002,5.1002,5.1191,5.1394,5.1394,5.1394,5.1394,5.1394,5.1394,5.1394,5.1394,5.1394,5.1394,5.1394,5.1394,5.1394,5.1394,5.1394,5.1394,5.1394,5.1394,5.1394,5.1394,5.14,5.1405,5.1405,5.1396,5.1402,5.1403,5.1405,5.1406,5.1406,5.1406,5.1406,5.1406,5.1406,5.1406,5.1406,5.1406,5.1406,5.1406,5.1406,5.1406,5.1406,5.1406,5.1406,5.1406,5.1406,5.1406,5.1406,5.1406,5.1406,3.3385,3.4016,3.4197,3.4216,3.5025,3.5862,3.6081,3.6121,3.6426,3.7505,3.8419,3.9279,4.0129,4.0301,4.0301,4.0298,4.0362,4.0424,4.0493,4.1942,4.3015,4.3096,4.4504,4.5522,4.5586,4.5594,4.5594,4.5594,4.5594,4.5594,4.5594,4.5594,4.5594,4.5594,4.5522,4.5504,4.5504,4.5429,4.54,4.54,4.54,4.5429,4.5504,4.5504,4.5504,4.5504,4.5504,4.555,4.5594,4.5594,4.5594,4.5594,4.5594,4.6124,4.7,4.7798,4.8644,4.951,5.0404,5.0835,5.1002,5.1002,5.1191,5.1394,5.1394,5.1394,5.1394,5.1394,5.1394,5.1394,5.1394,5.1394,5.1394,5.1394,5.1394,5.1394,5.1394,5.1394,5.1394,5.1394,5.1394,5.1394,5.1394,5.1394,5.1394,5.1394,5.1403,5.1393,5.1397,5.1402,5.1405,5.1406,5.1406,5.1406,5.1406,5.1406,5.1406,5.1406,5.1406,5.1406,5.1406,5.1406,5.1406,5.1406,5.1406,5.1406,5.1406,5.1406,5.1406,5.1406,5.1406,5.1406,3.4798,3.489,3.4512,3.5768,3.6047,3.6224,3.7033,3.7585,3.823,3.9318,3.9728,3.9995,4.0244,4.0301,4.0301,4.0298,4.0362,4.0424,4.0493,4.1423,4.2315,4.2958,4.3951,4.4815,4.539,4.5448,4.5448,4.5448,4.5448,4.5448,4.5448,4.5448,4.5448,4.5448,4.5438,4.5429,4.5429,4.541,4.54,4.54,4.54,4.541,4.5429,4.5429,4.5467,4.5504,4.5504,4.555,4.5594,4.5594,4.5594,4.5594,4.5594,4.6124,4.7,4.7798,4.8644,4.951,5.0404,5.0835,5.1002,5.1002,5.1191,5.1394,5.1394,5.1394,5.1394,5.1394,5.1394,5.1394,5.1394,5.1394,5.1394,5.1394,5.1394,5.1394,5.1394,5.1394,5.1394,5.1394,5.1394,5.1394,5.1394,5.1394,5.1394,5.1394,5.1403,5.1394,5.1402,5.1405,5.1406,5.1406,5.1406,5.1406,5.1406,5.1406,5.1406,5.1406,5.1406,5.1406,5.1406,5.1406,5.1406,5.1406,5.1406,5.1406,5.1406,5.1406,5.1406,5.1406,5.1406,5.1406,3.4745,3.4909,3.4689,3.6197,3.6658,3.71,3.843,3.9042,3.9527,4.0167,4.0301,4.0301,4.0301,4.0301,4.031,4.0344,4.037,4.0413,4.0479,4.1193,4.2021,4.2893,4.3684,4.4499,4.5323,4.54,4.54,4.54,4.54,4.54,4.54,4.54,4.54,4.54,4.54,4.539,4.539,4.537,4.5361,4.5361,4.5361,4.5361,4.5361,4.538,4.5419,4.5457,4.5513,4.5568,4.5594,4.5594,4.5594,4.5594,4.5594,4.5913,4.649,4.7317,4.8163,4.9009,4.9875,5.0546,5.1002,5.1002,5.1191,5.1394,5.1394,5.1394,5.1394,5.1394,5.1394,5.1394,5.1394,5.1394,5.1394,5.1394,5.1394,5.1394,5.1394,5.1394,5.1394,5.1394,5.1394,5.1394,5.1394,5.1394,5.1394,5.1394,5.1407,5.1396,5.1402,5.1406,5.1406,5.1406,5.1406,5.1406,5.1406,5.1406,5.1406,5.1406,5.1406,5.1406,5.1406,5.1406,5.1406,5.1406,5.1406,5.1406,5.1406,5.1406,5.1406,5.1406,5.1406,5.1406,3.3796,3.4416,3.4819,3.592,3.7015,3.8247,3.9919,4.0301,4.0301,4.0301,4.0301,4.0301,4.0301,4.0301,4.0319,4.0389,4.0407,4.0422,4.0473,4.1119,4.1909,4.2761,4.3532,4.4317,4.5189,4.5333,4.539,4.539,4.539,4.539,4.539,4.539,4.539,4.539,4.538,4.5398,4.5398,4.5328,4.5307,4.5307,4.5307,4.5307,4.5307,4.5359,4.539,4.541,4.5531,4.5594,4.5594,4.5594,4.5594,4.5594,4.5594,4.5594,4.571,4.6586,4.7413,4.8221,4.9105,5.0117,5.1008,5.102,5.1195,5.1394,5.1394,5.1394,5.1394,5.1394,5.1394,5.1394,5.1394,5.1394,5.1394,5.1394,5.1394,5.1394,5.1394,5.1394,5.1394,5.1394,5.1394,5.1394,5.1394,5.1394,5.1394,5.1394,5.1409,5.1397,5.1398,5.1405,5.1406,5.1406,5.1406,5.1406,5.1406,5.1406,5.1406,5.1406,5.1406,5.1406,5.1406,5.1406,5.1406,5.1406,5.1406,5.1406,5.1406,5.1406,5.1406,5.1406,5.1406,5.1406,3.4519,3.4989,3.5172,3.6659,3.788,3.9011,4.0053,4.0301,4.0301,4.0301,4.0301,4.0301,4.0301,4.0301,4.0301,4.0326,4.037,4.0415,4.0413,4.0577,4.0973,4.1808,4.2594,4.3406,4.4219,4.4917,4.5319,4.5319,4.5319,4.5319,4.5319,4.5319,4.5319,4.5319,4.5328,4.5317,4.5317,4.5307,4.5307,4.5307,4.5307,4.5307,4.5307,4.5317,4.535,4.541,4.5531,4.5594,4.5594,4.5594,4.5594,4.5594,4.5594,4.5594,4.571,4.6586,4.7413,4.8239,4.9225,5.0194,5.102,5.1128,5.1262,5.1394,5.1394,5.1394,5.1394,5.1394,5.1394,5.1394,5.1394,5.1394,5.1394,5.1394,5.1394,5.1394,5.1394,5.1394,5.1394,5.1394,5.1394,5.1394,5.1394,5.1394,5.1394,5.1394,5.1405,5.1394,5.1397,5.1403,5.1406,5.1406,5.1406,5.1406,5.1406,5.1406,5.1406,5.1406,5.1406,5.1406,5.1406,5.1406,5.1406,5.1406,5.1406,5.1406,5.1406,5.1406,5.1406,5.1406,5.1406,5.1406,3.4354,3.4835,3.517,3.7034,3.8566,3.9728,4.0205,4.0301,4.0301,4.0301,4.0301,4.0301,4.0301,4.0301,4.0301,4.0298,4.0325,4.0362,4.0407,4.037,4.065,4.1513,4.2307,4.3119,4.3911,4.4781,4.5307,4.5307,4.5307,4.5307,4.5307,4.5307,4.5307,4.5307,4.5307,4.5307,4.5307,4.5307,4.5307,4.5307,4.5307,4.5307,4.5307,4.5339,4.537,4.541,4.5531,4.5594,4.5594,4.5594,4.5594,4.5594,4.5594,4.5594,4.5671,4.6105,4.7048,4.8172,4.8703,4.9809,5.1014,5.1074,5.1245,5.1394,5.1394,5.1394,5.1394,5.1394,5.1394,5.1394,5.1394,5.1394,5.1394,5.1394,5.1394,5.1394,5.1394,5.1394,5.1394,5.1394,5.1394,5.1394,5.1394,5.1394,5.1394,5.1394,5.1403,5.1391,5.1394,5.1402,5.1405,5.1406,5.1406,5.1406,5.1406,5.1406,5.1406,5.1406,5.1406,5.1406,5.1406,5.1406,5.1406,5.1406,5.1406,5.1406,5.1406,5.1406,5.1406,5.1406,5.1406,5.1406,3.3923,3.4714,3.5419,3.725,3.8897,4.011,4.0263,4.0301,4.0301,4.0301,4.0301,4.0301,4.0301,4.0301,4.0301,4.0308,4.0298,4.0316,4.0381,4.0325,4.0566,4.1284,4.2221,4.3061,4.372,4.4704,4.5307,4.5307,4.5307,4.5307,4.5307,4.5307,4.5307,4.5307,4.5307,4.5307,4.5307,4.5307,4.5307,4.5307,4.5307,4.5307,4.5307,4.537,4.539,4.5419,4.555,4.5586,4.5577,4.5605,4.5594,4.5594,4.5594,4.5594,4.5614,4.5768,4.6797,4.8134,4.8341,4.9536,5.1014,5.1053,5.1214,5.1394,5.1394,5.1394,5.1394,5.1394,5.1394,5.1394,5.1394,5.1394,5.1394,5.1394,5.1394,5.1394,5.1394,5.1394,5.1394,5.1394,5.1394,5.1394,5.1394,5.1394,5.1394,5.1394,5.1402,5.1408,5.1409,5.1399,5.1404,5.1405,5.1406,5.1406,5.1406,5.1406,5.1406,5.1406,5.1406,5.1406,5.1406,5.1406,5.1406,5.1406,5.1406,5.1406,5.1406,5.1406,5.1406,5.1406,5.1406,5.1406,3.3799,3.5548,3.7049,3.7563,3.8438,3.9374,4.0129,4.0301,4.0301,4.0301,4.0301,4.0301,4.0301,4.0301,4.031,4.0291,4.0299,4.0289,4.031,4.0299,4.0346,4.0453,4.1858,4.2832,4.2947,4.438,4.5307,4.5307,4.5307,4.5307,4.5307,4.5307,4.5307,4.5307,4.5307,4.5307,4.5307,4.5307,4.5307,4.5307,4.5307,4.5307,4.5307,4.5369,4.5399,4.5409,4.5532,4.5568,4.5513,4.5577,4.5594,4.5594,4.5594,4.5594,4.5691,4.6451,4.7317,4.8228,4.9232,5.0207,5.1042,5.1262,5.1364,5.1394,5.1394,5.1394,5.1394,5.1394,5.1394,5.1394,5.1394,5.1394,5.1394,5.1394,5.1394,5.1394,5.1394,5.1394,5.1394,5.1394,5.1394,5.1394,5.1394,5.1394,5.1394,5.1394,5.1396,5.14,5.1408,5.1396,5.1401,5.1404,5.1406,5.1406,5.1406,5.1406,5.1406,5.1406,5.1406,5.1406,5.1406,5.1406,5.1406,5.1406,5.1406,5.1406,5.1406,5.1406,5.1406,5.1406,5.1406,5.1406,3.3194,3.513,3.6805,3.7515,3.8362,3.924,4.0091,4.0301,4.0301,4.0301,4.0301,4.0301,4.0301,4.0301,4.0301,4.0301,4.0301,4.0291,4.031,4.0301,4.0291,4.031,4.1781,4.2794,4.2794,4.4322,4.5307,4.5307,4.5307,4.5307,4.5307,4.5307,4.5307,4.5307,4.5307,4.5307,4.5307,4.5307,4.5307,4.5307,4.5307,4.5307,4.5307,4.5359,4.5408,4.5408,4.5505,4.5504,4.5448,4.5513,4.5513,4.5495,4.5495,4.5513,4.5646,4.6521,4.7385,4.8238,4.9318,5.0254,5.1031,5.1238,5.1333,5.1394,5.1394,5.1394,5.1394,5.1394,5.1394,5.1394,5.1394,5.1394,5.1394,5.1394,5.1394,5.1394,5.1394,5.1394,5.1394,5.1394,5.1394,5.1394,5.1394,5.1394,5.1394,5.1394,5.1394,5.1396,5.14,5.1393,5.1399,5.1402,5.1405,5.1406,5.1406,5.1406,5.1406,5.1406,5.1406,5.1406,5.1406,5.1406,5.1406,5.1406,5.1406,5.1406,5.1406,5.1406,5.1406,5.1406,5.1406,5.1406,3.2844,3.4475,3.5978,3.7106,3.7884,3.8648,3.9709,3.9957,4.0034,4.0244,4.0301,4.0301,4.0301,4.0301,4.0301,4.0301,4.0301,4.0301,4.0301,4.0301,4.0301,4.0301,4.1781,4.2794,4.2794,4.4322,4.5307,4.5307,4.5307,4.5307,4.5307,4.5307,4.5307,4.5307,4.5307,4.5307,4.5307,4.5307,4.5307,4.5307,4.5307,4.5307,4.5307,4.5348,4.5369,4.5369,4.5458,4.5457,4.541,4.5438,4.5457,4.54,4.54,4.5563,4.5898,4.6791,4.7665,4.8547,4.9602,5.0403,5.1031,5.1199,5.1325,5.1394,5.1394,5.1394,5.1394,5.1394,5.1394,5.1394,5.1394,5.1394,5.1394,5.1394,5.1394,5.1394,5.1394,5.1394,5.1394,5.1394,5.1394,5.1394,5.1394,5.1394,5.1394,5.1394,5.1394,5.1394,5.1394,5.139,5.1398,5.1398,5.1405,5.1406,5.1406,5.1406,5.1406,5.1406,5.1406,5.1406,5.1406,5.1406,5.1406,5.1406,5.1406,5.1406,5.1406,5.1406,5.1406,5.1406,5.1406,5.1406,3.3152,3.3918,3.4898,3.6222,3.6596,3.7054,3.8706,3.9069,3.9298,4.0129,4.0301,4.0301,4.0301,4.0301,4.0301,4.0301,4.0301,4.0301,4.0301,4.0301,4.0301,4.0301,4.1781,4.2794,4.2794,4.4322,4.5307,4.5307,4.5307,4.5307,4.5307,4.5307,4.5307,4.5307,4.5307,4.5307,4.5307,4.5307,4.5307,4.5307,4.5307,4.5307,4.5307,4.5307,4.5307,4.5317,4.538,4.54,4.5399,4.541,4.541,4.54,4.54,4.5899,4.6752,4.7684,4.8548,4.9394,5.0525,5.0957,5.1042,5.13,5.1392,5.1394,5.1394,5.1394,5.1394,5.1394,5.1394,5.1394,5.1394,5.1394,5.1394,5.1394,5.1394,5.1394,5.1394,5.1394,5.1394,5.1394,5.1394,5.1394,5.1394,5.1394,5.1394,5.1394,5.1394,5.1394,5.1394,5.139,5.1398,5.1398,5.1405,5.1406,5.1406,5.1406,5.1406,5.1406,5.1406,5.1406,5.1406,5.1406,5.1406,5.1406,5.1406,5.1406,5.1406,5.1406,5.1406,5.1406,5.1406,5.1406,3.2389,3.3398,3.4658,3.5315,3.5992,3.6939,3.8629,3.9011,3.926,4.011,4.0301,4.0301,4.0301,4.0301,4.0301,4.0301,4.0301,4.0301,4.0301,4.0301,4.0301,4.0301,4.1781,4.2794,4.2794,4.4322,4.5307,4.5307,4.5307,4.5307,4.5307,4.5307,4.5307,4.5307,4.5307,4.5307,4.5307,4.5307,4.5307,4.5307,4.5307,4.5307,4.5307,4.5307,4.5307,4.5307,4.5329,4.5329,4.5338,4.537,4.537,4.5339,4.5339,4.5876,4.6749,4.7632,4.8506,4.9393,5.0534,5.0945,5.0998,5.1307,5.1391,5.1394,5.141,5.1394,5.1394,5.1394,5.1394,5.1394,5.1394,5.1394,5.1394,5.1394,5.1394,5.1394,5.1394,5.1394,5.1394,5.1394,5.1394,5.1394,5.1394,5.1394,5.1394,5.1394,5.1394,5.1394,5.1394,5.1407,5.1395,5.1398,5.1404,5.1406,5.1406,5.1406,5.1406,5.1406,5.1406,5.1406,5.1406,5.1406,5.1406,5.1406,5.1406,5.1406,5.1406,5.1406,5.1406,5.1406,5.1406,5.1406,3.1952,3.2877,3.4081,3.4415,3.5446,3.6678,3.7885,3.8381,3.882,3.9671,3.9862,3.9938,4.0244,4.0301,4.0301,4.0301,4.0328,4.0327,4.0291,4.0301,4.0301,4.0301,4.1781,4.2794,4.2794,4.4322,4.5307,4.5307,4.5307,4.5307,4.5307,4.5307,4.5307,4.5307,4.5307,4.5307,4.5307,4.5307,4.5307,4.5307,4.5307,4.5307,4.5307,4.5307,4.5307,4.5307,4.5307,4.5307,4.5307,4.5338,4.5338,4.5326,4.5602,4.6235,4.7108,4.7982,4.8845,4.9735,5.0587,5.0908,5.0939,5.1265,5.1385,5.1397,5.1396,5.1408,5.1394,5.1394,5.1394,5.1394,5.1394,5.1394,5.1394,5.1394,5.1394,5.1394,5.1394,5.1394,5.1394,5.1394,5.1394,5.1394,5.1394,5.1394,5.1394,5.1394,5.1394,5.1394,5.1394,5.1403,5.1393,5.1397,5.1402,5.1405,5.1406,5.1406,5.1406,5.1406,5.1406,5.1406,5.1406,5.1406,5.1406,5.1406,5.1406,5.1406,5.1406,5.1406,5.1406,5.1406,5.1406,5.1406,0.0,0.0,0.0,3.3564,3.487,3.615,3.6457,3.713,3.7941,3.882,3.9011,3.926,4.0072,4.0253,4.0272,4.0263,4.0351,4.0366,4.031,4.0301,4.0301,4.0301,4.1781,4.2794,4.2794,4.4322,4.5307,4.5307,4.5307,4.5307,4.5307,4.5307,4.5307,4.5307,4.5307,4.5307,4.5307,4.5307,4.5307,4.5307,4.5307,4.5307,4.5307,4.5307,4.5307,4.5307,4.5307,4.5307,4.5307,4.5307,4.5307,4.5373,4.6194,4.7035,4.7914,4.8783,4.9655,5.0448,5.0764,5.0882,5.0944,5.1205,5.1342,5.1391,5.1394,5.1394,5.1392,5.1394,5.1394,5.1394,5.1394,5.1394,5.1394,5.1394,5.1394,5.1394,5.1394,5.1394,5.1394,5.1394,5.1394,5.1394,5.1394,5.1394,5.1394,5.1394,5.1394,5.1394,5.1394,5.1403,5.1391,5.1397,5.1402,5.1405,5.1406,5.1406,5.1406,5.1406,5.1406,5.1406,5.1406,5.1406,5.1406,5.1406,5.1406,5.1406,5.1406,5.1406,5.1406,5.1406,5.1406,5.1406,3.2575,0.0,0.0,0.0,0.0,0.0,3.6853,3.7432,3.7941,3.882,3.9011,3.8877,3.8495,3.9004,3.9478,3.9392,3.9898,4.0309,4.031,4.0301,4.0301,4.0301,4.1781,4.2794,4.2794,4.4322,4.5307,4.5307,4.5307,4.5307,4.5307,4.5307,4.5307,4.5307,4.5307,4.5307,4.5307,4.5307,4.5307,4.5307,4.5307,4.5307,4.5307,4.5307,4.5307,4.5307,4.5307,4.5307,4.5307,4.5307,4.5307,4.5373,4.6194,4.7035,4.7914,4.8777,4.9618,5.034,5.0538,5.067,5.0797,5.1011,5.1157,5.1261,5.1379,5.14,5.1391,5.141,5.1394,5.1394,5.1394,5.1394,5.1394,5.1394,5.1394,5.1394,5.1394,5.1394,5.1394,5.1394,5.1394,5.1394,5.1394,5.1394,5.1394,5.1394,5.1394,5.1394,5.1394,5.1396,5.1403,5.1391,5.1397,5.1402,5.1405,5.1406,5.1406,5.1406,5.1406,5.1406,5.1406,5.1406,5.1406,5.1406,5.1406,5.1406,5.1406,5.1406,5.1406,5.1406,5.1406,5.1406,3.2776,3.33,3.3876,3.317,0.0,0.0,3.6027,3.6625,3.7176,3.769,3.7888,3.7903,3.7731,3.8191,3.8542,3.8475,3.8877,3.947,4.0205,4.0301,4.0301,4.0301,4.1457,4.2259,4.2259,4.3768,4.4762,4.4762,4.5086,4.5307,4.5307,4.5307,4.5307,4.5307,4.5307,4.5307,4.5307,4.5307,4.5307,4.5307,4.5307,4.5307,4.5307,4.5307,4.5307,4.5307,4.5307,4.5307,4.5307,4.5307,4.5307,4.5422,4.6596,4.7349,4.7941,4.9156,4.9901,5.0325,5.0445,5.0587,5.0731,5.0923,5.108,5.1225,5.1335,5.1382,5.14,5.1408,5.1394,5.1394,5.1394,5.1394,5.1394,5.1394,5.1394,5.1394,5.1394,5.1394,5.1394,5.1394,5.1394,5.1394,5.1394,5.1394,5.1394,5.1394,5.1394,5.1394,5.1394,5.1394,5.1398,5.1408,5.1395,5.14,5.1404,5.1406,5.1406,5.1406,5.1406,5.1406,5.1406,5.1406,5.1406,5.1406,5.1406,5.1406,5.1406,5.1406,5.1406,5.1406,5.1406,5.1406,3.2647,3.3028,3.345,3.3043,3.3993,0.0,3.4664,3.5296,3.5958,3.6053,3.6264,3.662,3.7276,3.7457,3.7561,3.7674,3.7693,3.8266,3.9919,4.0148,4.0186,4.0282,4.1017,4.1495,4.1495,4.2947,4.3892,4.3987,4.4819,4.5307,4.5307,4.5307,4.5307,4.5307,4.5307,4.5307,4.5307,4.5307,4.5307,4.5307,4.5307,4.5307,4.5307,4.5307,4.5307,4.5307,4.5307,4.5307,4.5307,4.5307,4.5364,4.5583,4.7188,4.7865,4.8132,4.9729,5.0302,5.0325,5.0445,5.0587,5.0722,5.0929,5.1082,5.1211,5.128,5.1342,5.1397,5.1408,5.1394,5.1394,5.1394,5.1394,5.1394,5.1394,5.1394,5.1394,5.1394,5.1394,5.1394,5.1394,5.1394,5.1394,5.1394,5.1394,5.1394,5.1394,5.1394,5.1394,5.1394,5.1394,5.1398,5.1407,5.1395,5.14,5.1404,5.1406,5.1406,5.1406,5.1406,5.1406,5.1406,5.1406,5.1406,5.1406,5.1406,5.1406,5.1406,5.1406,5.1406,5.1406,5.1406,5.1406,3.2218,3.2041,3.2003,3.2549,3.2588,0.0,3.4802,3.5061,3.5084,3.5722,3.5905,3.5838,3.5515,3.598,3.6692,3.7561,3.7693,3.8056,3.9107,3.926,3.9508,4.0225,4.1017,4.1495,4.1495,4.2431,4.331,4.3949,4.4819,4.5307,4.5307,4.5307,4.5307,4.5307,4.5307,4.5307,4.5307,4.5307,4.5307,4.5307,4.5307,4.5307,4.5307,4.5307,4.5307,4.5307,4.5307,4.5307,4.5307,4.5307,4.5679,4.6366,4.7387,4.8239,4.8965,4.9939,5.0302,5.0325,5.0445,5.0587,5.0722,5.0929,5.1089,5.1192,5.123,5.1276,5.1326,5.1381,5.1394,5.1394,5.1394,5.1394,5.1394,5.1394,5.1394,5.1394,5.1394,5.1394,5.1394,5.1394,5.1394,5.1394,5.1394,5.1394,5.1394,5.1394,5.1394,5.1394,5.1394,5.1394,5.1394,5.1398,5.1391,5.1398,5.14,5.1405,5.1406,5.1406,5.1406,5.1406,5.1406,5.1406,5.1406,5.1406,5.1406,5.1406,5.1406,5.1406,5.1406,5.1406,5.1406,5.1406,3.1972,3.1836,3.1764,3.1795,3.2003,0.0,0.0,3.4215,3.4401,3.4409,3.4798,3.4945,3.4231,3.4761,3.552,3.6188,3.6301,3.6785,3.8162,3.8343,3.8686,3.9546,4.0005,4.0425,4.0864,4.1667,4.2507,4.3348,4.4188,4.4647,4.4647,4.5048,4.5307,4.5307,4.5307,4.5307,4.5307,4.5307,4.5307,4.5307,4.5307,4.5307,4.5307,4.5307,4.5307,4.5307,4.5307,4.5307,4.5307,4.5307,4.6023,4.7177,4.7635,4.8334,4.9205,4.9996,5.0302,5.0325,5.0445,5.0587,5.0722,5.0929,5.1082,5.1194,5.119,5.1261,5.1359,5.1384,5.1394,5.1394,5.1394,5.1394,5.1394,5.1394,5.1394,5.1394,5.1394,5.1394,5.1394,5.1394,5.1394,5.1394,5.1394,5.1394,5.1394,5.1394,5.1394,5.1394,5.1394,5.1394,5.1394,5.1394,5.1391,5.1398,5.1398,5.1405,5.1406,5.1406,5.1406,5.1406,5.1406,5.1406,5.1406,5.1406,5.1406,5.1406,5.1406,5.1406,5.1406,5.1406,5.1406,5.1406,3.1675,3.1572,3.1498,3.1187,3.1547,3.2104,0.0,0.0,0.0,3.324,3.3808,3.4181,3.358,3.3992,3.4575,3.5,3.4926,3.542,3.7155,3.7392,3.7791,3.8868,3.8858,3.9088,3.9957,4.1074,4.1972,4.2507,4.3615,4.4178,4.4006,4.4838,4.5307,4.5307,4.5307,4.5307,4.5307,4.5307,4.5307,4.5307,4.5307,4.5307,4.5307,4.5307,4.5307,4.5307,4.5307,4.5307,4.5307,4.5307,4.629,4.7788,4.7788,4.843,4.9404,5.0054,5.0302,5.0317,5.0486,5.0615,5.075,5.0959,5.1115,5.1194,5.1225,5.1296,5.1372,5.1406,5.1394,5.1394,5.1394,5.1394,5.1394,5.1394,5.1394,5.1394,5.1394,5.1394,5.1394,5.1394,5.1394,5.1394,5.1394,5.1394,5.1394,5.1394,5.1394,5.1394,5.1394,5.1394,5.1394,5.1394,5.1409,5.1397,5.1398,5.1405,5.1406,5.1406,5.1406,5.1406,5.1406,5.1406,5.1406,5.1406,5.1406,5.1406,5.1406,5.1406,5.1406,5.1406,5.1406,5.1406,3.1177,3.0409,2.9915,3.1204,3.0606,3.0309,3.269,0.0,3.2602,3.3532,0.0,3.3923,3.4067,0.0,0.0,3.5533,3.5039,3.4944,3.613,3.6273,3.6967,3.8783,3.8323,3.819,3.9069,4.1266,4.2374,4.1705,4.3825,4.4819,4.4045,4.4838,4.5307,4.5307,4.5307,4.5307,4.5307,4.5307,4.5307,4.5307,4.5307,4.5307,4.5307,4.5307,4.5307,4.5307,4.5307,4.5307,4.5307,4.5307,4.629,4.7788,4.7788,4.8774,5.0168,5.0264,5.0302,5.0329,5.0596,5.0687,5.0739,5.1063,5.119,5.12,5.1267,5.13,5.1323,5.1381,5.1394,5.1394,5.1394,5.1394,5.1394,5.1394,5.1394,5.1394,5.1394,5.1394,5.1394,5.1394,5.1394,5.1394,5.1394,5.1394,5.1394,5.1394,5.1394,5.1394,5.1394,5.1394,5.1394,5.1394,5.1405,5.1393,5.1398,5.1403,5.1405,5.1406,5.1406,5.1406,5.1406,5.1406,5.1406,5.1406,5.1406,5.1406,5.1406,5.1406,5.1406,5.1406,5.1406,5.1406,3.0977,3.0603,3.0404,3.0616,3.065,3.0921,3.2058,3.2409,3.2508,3.2516,0.0,0.0,0.0,0.0,0.0,0.0,3.4568,3.4705,3.5773,3.5484,3.5939,3.8001,3.8362,3.8591,3.8954,4.0425,4.0998,4.0119,4.2412,4.3692,4.3329,4.4093,4.4781,4.5288,4.5307,4.5307,4.5307,4.5307,4.5307,4.5307,4.5307,4.5307,4.5307,4.5307,4.5307,4.5307,4.5307,4.5307,4.5345,4.5793,4.671,4.7845,4.8353,4.927,5.0302,5.0302,5.0302,5.034,5.0615,5.0705,5.0767,5.1095,5.1202,5.122,5.124,5.128,5.1312,5.138,5.1403,5.1394,5.1394,5.1394,5.1394,5.1394,5.1394,5.1394,5.1394,5.1394,5.1394,5.1394,5.1394,5.1394,5.1394,5.1394,5.1394,5.1394,5.1394,5.1394,5.1394,5.1394,5.1394,5.1394,5.1403,5.1393,5.1398,5.1402,5.1405,5.1406,5.1406,5.1406,5.1406,5.1406,5.1406,5.1406,5.1406,5.1406,5.1406,5.1406,5.1406,5.1406,5.1406,5.1406,3.1438,3.115,3.0905,3.059,3.093,3.1441,3.1716,3.2243,3.2471,3.1767,3.2283,0.0,0.0,0.0,3.3175,3.3572,0.0,3.4141,0.0,3.5001,0.0,0.0,0.0,0.0,0.0,4.0196,4.054,3.9451,4.1705,4.3023,4.2813,4.3548,4.4399,4.5269,4.5307,4.5307,4.5307,4.5307,4.5307,4.5307,4.5307,4.5307,4.5307,4.5307,4.5307,4.5307,4.5307,4.5307,4.5354,4.6175,4.7005,4.7884,4.8754,4.9595,5.0302,5.0302,5.0302,5.0329,5.0567,5.0715,5.0835,5.1108,5.1202,5.1194,5.123,5.1256,5.1312,5.1375,5.1401,5.1394,5.1394,5.1394,5.1394,5.1394,5.1394,5.1394,5.1394,5.1394,5.1394,5.1394,5.1394,5.1394,5.1394,5.1394,5.1394,5.1394,5.1394,5.1394,5.1394,5.1394,5.1394,5.1394,5.1402,5.1409,5.1397,5.1402,5.1405,5.1406,5.1406,5.1406,5.1406,5.1406,5.1406,5.1406,5.1406,5.1406,5.1406,5.1406,5.1406,5.1406,5.1406,5.1406,3.2852,3.1801,3.0869,3.1577,3.1232,3.1011,3.2056,3.23,3.2191,3.1782,3.1717,3.15,3.0692,3.0846,0.0,0.0,0.0,0.0,0.0,0.0,0.0,0.0,0.0,0.0,0.0,4.1266,4.2049,0.0,4.2555,4.3624,4.2832,4.3548,4.4399,4.5269,4.5307,4.5307,4.5307,4.5307,4.5307,4.5307,4.5307,4.5307,4.5307,4.5307,4.5307,4.5307,4.5307,4.5307,4.5354,4.6175,4.7005,4.7884,4.8754,4.9595,5.0302,5.0302,5.0302,5.0325,5.0464,5.0727,5.1,5.1146,5.1202,5.1206,5.1272,5.13,5.1316,5.1379,5.1394,5.1394,5.1394,5.1394,5.1394,5.1394,5.1394,5.1394,5.1394,5.1394,5.1394,5.1394,5.1394,5.1394,5.1394,5.1394,5.1394,5.1394,5.1394,5.1394,5.1394,5.1394,5.1394,5.1394,5.1394,5.1402,5.1397,5.1398,5.1402,5.1406,5.1406,5.1406,5.1406,5.1406,5.1406,5.1406,5.1406,5.1406,5.1406,5.1406,5.1406,5.1406,5.1406,5.1406,3.3041,3.2541,3.2093,3.1852,3.161,3.1526,3.1895,3.1983,3.1932,3.1795,3.1931,3.201,3.1745,3.1569,0.0,0.0,0.0,0.0,0.0,0.0,0.0,0.0,0.0,0.0,0.0,0.0,0.0,0.0,4.074,0.0,4.2756,4.3061,4.3845,4.5269,4.5307,4.5307,4.5307,4.5307,4.5307,4.5307,4.5307,4.5307,4.5307,4.5307,4.5307,4.5307,4.5307,4.5307,4.5422,4.6787,4.7521,4.7941,4.9347,5.0054,5.0302,5.0302,5.0302,5.0329,5.0558,5.0844,5.114,5.119,5.1202,5.1194,5.1235,5.1256,5.1312,5.1378,5.1401,5.1394,5.1394,5.1394,5.1394,5.1394,5.1394,5.1394,5.1394,5.1394,5.1394,5.1394,5.1394,5.1394,5.1394,5.1394,5.1394,5.1394,5.1394,5.1394,5.1394,5.1394,5.1394,5.1394,5.1394,5.1402,5.1397,5.1403,5.1406,5.1406,5.1406,5.1406,5.1406,5.1406,5.1406,5.1406,5.1406,5.1406,5.1406,5.1406,5.1406,5.1406,5.1406,5.1406,3.3852,3.3524,3.3145,3.2369,3.2179,3.2179,3.2179,3.199,3.18,3.18,3.1757,3.1638,3.1359,3.1186,0.0,0.0,0.0,0.0,0.0,3.4036,0.0,0.0,0.0,0.0,0.0,0.0,0.0,0.0,0.0,0.0,0.0,4.2622,4.3424,4.4781,4.5144,4.5307,4.5307,4.5307,4.5307,4.5307,4.5307,4.5307,4.5307,4.5307,4.5307,4.5307,4.5307,4.5449,4.5831,4.7226,4.7979,4.8411,4.9767,5.0302,5.0302,5.0302,5.0317,5.0399,5.0615,5.0902,5.1134,5.119,5.1202,5.1194,5.1235,5.1276,5.1312,5.1378,5.1403,5.1394,5.1394,5.1394,5.1394,5.1394,5.1394,5.1394,5.1394,5.1394,5.1394,5.1394,5.1394,5.1394,5.1394,5.1394,5.1394,5.1394,5.1394,5.1394,5.1394,5.1394,5.1394,5.1394,5.1394,5.1402,5.1397,5.1405,5.1406,5.1406,5.1406,5.1406,5.1406,5.1406,5.1406,5.1406,5.1406,5.1406,5.1406,5.1406,5.1406,5.1406,5.1406,5.1406]}]]